Time,TemperatureF,DewpointF,PressureIn,WindDirection,WindDirectionDegrees,WindSpeedMPH,WindSpeedGustMPH,Humidity,HourlyPrecipIn,Conditions,Clouds,dailyrainin,SoftwareType,DateUTC
2013-10-30 00:00:00,76.8,73.0,30.04,ESE,120,7.0,15.0,88,0.00,,---,0.00,VWS V14.01,2013-10-30 05:00:00,
2013-10-30 00:01:00,76.8,73.0,30.04,ESE,119,9.0,12.0,88,0.00,,---,0.00,VWS V14.01,2013-10-30 05:01:00,
2013-10-30 00:02:00,76.8,73.0,30.05,East,101,11.0,13.0,88,0.00,,---,0.00,VWS V14.01,2013-10-30 05:02:00,
2013-10-30 00:03:00,76.8,73.0,30.05,SE,139,8.0,13.0,88,0.00,,---,0.00,VWS V14.01,2013-10-30 05:03:00,
2013-10-30 00:04:00,76.8,73.0,30.05,ESE,112,8.0,13.0,88,0.00,,---,0.00,VWS V14.01,2013-10-30 05:04:00,
2013-10-30 00:05:00,76.8,73.0,30.05,SE,124,7.0,13.0,88,0.00,,---,0.00,VWS V14.01,2013-10-30 05:05:00,
2013-10-30 00:06:00,76.8,73.0,30.05,ESE,102,11.0,13.0,88,0.00,,---,0.00,VWS V14.01,2013-10-30 05:06:00,
2013-10-30 00:07:00,76.8,73.0,30.05,ESE,119,10.0,13.0,88,0.00,,---,0.00,VWS V14.01,2013-10-30 05:07:00,
2013-10-30 00:08:00,76.8,72.6,30.04,ESE,109,13.0,14.0,87,0.00,,---,0.00,VWS V14.01,2013-10-30 05:08:00,
2013-10-30 00:09:00,76.9,72.7,30.04,ESE,118,12.0,14.0,87,0.00,,---,0.00,VWS V14.01,2013-10-30 05:09:00,
2013-10-30 00:10:00,76.9,72.7,30.04,ESE,107,8.0,14.0,87,0.00,,---,0.00,VWS V14.01,2013-10-30 05:10:00,
2013-10-30 00:11:00,76.9,72.7,30.04,ESE,119,8.0,13.0,87,0.00,,---,0.00,VWS V14.01,2013-10-30 05:11:00,
2013-10-30 00:12:00,76.9,72.7,30.04,ESE,114,11.0,15.0,87,0.00,,---,0.00,VWS V14.01,2013-10-30 05:12:00,
2013-10-30 00:13:00,76.9,72.7,30.04,ESE,113,10.0,15.0,87,0.00,,---,0.00,VWS V14.01,2013-10-30 05:13:00,
2013-10-30 00:14:00,76.9,72.7,30.04,SE,126,13.0,15.0,87,0.00,,---,0.00,VWS V14.01,2013-10-30 05:14:00,
2013-10-30 00:15:00,76.9,72.7,30.04,ESE,106,11.0,15.0,87,0.00,,---,0.00,VWS V14.01,2013-10-30 05:15:00,
2013-10-30 00:16:00,76.9,72.7,30.03,SE,133,12.0,15.0,87,0.00,,---,0.00,VWS V14.01,2013-10-30 05:16:00,
2013-10-30 00:17:00,76.9,72.7,30.03,ESE,116,11.0,15.0,87,0.00,,---,0.00,VWS V14.01,2013-10-30 05:17:00,
2013-10-30 00:18:00,76.9,72.7,30.04,ESE,119,12.0,15.0,87,0.00,,---,0.00,VWS V14.01,2013-10-30 05:18:00,
2013-10-30 00:19:00,76.9,72.7,30.03,ESE,114,13.0,15.0,87,0.00,,---,0.00,VWS V14.01,2013-10-30 05:19:00,
2013-10-30 00:20:00,76.9,72.7,30.04,ESE,107,11.0,15.0,87,0.00,,---,0.00,VWS V14.01,2013-10-30 05:20:00,
2013-10-30 00:21:00,76.9,72.7,30.04,ESE,118,11.0,14.0,87,0.00,,---,0.00,VWS V14.01,2013-10-30 05:21:00,
2013-10-30 00:22:00,76.9,72.7,30.04,ESE,118,9.0,14.0,87,0.00,,---,0.00,VWS V14.01,2013-10-30 05:22:00,
2013-10-30 00:23:00,76.9,73.1,30.04,ESE,118,8.0,14.0,88,0.00,,---,0.00,VWS V14.01,2013-10-30 05:23:00,
2013-10-30 00:24:00,76.9,73.1,30.04,ESE,122,10.0,14.0,88,0.00,,---,0.00,VWS V14.01,2013-10-30 05:24:00,
2013-10-30 00:25:00,76.9,73.1,30.04,ESE,115,10.0,15.0,88,0.00,,---,0.00,VWS V14.01,2013-10-30 05:25:00,
2013-10-30 00:26:00,76.9,73.1,30.04,SE,129,10.0,15.0,88,0.00,,---,0.00,VWS V14.01,2013-10-30 05:26:00,
2013-10-30 00:27:00,76.8,73.0,30.03,ESE,120,9.0,15.0,88,0.00,,---,0.00,VWS V14.01,2013-10-30 05:27:00,
2013-10-30 00:28:00,76.8,73.0,30.03,SE,130,13.0,15.0,88,0.00,,---,0.00,VWS V14.01,2013-10-30 05:28:00,
2013-10-30 00:29:00,76.8,73.0,30.03,SE,134,9.0,15.0,88,0.00,,---,0.00,VWS V14.01,2013-10-30 05:29:00,
2013-10-30 00:30:00,76.8,73.0,30.03,ESE,118,13.0,15.0,88,0.00,,---,0.00,VWS V14.01,2013-10-30 05:30:00,
2013-10-30 00:31:00,76.8,72.6,30.03,SE,130,8.0,17.0,87,0.00,,---,0.00,VWS V14.01,2013-10-30 05:31:00,
2013-10-30 00:32:00,76.8,72.6,30.03,ESE,118,10.0,17.0,87,0.00,,---,0.00,VWS V14.01,2013-10-30 05:32:00,
2013-10-30 00:33:00,76.8,72.6,30.03,ESE,120,11.0,17.0,87,0.00,,---,0.00,VWS V14.01,2013-10-30 05:33:00,
2013-10-30 00:34:00,76.8,72.6,30.03,ESE,107,12.0,17.0,87,0.00,,---,0.00,VWS V14.01,2013-10-30 05:34:00,
2013-10-30 00:35:00,76.9,72.7,30.03,SE,126,12.0,17.0,87,0.00,,---,0.00,VWS V14.01,2013-10-30 05:35:00,
2013-10-30 00:36:00,76.9,72.7,30.03,ESE,114,10.0,17.0,87,0.00,,---,0.00,VWS V14.01,2013-10-30 05:36:00,
2013-10-30 00:37:00,76.9,72.7,30.03,SE,130,11.0,17.0,87,0.00,,---,0.00,VWS V14.01,2013-10-30 05:37:00,
2013-10-30 00:38:00,76.9,72.7,30.03,ESE,111,12.0,17.0,87,0.00,,---,0.00,VWS V14.01,2013-10-30 05:38:00,
2013-10-30 00:39:00,76.9,72.7,30.03,ESE,115,12.0,17.0,87,0.00,,---,0.00,VWS V14.01,2013-10-30 05:39:00,
2013-10-30 00:40:00,76.9,72.7,30.03,ESE,120,11.0,17.0,87,0.00,,---,0.00,VWS V14.01,2013-10-30 05:40:00,
2013-10-30 00:41:00,76.8,72.6,30.03,SE,124,10.0,15.0,87,0.00,,---,0.00,VWS V14.01,2013-10-30 05:41:00,
2013-10-30 00:42:00,76.8,72.6,30.03,ESE,112,10.0,15.0,87,0.00,,---,0.00,VWS V14.01,2013-10-30 05:42:00,
2013-10-30 00:43:00,76.8,72.6,30.03,ESE,123,12.0,15.0,87,0.00,,---,0.00,VWS V14.01,2013-10-30 05:43:00,
2013-10-30 00:44:00,76.8,72.6,30.03,SE,124,11.0,15.0,87,0.00,,---,0.00,VWS V14.01,2013-10-30 05:44:00,
2013-10-30 00:45:00,76.8,72.6,30.03,SE,131,10.0,15.0,87,0.00,,---,0.00,VWS V14.01,2013-10-30 05:45:00,
2013-10-30 00:46:00,76.8,72.6,30.03,ESE,105,10.0,15.0,87,0.00,,---,0.00,VWS V14.01,2013-10-30 05:46:00,
2013-10-30 00:47:00,76.8,72.6,30.03,SE,130,10.0,15.0,87,0.00,,---,0.00,VWS V14.01,2013-10-30 05:47:00,
2013-10-30 00:48:00,76.8,72.6,30.03,ESE,120,9.0,15.0,87,0.00,,---,0.00,VWS V14.01,2013-10-30 05:48:00,
2013-10-30 00:49:00,76.8,72.6,30.03,ESE,109,15.0,15.0,87,0.00,,---,0.00,VWS V14.01,2013-10-30 05:49:00,
2013-10-30 00:50:00,76.8,72.6,30.03,ESE,120,14.0,15.0,87,0.00,,---,0.00,VWS V14.01,2013-10-30 05:50:00,
2013-10-30 00:51:00,76.8,72.6,30.03,ESE,114,10.0,13.0,87,0.00,,---,0.00,VWS V14.01,2013-10-30 05:51:00,
2013-10-30 00:52:00,76.8,72.6,30.03,SE,126,10.0,14.0,87,0.00,,---,0.00,VWS V14.01,2013-10-30 05:52:00,
2013-10-30 00:53:00,76.8,72.6,30.03,ESE,123,11.0,14.0,87,0.00,,---,0.00,VWS V14.01,2013-10-30 05:53:00,
2013-10-30 00:54:00,76.8,72.3,30.03,ESE,112,10.0,14.0,86,0.00,,---,0.00,VWS V14.01,2013-10-30 05:54:00,
2013-10-30 00:55:00,76.8,72.3,30.03,ESE,116,9.0,14.0,86,0.00,,---,0.00,VWS V14.01,2013-10-30 05:55:00,
2013-10-30 00:56:00,76.8,72.6,30.03,ESE,113,12.0,14.0,87,0.00,,---,0.00,VWS V14.01,2013-10-30 05:56:00,
2013-10-30 00:57:00,76.8,72.3,30.03,SE,126,10.0,14.0,86,0.00,,---,0.00,VWS V14.01,2013-10-30 05:57:00,
2013-10-30 00:58:00,76.8,72.6,30.03,ESE,112,13.0,14.0,87,0.00,,---,0.00,VWS V14.01,2013-10-30 05:58:00,
2013-10-30 00:59:00,76.8,72.6,30.03,ESE,122,11.0,14.0,87,0.00,,---,0.00,VWS V14.01,2013-10-30 05:59:00,
2013-10-30 01:00:00,76.8,72.3,30.03,ESE,112,10.0,14.0,86,0.00,,---,0.00,VWS V14.01,2013-10-30 06:00:00,
2013-10-30 01:01:00,76.8,72.3,30.03,ESE,111,8.0,14.0,86,0.00,,---,0.00,VWS V14.01,2013-10-30 06:01:00,
2013-10-30 01:02:00,76.8,72.3,30.03,ESE,122,10.0,14.0,86,0.00,,---,0.00,VWS V14.01,2013-10-30 06:02:00,
2013-10-30 01:03:00,76.8,72.3,30.03,SE,128,9.0,14.0,86,0.00,,---,0.00,VWS V14.01,2013-10-30 06:03:00,
2013-10-30 01:04:00,76.8,72.3,30.03,ESE,106,12.0,16.0,86,0.00,,---,0.00,VWS V14.01,2013-10-30 06:04:00,
2013-10-30 01:05:00,76.8,72.3,30.02,SE,125,8.0,16.0,86,0.00,,---,0.00,VWS V14.01,2013-10-30 06:05:00,
2013-10-30 01:06:00,76.8,72.3,30.03,ESE,116,11.0,16.0,86,0.00,,---,0.00,VWS V14.01,2013-10-30 06:06:00,
2013-10-30 01:07:00,76.8,72.3,30.03,ESE,122,9.0,16.0,86,0.00,,---,0.00,VWS V14.01,2013-10-30 06:07:00,
2013-10-30 01:08:00,76.8,72.3,30.03,ESE,116,9.0,16.0,86,0.00,,---,0.00,VWS V14.01,2013-10-30 06:08:00,
2013-10-30 01:09:00,76.8,72.3,30.03,SE,129,8.0,16.0,86,0.00,,---,0.00,VWS V14.01,2013-10-30 06:09:00,
2013-10-30 01:10:00,76.8,72.3,30.03,SE,125,10.0,16.0,86,0.00,,---,0.00,VWS V14.01,2013-10-30 06:10:00,
2013-10-30 01:11:00,76.8,72.3,30.03,ESE,120,5.0,11.0,86,0.00,,---,0.00,VWS V14.01,2013-10-30 06:11:00,
2013-10-30 01:12:00,76.8,72.3,30.03,SE,130,8.0,11.0,86,0.00,,---,0.00,VWS V14.01,2013-10-30 06:12:00,
2013-10-30 01:13:00,76.8,72.3,30.03,SE,128,10.0,11.0,86,0.00,,---,0.00,VWS V14.01,2013-10-30 06:13:00,
2013-10-30 01:14:00,76.8,72.3,30.03,ESE,113,13.0,13.0,86,0.00,,---,0.00,VWS V14.01,2013-10-30 06:14:00,
2013-10-30 01:15:00,76.8,72.3,30.03,SE,130,9.0,14.0,86,0.00,,---,0.00,VWS V14.01,2013-10-30 06:15:00,
2013-10-30 01:16:00,76.8,72.3,30.03,SE,124,9.0,14.0,86,0.00,,---,0.00,VWS V14.01,2013-10-30 06:16:00,
2013-10-30 01:17:00,76.8,72.3,30.03,ESE,107,7.0,14.0,86,0.00,,---,0.00,VWS V14.01,2013-10-30 06:17:00,
2013-10-30 01:18:00,76.8,72.3,30.03,ESE,122,8.0,14.0,86,0.00,,---,0.00,VWS V14.01,2013-10-30 06:18:00,
2013-10-30 01:19:00,76.8,72.3,30.03,ESE,122,9.0,14.0,86,0.00,,---,0.00,VWS V14.01,2013-10-30 06:19:00,
2013-10-30 01:20:00,76.8,72.3,30.03,ESE,120,10.0,14.0,86,0.00,,---,0.00,VWS V14.01,2013-10-30 06:20:00,
2013-10-30 01:21:00,76.8,72.3,30.03,ESE,120,4.0,12.0,86,0.00,,---,0.00,VWS V14.01,2013-10-30 06:21:00,
2013-10-30 01:22:00,76.8,72.3,30.03,ESE,120,10.0,14.0,86,0.00,,---,0.00,VWS V14.01,2013-10-30 06:22:00,
2013-10-30 01:23:00,76.8,72.3,30.03,ESE,117,8.0,14.0,86,0.00,,---,0.00,VWS V14.01,2013-10-30 06:23:00,
2013-10-30 01:24:00,76.8,72.3,30.03,ESE,104,8.0,14.0,86,0.00,,---,0.00,VWS V14.01,2013-10-30 06:24:00,
2013-10-30 01:25:00,76.8,72.3,30.03,SE,125,7.0,14.0,86,0.00,,---,0.00,VWS V14.01,2013-10-30 06:25:00,
2013-10-30 01:26:00,76.8,72.3,30.03,ESE,110,11.0,14.0,86,0.00,,---,0.00,VWS V14.01,2013-10-30 06:26:00,
2013-10-30 01:27:00,76.8,72.3,30.03,ESE,112,12.0,14.0,86,0.00,,---,0.00,VWS V14.01,2013-10-30 06:27:00,
2013-10-30 01:28:00,76.8,72.3,30.03,SE,130,9.0,14.0,86,0.00,,---,0.00,VWS V14.01,2013-10-30 06:28:00,
2013-10-30 01:29:00,76.8,72.3,30.03,ESE,108,7.0,14.0,86,0.00,,---,0.00,VWS V14.01,2013-10-30 06:29:00,
2013-10-30 01:30:00,76.8,72.3,30.03,ESE,113,5.0,14.0,86,0.00,,---,0.00,VWS V14.01,2013-10-30 06:30:00,
2013-10-30 01:35:00,76.7,72.2,30.03,SE,124,8.0,8.0,86,0.00,,---,0.00,VWS V14.01,2013-10-30 06:35:00,
2013-10-30 01:36:00,76.8,72.3,30.03,ESE,116,8.0,9.0,86,0.00,,---,0.00,VWS V14.01,2013-10-30 06:36:00,
2013-10-30 01:37:00,76.8,72.3,30.03,ESE,112,7.0,11.0,86,0.00,,---,0.00,VWS V14.01,2013-10-30 06:37:00,
2013-10-30 01:38:00,76.7,72.2,30.03,SE,125,8.0,11.0,86,0.00,,---,0.00,VWS V14.01,2013-10-30 06:38:00,
2013-10-30 01:39:00,76.7,72.2,30.03,SE,125,8.0,12.0,86,0.00,,---,0.00,VWS V14.01,2013-10-30 06:39:00,
2013-10-30 01:40:00,76.7,72.2,30.03,ESE,118,9.0,13.0,86,0.00,,---,0.00,VWS V14.01,2013-10-30 06:40:00,
2013-10-30 01:41:00,76.7,72.2,30.02,ESE,120,10.0,12.0,86,0.00,,---,0.00,VWS V14.01,2013-10-30 06:41:00,
2013-10-30 01:42:00,76.8,72.3,30.02,ESE,115,9.0,12.0,86,0.00,,---,0.00,VWS V14.01,2013-10-30 06:42:00,
2013-10-30 01:43:00,76.7,72.2,30.02,SE,126,8.0,12.0,86,0.00,,---,0.00,VWS V14.01,2013-10-30 06:43:00,
2013-10-30 01:44:00,76.7,72.2,30.02,SE,125,8.0,12.0,86,0.00,,---,0.00,VWS V14.01,2013-10-30 06:44:00,
2013-10-30 01:45:00,76.7,72.2,30.02,SE,125,7.0,12.0,86,0.00,,---,0.00,VWS V14.01,2013-10-30 06:45:00,
2013-10-30 01:46:00,76.7,72.2,30.02,ESE,114,10.0,12.0,86,0.00,,---,0.00,VWS V14.01,2013-10-30 06:46:00,
2013-10-30 01:47:00,76.7,72.2,30.02,ESE,110,7.0,12.0,86,0.00,,---,0.00,VWS V14.01,2013-10-30 06:47:00,
2013-10-30 01:48:00,76.7,72.2,30.02,ESE,119,7.0,13.0,86,0.00,,---,0.00,VWS V14.01,2013-10-30 06:48:00,
2013-10-30 01:49:00,76.7,72.2,30.02,ESE,119,7.0,13.0,86,0.00,,---,0.00,VWS V14.01,2013-10-30 06:49:00,
2013-10-30 01:50:00,76.7,72.2,30.02,ESE,122,6.0,13.0,86,0.00,,---,0.00,VWS V14.01,2013-10-30 06:50:00,
2013-10-30 01:51:00,76.7,72.2,30.02,SE,126,5.0,9.0,86,0.00,,---,0.00,VWS V14.01,2013-10-30 06:51:00,
2013-10-30 01:52:00,76.7,72.2,30.02,ESE,118,7.0,10.0,86,0.00,,---,0.00,VWS V14.01,2013-10-30 06:52:00,
2013-10-30 01:53:00,76.7,72.5,30.02,ESE,120,7.0,11.0,87,0.00,,---,0.00,VWS V14.01,2013-10-30 06:53:00,
2013-10-30 01:54:00,76.7,72.5,30.02,SE,128,8.0,12.0,87,0.00,,---,0.00,VWS V14.01,2013-10-30 06:54:00,
2013-10-30 01:55:00,76.7,72.5,30.02,ESE,116,8.0,13.0,87,0.00,,---,0.00,VWS V14.01,2013-10-30 06:55:00,
2013-10-30 01:56:00,76.7,72.2,30.02,SE,128,6.0,13.0,86,0.00,,---,0.00,VWS V14.01,2013-10-30 06:56:00,
2013-10-30 01:57:00,76.6,72.1,30.02,ESE,106,8.0,13.0,86,0.00,,---,0.00,VWS V14.01,2013-10-30 06:57:00,
2013-10-30 01:58:00,76.6,72.1,30.02,ESE,120,7.0,13.0,86,0.00,,---,0.00,VWS V14.01,2013-10-30 06:58:00,
2013-10-30 01:59:00,76.6,72.1,30.02,ESE,119,10.0,13.0,86,0.00,,---,0.00,VWS V14.01,2013-10-30 06:59:00,
2013-10-30 02:00:00,76.6,72.1,30.02,ESE,116,7.0,13.0,86,0.00,,---,0.00,VWS V14.01,2013-10-30 07:00:00,
2013-10-30 02:01:00,76.6,72.1,30.02,SE,125,8.0,12.0,86,0.00,,---,0.00,VWS V14.01,2013-10-30 07:01:00,
2013-10-30 02:02:00,76.6,72.1,30.02,SE,133,7.0,12.0,86,0.00,,---,0.00,VWS V14.01,2013-10-30 07:02:00,
2013-10-30 02:03:00,76.6,72.1,30.02,SE,134,9.0,13.0,86,0.00,,---,0.00,VWS V14.01,2013-10-30 07:03:00,
2013-10-30 02:04:00,76.6,72.1,30.02,ESE,116,7.0,13.0,86,0.00,,---,0.00,VWS V14.01,2013-10-30 07:04:00,
2013-10-30 02:05:00,76.6,72.1,30.02,ESE,114,11.0,13.0,86,0.00,,---,0.00,VWS V14.01,2013-10-30 07:05:00,
2013-10-30 02:06:00,76.6,72.1,30.02,SE,130,6.0,14.0,86,0.00,,---,0.00,VWS V14.01,2013-10-30 07:06:00,
2013-10-30 02:07:00,76.8,72.3,30.03,ESE,116,8.0,14.0,86,0.00,,---,0.00,VWS V14.01,2013-10-30 07:07:00,
2013-10-30 02:08:00,76.6,72.1,30.02,ESE,122,5.0,14.0,86,0.00,,---,0.00,VWS V14.01,2013-10-30 07:08:00,
2013-10-30 02:09:00,76.6,72.1,30.02,SE,136,5.0,14.0,86,0.00,,---,0.00,VWS V14.01,2013-10-30 07:09:00,
2013-10-30 02:10:00,76.6,72.1,30.02,SE,127,6.0,14.0,86,0.00,,---,0.00,VWS V14.01,2013-10-30 07:10:00,
2013-10-30 02:11:00,76.6,72.1,30.02,SE,129,4.0,12.0,86,0.00,,---,0.00,VWS V14.01,2013-10-30 07:11:00,
2013-10-30 02:12:00,76.6,72.1,30.02,SE,126,9.0,12.0,86,0.00,,---,0.00,VWS V14.01,2013-10-30 07:12:00,
2013-10-30 02:13:00,76.8,72.3,30.03,SE,130,7.0,14.0,86,0.00,,---,0.00,VWS V14.01,2013-10-30 07:13:00,
2013-10-30 02:14:00,76.8,72.3,30.03,SE,130,7.0,14.0,86,0.00,,---,0.00,VWS V14.01,2013-10-30 07:14:00,
2013-10-30 02:15:00,76.5,72.0,30.02,SE,132,9.0,12.0,86,0.00,,---,0.00,VWS V14.01,2013-10-30 07:15:00,
2013-10-30 02:16:00,76.5,72.0,30.02,ESE,120,4.0,12.0,86,0.00,,---,0.00,VWS V14.01,2013-10-30 07:16:00,
2013-10-30 02:17:00,76.5,72.0,30.02,SE,124,11.0,12.0,86,0.00,,---,0.00,VWS V14.01,2013-10-30 07:17:00,
2013-10-30 02:18:00,76.5,72.0,30.02,ESE,122,4.0,12.0,86,0.00,,---,0.00,VWS V14.01,2013-10-30 07:18:00,
2013-10-30 02:19:00,76.5,72.0,30.02,ESE,116,9.0,13.0,86,0.00,,---,0.00,VWS V14.01,2013-10-30 07:19:00,
2013-10-30 02:20:00,76.5,72.0,30.02,ESE,104,10.0,13.0,86,0.00,,---,0.00,VWS V14.01,2013-10-30 07:20:00,
2013-10-30 02:21:00,76.5,72.0,30.02,ESE,120,7.0,9.0,86,0.00,,---,0.00,VWS V14.01,2013-10-30 07:21:00,
2013-10-30 02:22:00,76.5,72.0,30.02,ESE,123,5.0,9.0,86,0.00,,---,0.00,VWS V14.01,2013-10-30 07:22:00,
2013-10-30 02:23:00,76.5,72.0,30.02,SE,127,7.0,9.0,86,0.00,,---,0.00,VWS V14.01,2013-10-30 07:23:00,
2013-10-30 02:24:00,76.5,72.0,30.02,ESE,118,8.0,9.0,86,0.00,,---,0.00,VWS V14.01,2013-10-30 07:24:00,
2013-10-30 02:25:00,76.5,72.0,30.02,ESE,120,6.0,9.0,86,0.00,,---,0.00,VWS V14.01,2013-10-30 07:25:00,
2013-10-30 02:26:00,76.5,72.0,30.02,ESE,121,4.0,9.0,86,0.00,,---,0.00,VWS V14.01,2013-10-30 07:26:00,
2013-10-30 02:27:00,76.5,72.0,30.02,SE,127,8.0,10.0,86,0.00,,---,0.00,VWS V14.01,2013-10-30 07:27:00,
2013-10-30 02:28:00,76.5,72.0,30.02,SE,126,8.0,10.0,86,0.00,,---,0.00,VWS V14.01,2013-10-30 07:28:00,
2013-10-30 02:29:00,76.5,72.0,30.02,ESE,120,11.0,11.0,86,0.00,,---,0.00,VWS V14.01,2013-10-30 07:29:00,
2013-10-30 02:30:00,76.5,72.0,30.01,ESE,121,8.0,12.0,86,0.00,,---,0.00,VWS V14.01,2013-10-30 07:30:00,
2013-10-30 02:31:00,76.5,72.0,30.01,ESE,117,7.0,11.0,86,0.00,,---,0.00,VWS V14.01,2013-10-30 07:31:00,
2013-10-30 02:32:00,76.5,72.0,30.01,SE,125,7.0,12.0,86,0.00,,---,0.00,VWS V14.01,2013-10-30 07:32:00,
2013-10-30 02:33:00,76.5,72.3,30.01,ESE,117,7.0,12.0,87,0.00,,---,0.00,VWS V14.01,2013-10-30 07:33:00,
2013-10-30 02:34:00,76.5,72.3,30.01,ESE,122,8.0,12.0,87,0.00,,---,0.00,VWS V14.01,2013-10-30 07:34:00,
2013-10-30 02:35:00,76.5,72.3,30.01,ESE,119,7.0,12.0,87,0.00,,---,0.00,VWS V14.01,2013-10-30 07:35:00,
2013-10-30 02:36:00,76.7,72.5,30.02,SE,134,9.0,13.0,87,0.00,,---,0.00,VWS V14.01,2013-10-30 07:36:00,
2013-10-30 02:37:00,76.5,72.3,30.01,ESE,113,7.0,12.0,87,0.00,,---,0.00,VWS V14.01,2013-10-30 07:37:00,
2013-10-30 02:38:00,76.5,72.3,30.01,ESE,115,8.0,12.0,87,0.00,,---,0.00,VWS V14.01,2013-10-30 07:38:00,
2013-10-30 02:39:00,76.5,72.3,30.01,ESE,114,6.0,12.0,87,0.00,,---,0.00,VWS V14.01,2013-10-30 07:39:00,
2013-10-30 02:40:00,76.5,72.3,30.01,SE,124,8.0,12.0,87,0.00,,---,0.00,VWS V14.01,2013-10-30 07:40:00,
2013-10-30 02:41:00,76.5,72.3,30.01,ESE,116,8.0,10.0,87,0.00,,---,0.00,VWS V14.01,2013-10-30 07:41:00,
2013-10-30 02:42:00,76.5,72.3,30.01,SE,124,7.0,11.0,87,0.00,,---,0.00,VWS V14.01,2013-10-30 07:42:00,
2013-10-30 02:43:00,76.5,72.3,30.01,ESE,120,4.0,11.0,87,0.00,,---,0.00,VWS V14.01,2013-10-30 07:43:00,
2013-10-30 02:44:00,76.5,72.3,30.01,ESE,120,7.0,11.0,87,0.00,,---,0.00,VWS V14.01,2013-10-30 07:44:00,
2013-10-30 02:45:00,76.4,72.2,30.01,ESE,114,6.0,11.0,87,0.00,,---,0.00,VWS V14.01,2013-10-30 07:45:00,
2013-10-30 02:46:00,76.4,72.2,30.01,SE,145,4.0,11.0,87,0.00,,---,0.00,VWS V14.01,2013-10-30 07:46:00,
2013-10-30 02:47:00,76.4,72.2,30.01,SE,128,6.0,11.0,87,0.00,,---,0.00,VWS V14.01,2013-10-30 07:47:00,
2013-10-30 02:48:00,76.4,72.2,30.01,ESE,107,7.0,11.0,87,0.00,,---,0.00,VWS V14.01,2013-10-30 07:48:00,
2013-10-30 02:49:00,76.4,72.2,30.01,East,101,10.0,11.0,87,0.00,,---,0.00,VWS V14.01,2013-10-30 07:49:00,
2013-10-30 02:50:00,76.4,72.2,30.01,SE,141,8.0,11.0,87,0.00,,---,0.00,VWS V14.01,2013-10-30 07:50:00,
2013-10-30 02:51:00,76.4,72.2,30.01,SE,128,7.0,9.0,87,0.00,,---,0.00,VWS V14.01,2013-10-30 07:51:00,
2013-10-30 02:52:00,76.4,72.2,30.01,SE,128,10.0,12.0,87,0.00,,---,0.00,VWS V14.01,2013-10-30 07:52:00,
2013-10-30 02:53:00,76.4,72.2,30.01,SE,137,7.0,12.0,87,0.00,,---,0.00,VWS V14.01,2013-10-30 07:53:00,
2013-10-30 02:54:00,76.4,72.2,30.01,ESE,120,10.0,12.0,87,0.00,,---,0.00,VWS V14.01,2013-10-30 07:54:00,
2013-10-30 02:55:00,76.4,72.2,30.00,SE,131,8.0,12.0,87,0.00,,---,0.00,VWS V14.01,2013-10-30 07:55:00,
2013-10-30 02:56:00,76.4,72.2,30.00,ESE,122,6.0,12.0,87,0.00,,---,0.00,VWS V14.01,2013-10-30 07:56:00,
2013-10-30 02:57:00,76.4,72.2,30.00,ESE,112,6.0,12.0,87,0.00,,---,0.00,VWS V14.01,2013-10-30 07:57:00,
2013-10-30 02:58:00,76.4,72.2,30.00,SE,126,7.0,12.0,87,0.00,,---,0.00,VWS V14.01,2013-10-30 07:58:00,
2013-10-30 02:59:00,76.3,72.2,30.01,SE,134,4.0,12.0,87,0.00,,---,0.00,VWS V14.01,2013-10-30 07:59:00,
2013-10-30 03:00:00,76.3,72.2,30.01,SE,126,5.0,12.0,87,0.00,,---,0.00,VWS V14.01,2013-10-30 08:00:00,
2013-10-30 03:01:00,76.3,72.2,30.01,ESE,119,7.0,10.0,87,0.00,,---,0.00,VWS V14.01,2013-10-30 08:01:00,
2013-10-30 03:02:00,76.3,72.2,30.01,ESE,116,5.0,10.0,87,0.00,,---,0.00,VWS V14.01,2013-10-30 08:02:00,
2013-10-30 03:03:00,76.3,72.2,30.01,ESE,123,5.0,10.0,87,0.00,,---,0.00,VWS V14.01,2013-10-30 08:03:00,
2013-10-30 03:04:00,76.3,71.8,30.01,ESE,121,7.0,10.0,86,0.00,,---,0.00,VWS V14.01,2013-10-30 08:04:00,
2013-10-30 03:05:00,76.3,71.8,30.01,East,95,5.0,10.0,86,0.00,,---,0.00,VWS V14.01,2013-10-30 08:05:00,
2013-10-30 03:06:00,76.4,71.9,30.01,SE,128,5.0,10.0,86,0.00,,---,0.00,VWS V14.01,2013-10-30 08:06:00,
2013-10-30 03:07:00,76.4,71.9,30.01,SE,144,5.0,10.0,86,0.00,,---,0.00,VWS V14.01,2013-10-30 08:07:00,
2013-10-30 03:08:00,76.4,71.9,30.01,SE,124,3.0,10.0,86,0.00,,---,0.00,VWS V14.01,2013-10-30 08:08:00,
2013-10-30 03:09:00,76.4,71.9,30.01,SE,124,7.0,10.0,86,0.00,,---,0.00,VWS V14.01,2013-10-30 08:09:00,
2013-10-30 03:10:00,76.4,71.9,30.01,SE,124,4.0,10.0,86,0.00,,---,0.00,VWS V14.01,2013-10-30 08:10:00,
2013-10-30 03:11:00,76.5,72.0,30.01,SE,125,7.0,8.0,86,0.00,,---,0.00,VWS V14.01,2013-10-30 08:11:00,
2013-10-30 03:12:00,76.5,72.0,30.01,ESE,113,10.0,10.0,86,0.00,,---,0.00,VWS V14.01,2013-10-30 08:12:00,
2013-10-30 03:13:00,76.5,72.0,30.01,ESE,116,4.0,10.0,86,0.00,,---,0.00,VWS V14.01,2013-10-30 08:13:00,
2013-10-30 03:14:00,76.5,72.0,30.01,SE,128,5.0,10.0,86,0.00,,---,0.00,VWS V14.01,2013-10-30 08:14:00,
2013-10-30 03:15:00,76.6,72.1,30.01,ESE,122,8.0,10.0,86,0.00,,---,0.00,VWS V14.01,2013-10-30 08:15:00,
2013-10-30 03:16:00,76.5,72.0,30.00,SE,136,7.0,10.0,86,0.00,,---,0.00,VWS V14.01,2013-10-30 08:16:00,
2013-10-30 03:17:00,76.6,72.1,30.00,SE,124,6.0,10.0,86,0.00,,---,0.00,VWS V14.01,2013-10-30 08:17:00,
2013-10-30 03:18:00,76.6,72.1,30.00,ESE,121,7.0,11.0,86,0.00,,---,0.00,VWS V14.01,2013-10-30 08:18:00,
2013-10-30 03:19:00,76.6,72.1,30.00,SE,130,7.0,11.0,86,0.00,,---,0.00,VWS V14.01,2013-10-30 08:19:00,
2013-10-30 03:20:00,76.6,72.1,30.00,ESE,118,6.0,11.0,86,0.00,,---,0.00,VWS V14.01,2013-10-30 08:20:00,
2013-10-30 03:21:00,76.5,72.0,30.00,ESE,111,6.0,10.0,86,0.00,,---,0.00,VWS V14.01,2013-10-30 08:21:00,
2013-10-30 03:22:00,76.5,72.0,30.00,ESE,116,4.0,10.0,86,0.00,,---,0.00,VWS V14.01,2013-10-30 08:22:00,
2013-10-30 03:23:00,76.5,72.0,30.00,ESE,112,8.0,10.0,86,0.00,,---,0.00,VWS V14.01,2013-10-30 08:23:00,
2013-10-30 03:24:00,76.5,72.0,30.00,SE,124,6.0,10.0,86,0.00,,---,0.00,VWS V14.01,2013-10-30 08:24:00,
2013-10-30 03:25:00,76.5,72.0,30.00,ESE,105,11.0,11.0,86,0.00,,---,0.00,VWS V14.01,2013-10-30 08:25:00,
2013-10-30 03:26:00,76.5,72.0,30.00,ESE,115,6.0,11.0,86,0.00,,---,0.00,VWS V14.01,2013-10-30 08:26:00,
2013-10-30 03:27:00,76.5,72.0,30.00,ESE,105,8.0,11.0,86,0.00,,---,0.00,VWS V14.01,2013-10-30 08:27:00,
2013-10-30 03:28:00,76.5,72.0,30.00,ESE,122,8.0,11.0,86,0.00,,---,0.00,VWS V14.01,2013-10-30 08:28:00,
2013-10-30 03:29:00,76.5,72.0,30.00,ESE,120,8.0,11.0,86,0.00,,---,0.00,VWS V14.01,2013-10-30 08:29:00,
2013-10-30 03:30:00,76.5,72.0,30.00,ESE,120,8.0,11.0,86,0.00,,---,0.00,VWS V14.01,2013-10-30 08:30:00,
2013-10-30 03:31:00,76.5,72.0,30.00,SE,124,3.0,10.0,86,0.00,,---,0.00,VWS V14.01,2013-10-30 08:31:00,
2013-10-30 03:32:00,76.5,72.0,30.00,ESE,108,7.0,10.0,86,0.00,,---,0.00,VWS V14.01,2013-10-30 08:32:00,
2013-10-30 03:33:00,76.5,72.0,30.00,ESE,112,8.0,10.0,86,0.00,,---,0.00,VWS V14.01,2013-10-30 08:33:00,
2013-10-30 03:34:00,76.5,72.0,30.00,SE,125,8.0,10.0,86,0.00,,---,0.00,VWS V14.01,2013-10-30 08:34:00,
2013-10-30 03:35:00,76.5,72.0,30.00,SE,132,7.0,10.0,86,0.00,,---,0.00,VWS V14.01,2013-10-30 08:35:00,
2013-10-30 03:36:00,76.5,72.0,30.00,ESE,116,11.0,11.0,86,0.00,,---,0.00,VWS V14.01,2013-10-30 08:36:00,
2013-10-30 03:37:00,76.5,72.0,30.00,ESE,112,7.0,11.0,86,0.00,,---,0.00,VWS V14.01,2013-10-30 08:37:00,
2013-10-30 03:38:00,76.5,72.3,30.00,ESE,122,4.0,11.0,87,0.00,,---,0.00,VWS V14.01,2013-10-30 08:38:00,
2013-10-30 03:39:00,76.4,72.2,29.99,SE,124,8.0,11.0,87,0.00,,---,0.00,VWS V14.01,2013-10-30 08:39:00,
2013-10-30 03:40:00,76.5,72.3,29.99,ESE,120,5.0,11.0,87,0.00,,---,0.00,VWS V14.01,2013-10-30 08:40:00,
2013-10-30 03:41:00,76.5,72.3,29.99,SE,136,8.0,10.0,87,0.00,,---,0.00,VWS V14.01,2013-10-30 08:41:00,
2013-10-30 03:42:00,76.5,72.3,29.99,SE,138,6.0,12.0,87,0.00,,---,0.00,VWS V14.01,2013-10-30 08:42:00,
2013-10-30 03:43:00,76.5,72.3,29.99,SE,125,8.0,12.0,87,0.00,,---,0.00,VWS V14.01,2013-10-30 08:43:00,
2013-10-30 03:44:00,76.5,72.3,29.99,SE,129,9.0,12.0,87,0.00,,---,0.00,VWS V14.01,2013-10-30 08:44:00,
2013-10-30 03:45:00,76.5,72.3,29.99,SE,124,7.0,12.0,87,0.00,,---,0.00,VWS V14.01,2013-10-30 08:45:00,
2013-10-30 03:46:00,76.5,72.3,29.99,SE,134,7.0,12.0,87,0.00,,---,0.00,VWS V14.01,2013-10-30 08:46:00,
2013-10-30 03:47:00,76.5,72.3,29.99,SE,126,8.0,12.0,87,0.00,,---,0.00,VWS V14.01,2013-10-30 08:47:00,
2013-10-30 03:48:00,76.5,72.3,29.99,SE,126,6.0,12.0,87,0.00,,---,0.00,VWS V14.01,2013-10-30 08:48:00,
2013-10-30 03:49:00,76.5,72.3,29.99,ESE,115,9.0,12.0,87,0.00,,---,0.00,VWS V14.01,2013-10-30 08:49:00,
2013-10-30 03:50:00,76.5,72.3,29.99,East,85,11.0,13.0,87,0.00,,---,0.00,VWS V14.01,2013-10-30 08:50:00,
2013-10-30 03:51:00,76.5,72.3,29.99,ESE,122,8.0,9.0,87,0.00,,---,0.00,VWS V14.01,2013-10-30 08:51:00,
2013-10-30 03:52:00,76.5,72.3,29.98,ESE,120,9.0,11.0,87,0.00,,---,0.00,VWS V14.01,2013-10-30 08:52:00,
2013-10-30 03:53:00,76.5,72.3,29.98,ESE,102,11.0,12.0,87,0.00,,---,0.00,VWS V14.01,2013-10-30 08:53:00,
2013-10-30 03:54:00,76.6,72.4,29.98,SE,127,12.0,13.0,87,0.00,,---,0.00,VWS V14.01,2013-10-30 08:54:00,
2013-10-30 03:55:00,76.6,72.4,29.98,ESE,110,9.0,13.0,87,0.00,,---,0.00,VWS V14.01,2013-10-30 08:55:00,
2013-10-30 03:56:00,76.6,72.4,29.98,ESE,105,11.0,13.0,87,0.00,,---,0.00,VWS V14.01,2013-10-30 08:56:00,
2013-10-30 03:57:00,76.6,72.4,29.98,SE,125,10.0,13.0,87,0.00,,---,0.00,VWS V14.01,2013-10-30 08:57:00,
2013-10-30 03:58:00,76.6,72.1,29.98,ESE,114,11.0,13.0,86,0.00,,---,0.00,VWS V14.01,2013-10-30 08:58:00,
2013-10-30 03:59:00,76.6,72.1,29.98,SE,139,10.0,13.0,86,0.00,,---,0.00,VWS V14.01,2013-10-30 08:59:00,
2013-10-30 04:00:00,76.7,72.2,29.98,ESE,109,12.0,14.0,86,0.00,,---,0.00,VWS V14.01,2013-10-30 09:00:00,
2013-10-30 04:01:00,76.6,72.1,29.98,ESE,123,12.0,13.0,86,0.00,,---,0.00,VWS V14.01,2013-10-30 09:01:00,
2013-10-30 04:02:00,76.7,72.5,29.98,SE,128,11.0,13.0,87,0.00,,---,0.00,VWS V14.01,2013-10-30 09:02:00,
2013-10-30 04:03:00,76.7,72.5,29.98,ESE,122,11.0,13.0,87,0.00,,---,0.00,VWS V14.01,2013-10-30 09:03:00,
2013-10-30 04:04:00,76.7,72.5,29.98,ESE,115,10.0,13.0,87,0.00,,---,0.00,VWS V14.01,2013-10-30 09:04:00,
2013-10-30 04:05:00,76.6,72.4,29.98,ESE,119,10.0,13.0,87,0.00,,---,0.00,VWS V14.01,2013-10-30 09:05:00,
2013-10-30 04:06:00,76.6,72.4,29.98,SE,133,7.0,14.0,87,0.00,,---,0.00,VWS V14.01,2013-10-30 09:06:00,
2013-10-30 04:07:00,76.6,72.4,29.98,ESE,111,10.0,14.0,87,0.00,,---,0.00,VWS V14.01,2013-10-30 09:07:00,
2013-10-30 04:08:00,76.6,72.4,29.98,ESE,111,11.0,14.0,87,0.00,,---,0.00,VWS V14.01,2013-10-30 09:08:00,
2013-10-30 04:09:00,76.6,72.4,29.98,SE,124,8.0,14.0,87,0.00,,---,0.00,VWS V14.01,2013-10-30 09:09:00,
2013-10-30 04:10:00,76.6,72.4,29.98,SE,126,7.0,14.0,87,0.00,,---,0.00,VWS V14.01,2013-10-30 09:10:00,
2013-10-30 04:11:00,76.6,72.4,29.98,ESE,114,5.0,10.0,87,0.00,,---,0.00,VWS V14.01,2013-10-30 09:11:00,
2013-10-30 04:12:00,76.6,72.4,29.98,ESE,122,7.0,11.0,87,0.00,,---,0.00,VWS V14.01,2013-10-30 09:12:00,
2013-10-30 04:13:00,76.5,72.3,29.98,ESE,120,6.0,11.0,87,0.00,,---,0.00,VWS V14.01,2013-10-30 09:13:00,
2013-10-30 04:14:00,76.5,72.3,29.98,ESE,121,8.0,11.0,87,0.00,,---,0.00,VWS V14.01,2013-10-30 09:14:00,
2013-10-30 04:15:00,76.5,72.3,29.98,ESE,118,10.0,11.0,87,0.00,,---,0.00,VWS V14.01,2013-10-30 09:15:00,
2013-10-30 04:16:00,76.5,72.3,29.98,ESE,120,7.0,11.0,87,0.00,,---,0.00,VWS V14.01,2013-10-30 09:16:00,
2013-10-30 04:17:00,76.5,72.3,29.98,SE,126,11.0,11.0,87,0.00,,---,0.00,VWS V14.01,2013-10-30 09:17:00,
2013-10-30 04:18:00,76.5,72.3,29.98,SE,124,10.0,11.0,87,0.00,,---,0.00,VWS V14.01,2013-10-30 09:18:00,
2013-10-30 04:19:00,76.5,72.3,29.98,ESE,108,10.0,11.0,87,0.00,,---,0.00,VWS V14.01,2013-10-30 09:19:00,
2013-10-30 04:20:00,76.5,72.3,29.98,ESE,115,10.0,11.0,87,0.00,,---,0.00,VWS V14.01,2013-10-30 09:20:00,
2013-10-30 04:21:00,76.5,72.3,29.98,ESE,113,10.0,11.0,87,0.00,,---,0.00,VWS V14.01,2013-10-30 09:21:00,
2013-10-30 04:22:00,76.5,72.3,29.98,SE,128,10.0,11.0,87,0.00,,---,0.00,VWS V14.01,2013-10-30 09:22:00,
2013-10-30 04:23:00,76.5,72.3,29.98,ESE,114,6.0,11.0,87,0.00,,---,0.00,VWS V14.01,2013-10-30 09:23:00,
2013-10-30 04:24:00,76.5,72.3,29.98,ESE,120,8.0,12.0,87,0.00,,---,0.00,VWS V14.01,2013-10-30 09:24:00,
2013-10-30 04:25:00,76.6,72.4,29.98,ESE,115,8.0,12.0,87,0.00,,---,0.00,VWS V14.01,2013-10-30 09:25:00,
2013-10-30 04:26:00,76.6,72.4,29.98,ESE,118,7.0,12.0,87,0.00,,---,0.00,VWS V14.01,2013-10-30 09:26:00,
2013-10-30 04:27:00,76.6,72.4,29.98,SE,126,7.0,12.0,87,0.00,,---,0.00,VWS V14.01,2013-10-30 09:27:00,
2013-10-30 04:28:00,76.6,72.4,29.98,ESE,120,8.0,12.0,87,0.00,,---,0.00,VWS V14.01,2013-10-30 09:28:00,
2013-10-30 04:29:00,76.6,72.4,29.98,SE,129,6.0,12.0,87,0.00,,---,0.00,VWS V14.01,2013-10-30 09:29:00,
2013-10-30 04:30:00,76.6,72.4,29.98,ESE,120,5.0,12.0,87,0.00,,---,0.00,VWS V14.01,2013-10-30 09:30:00,
2013-10-30 04:31:00,76.6,72.4,29.98,ESE,118,6.0,12.0,87,0.00,,---,0.00,VWS V14.01,2013-10-30 09:31:00,
2013-10-30 04:32:00,76.6,72.4,29.98,ESE,119,3.0,12.0,87,0.00,,---,0.00,VWS V14.01,2013-10-30 09:32:00,
2013-10-30 04:33:00,76.6,72.4,29.98,ESE,114,8.0,12.0,87,0.00,,---,0.00,VWS V14.01,2013-10-30 09:33:00,
2013-10-30 04:34:00,76.6,72.4,29.98,SE,127,7.0,12.0,87,0.00,,---,0.00,VWS V14.01,2013-10-30 09:34:00,
2013-10-30 04:35:00,76.6,72.4,29.98,SE,143,8.0,13.0,87,0.00,,---,0.00,VWS V14.01,2013-10-30 09:35:00,
2013-10-30 04:36:00,76.6,72.4,29.98,SE,126,10.0,13.0,87,0.00,,---,0.00,VWS V14.01,2013-10-30 09:36:00,
2013-10-30 04:37:00,76.6,72.4,29.98,ESE,120,11.0,13.0,87,0.00,,---,0.00,VWS V14.01,2013-10-30 09:37:00,
2013-10-30 04:38:00,76.7,72.5,29.98,ESE,118,7.0,13.0,87,0.00,,---,0.00,VWS V14.01,2013-10-30 09:38:00,
2013-10-30 04:39:00,76.7,72.5,29.98,ESE,115,12.0,13.0,87,0.00,,---,0.00,VWS V14.01,2013-10-30 09:39:00,
2013-10-30 04:40:00,76.7,72.5,29.98,ESE,119,10.0,13.0,87,0.00,,---,0.00,VWS V14.01,2013-10-30 09:40:00,
2013-10-30 04:41:00,76.7,72.5,29.98,ESE,122,9.0,10.0,87,0.00,,---,0.00,VWS V14.01,2013-10-30 09:41:00,
2013-10-30 04:42:00,76.7,72.5,29.98,SE,126,6.0,11.0,87,0.00,,---,0.00,VWS V14.01,2013-10-30 09:42:00,
2013-10-30 04:43:00,76.7,72.5,29.98,ESE,115,9.0,11.0,87,0.00,,---,0.00,VWS V14.01,2013-10-30 09:43:00,
2013-10-30 04:44:00,76.7,72.5,29.98,SE,124,8.0,11.0,87,0.00,,---,0.00,VWS V14.01,2013-10-30 09:44:00,
2013-10-30 04:45:00,76.7,72.5,29.98,SE,124,11.0,12.0,87,0.00,,---,0.00,VWS V14.01,2013-10-30 09:45:00,
2013-10-30 04:46:00,76.7,72.5,29.99,ESE,116,8.0,12.0,87,0.00,,---,0.00,VWS V14.01,2013-10-30 09:46:00,
2013-10-30 04:47:00,76.7,72.5,29.98,ESE,117,9.0,12.0,87,0.00,,---,0.00,VWS V14.01,2013-10-30 09:47:00,
2013-10-30 04:48:00,76.7,72.5,29.99,ESE,119,7.0,12.0,87,0.00,,---,0.00,VWS V14.01,2013-10-30 09:48:00,
2013-10-30 04:49:00,76.7,72.5,29.99,ESE,120,6.0,12.0,87,0.00,,---,0.00,VWS V14.01,2013-10-30 09:49:00,
2013-10-30 04:50:00,76.6,72.4,29.99,ESE,120,9.0,12.0,87,0.00,,---,0.00,VWS V14.01,2013-10-30 09:50:00,
2013-10-30 04:51:00,76.6,72.4,29.99,SE,137,4.0,12.0,87,0.00,,---,0.00,VWS V14.01,2013-10-30 09:51:00,
2013-10-30 04:52:00,76.6,72.4,29.99,SE,125,10.0,12.0,87,0.00,,---,0.00,VWS V14.01,2013-10-30 09:52:00,
2013-10-30 04:53:00,76.6,72.4,29.99,ESE,113,7.0,13.0,87,0.00,,---,0.00,VWS V14.01,2013-10-30 09:53:00,
2013-10-30 04:54:00,76.6,72.4,29.99,ESE,116,9.0,13.0,87,0.00,,---,0.00,VWS V14.01,2013-10-30 09:54:00,
2013-10-30 04:55:00,76.6,72.4,29.99,SE,124,9.0,13.0,87,0.00,,---,0.00,VWS V14.01,2013-10-30 09:55:00,
2013-10-30 04:56:00,76.7,72.5,29.99,SE,127,8.0,13.0,87,0.00,,---,0.00,VWS V14.01,2013-10-30 09:56:00,
2013-10-30 04:57:00,76.6,72.4,29.98,ESE,120,7.0,14.0,87,0.00,,---,0.00,VWS V14.01,2013-10-30 09:57:00,
2013-10-30 04:58:00,76.7,72.5,29.98,SE,126,9.0,14.0,87,0.00,,---,0.00,VWS V14.01,2013-10-30 09:58:00,
2013-10-30 04:59:00,76.7,72.2,29.98,ESE,120,6.0,14.0,86,0.00,,---,0.00,VWS V14.01,2013-10-30 09:59:00,
2013-10-30 05:00:00,76.7,72.2,29.98,ESE,114,9.0,14.0,86,0.00,,---,0.00,VWS V14.01,2013-10-30 10:00:00,
2013-10-30 05:01:00,76.7,72.2,29.98,ESE,120,10.0,13.0,86,0.00,,---,0.00,VWS V14.01,2013-10-30 10:01:00,
2013-10-30 05:02:00,76.7,72.2,29.98,SE,124,9.0,14.0,86,0.00,,---,0.00,VWS V14.01,2013-10-30 10:02:00,
2013-10-30 05:03:00,76.7,72.5,29.98,SE,124,9.0,14.0,87,0.00,,---,0.00,VWS V14.01,2013-10-30 10:03:00,
2013-10-30 05:04:00,76.8,72.6,29.98,ESE,120,8.0,14.0,87,0.00,,---,0.00,VWS V14.01,2013-10-30 10:04:00,
2013-10-30 05:05:00,76.7,72.5,29.98,ESE,120,9.0,14.0,87,0.00,,---,0.00,VWS V14.01,2013-10-30 10:05:00,
2013-10-30 05:06:00,76.7,72.5,29.98,SE,124,10.0,14.0,87,0.00,,---,0.00,VWS V14.01,2013-10-30 10:06:00,
2013-10-30 05:07:00,76.7,72.5,29.98,ESE,115,11.0,14.0,87,0.00,,---,0.00,VWS V14.01,2013-10-30 10:07:00,
2013-10-30 05:08:00,76.7,72.5,29.98,SE,128,10.0,14.0,87,0.00,,---,0.00,VWS V14.01,2013-10-30 10:08:00,
2013-10-30 05:09:00,76.7,72.5,29.98,ESE,117,10.0,14.0,87,0.00,,---,0.00,VWS V14.01,2013-10-30 10:09:00,
2013-10-30 05:10:00,76.7,72.5,29.98,ESE,120,8.0,14.0,87,0.00,,---,0.00,VWS V14.01,2013-10-30 10:10:00,
2013-10-30 05:11:00,76.7,72.5,29.99,SE,126,8.0,10.0,87,0.00,,---,0.00,VWS V14.01,2013-10-30 10:11:00,
2013-10-30 05:12:00,76.7,72.5,29.99,ESE,114,7.0,10.0,87,0.00,,---,0.00,VWS V14.01,2013-10-30 10:12:00,
2013-10-30 05:13:00,76.7,72.5,29.99,ESE,123,5.0,11.0,87,0.00,,---,0.00,VWS V14.01,2013-10-30 10:13:00,
2013-10-30 05:14:00,76.7,72.5,29.99,ESE,116,7.0,11.0,87,0.00,,---,0.00,VWS V14.01,2013-10-30 10:14:00,
2013-10-30 05:15:00,76.7,72.5,29.99,ESE,120,10.0,11.0,87,0.00,,---,0.00,VWS V14.01,2013-10-30 10:15:00,
2013-10-30 05:16:00,76.7,72.2,29.99,ESE,122,8.0,12.0,86,0.00,,---,0.00,VWS V14.01,2013-10-30 10:16:00,
2013-10-30 05:17:00,76.7,72.2,29.99,ESE,105,8.0,12.0,86,0.00,,---,0.00,VWS V14.01,2013-10-30 10:17:00,
2013-10-30 05:18:00,76.7,72.5,29.99,ESE,123,7.0,12.0,87,0.00,,---,0.00,VWS V14.01,2013-10-30 10:18:00,
2013-10-30 05:19:00,76.7,72.5,29.99,SE,124,5.0,12.0,87,0.00,,---,0.00,VWS V14.01,2013-10-30 10:19:00,
2013-10-30 05:20:00,76.7,72.5,29.99,ESE,109,8.0,12.0,87,0.00,,---,0.00,VWS V14.01,2013-10-30 10:20:00,
2013-10-30 05:21:00,76.7,72.5,29.99,ESE,117,5.0,12.0,87,0.00,,---,0.00,VWS V14.01,2013-10-30 10:21:00,
2013-10-30 05:22:00,76.7,72.2,29.99,SE,126,9.0,14.0,86,0.00,,---,0.00,VWS V14.01,2013-10-30 10:22:00,
2013-10-30 05:23:00,76.8,72.6,29.98,ESE,114,8.0,14.0,87,0.00,,---,0.00,VWS V14.01,2013-10-30 10:23:00,
2013-10-30 05:24:00,76.8,72.6,29.99,ESE,113,9.0,14.0,87,0.00,,---,0.00,VWS V14.01,2013-10-30 10:24:00,
2013-10-30 05:25:00,76.8,72.6,29.99,ESE,112,9.0,14.0,87,0.00,,---,0.00,VWS V14.01,2013-10-30 10:25:00,
2013-10-30 05:26:00,76.8,72.6,29.99,ESE,118,6.0,14.0,87,0.00,,---,0.00,VWS V14.01,2013-10-30 10:26:00,
2013-10-30 05:27:00,76.8,72.6,29.99,ESE,109,6.0,14.0,87,0.00,,---,0.00,VWS V14.01,2013-10-30 10:27:00,
2013-10-30 05:28:00,76.8,72.6,29.99,SE,124,8.0,14.0,87,0.00,,---,0.00,VWS V14.01,2013-10-30 10:28:00,
2013-10-30 05:29:00,76.8,72.6,29.99,ESE,122,12.0,14.0,87,0.00,,---,0.00,VWS V14.01,2013-10-30 10:29:00,
2013-10-30 05:30:00,76.8,72.6,29.99,ESE,123,6.0,14.0,87,0.00,,---,0.00,VWS V14.01,2013-10-30 10:30:00,
2013-10-30 05:35:00,76.9,72.7,29.98,SE,126,7.0,7.0,87,0.00,,---,0.00,VWS V14.01,2013-10-30 10:35:00,
2013-10-30 05:36:00,76.9,72.7,29.98,ESE,115,6.0,8.0,87,0.00,,---,0.00,VWS V14.01,2013-10-30 10:36:00,
2013-10-30 05:37:00,76.9,72.7,29.98,ESE,120,9.0,9.0,87,0.00,,---,0.00,VWS V14.01,2013-10-30 10:37:00,
2013-10-30 05:38:00,76.9,72.7,29.98,ESE,118,6.0,10.0,87,0.00,,---,0.00,VWS V14.01,2013-10-30 10:38:00,
2013-10-30 05:39:00,76.9,72.7,29.98,ESE,109,10.0,11.0,87,0.00,,---,0.00,VWS V14.01,2013-10-30 10:39:00,
2013-10-30 05:40:00,76.9,72.7,29.98,ESE,117,10.0,12.0,87,0.00,,---,0.00,VWS V14.01,2013-10-30 10:40:00,
2013-10-30 05:41:00,76.9,72.7,29.98,ESE,120,9.0,10.0,87,0.00,,---,0.00,VWS V14.01,2013-10-30 10:41:00,
2013-10-30 05:42:00,76.9,72.7,29.98,ESE,107,11.0,12.0,87,0.00,,---,0.00,VWS V14.01,2013-10-30 10:42:00,
2013-10-30 05:43:00,76.9,72.7,29.98,SE,130,9.0,12.0,87,0.00,,---,0.00,VWS V14.01,2013-10-30 10:43:00,
2013-10-30 05:44:00,76.9,72.7,29.98,ESE,118,8.0,13.0,87,0.00,,---,0.00,VWS V14.01,2013-10-30 10:44:00,
2013-10-30 05:45:00,76.9,72.7,29.98,ESE,119,9.0,13.0,87,0.00,,---,0.00,VWS V14.01,2013-10-30 10:45:00,
2013-10-30 05:46:00,76.9,72.7,29.98,SE,124,10.0,13.0,87,0.00,,---,0.00,VWS V14.01,2013-10-30 10:46:00,
2013-10-30 05:47:00,76.9,72.7,29.98,ESE,118,10.0,13.0,87,0.00,,---,0.00,VWS V14.01,2013-10-30 10:47:00,
2013-10-30 05:48:00,76.9,72.7,29.98,ESE,118,11.0,13.0,87,0.00,,---,0.00,VWS V14.01,2013-10-30 10:48:00,
2013-10-30 05:49:00,76.9,72.7,29.98,ESE,109,10.0,13.0,87,0.00,,---,0.00,VWS V14.01,2013-10-30 10:49:00,
2013-10-30 05:50:00,76.9,72.7,29.98,ESE,120,9.0,13.0,87,0.00,,---,0.00,VWS V14.01,2013-10-30 10:50:00,
2013-10-30 05:51:00,76.9,72.7,29.98,SE,136,12.0,15.0,87,0.00,,---,0.00,VWS V14.01,2013-10-30 10:51:00,
2013-10-30 05:52:00,76.9,72.7,29.97,ESE,117,10.0,15.0,87,0.00,,---,0.00,VWS V14.01,2013-10-30 10:52:00,
2013-10-30 05:53:00,76.9,72.7,29.97,SE,125,9.0,15.0,87,0.00,,---,0.00,VWS V14.01,2013-10-30 10:53:00,
2013-10-30 05:54:00,76.9,72.7,29.97,ESE,112,11.0,15.0,87,0.00,,---,0.00,VWS V14.01,2013-10-30 10:54:00,
2013-10-30 05:55:00,76.9,72.7,29.97,SE,128,10.0,15.0,87,0.00,,---,0.00,VWS V14.01,2013-10-30 10:55:00,
2013-10-30 05:56:00,76.9,72.7,29.97,ESE,118,13.0,15.0,87,0.00,,---,0.00,VWS V14.01,2013-10-30 10:56:00,
2013-10-30 05:57:00,76.9,72.7,29.97,ESE,110,11.0,15.0,87,0.00,,---,0.00,VWS V14.01,2013-10-30 10:57:00,
2013-10-30 05:58:00,76.8,73.0,29.97,ESE,112,12.0,15.0,88,0.00,,---,0.00,VWS V14.01,2013-10-30 10:58:00,
2013-10-30 05:59:00,76.8,73.0,29.97,ESE,123,8.0,15.0,88,0.00,,---,0.00,VWS V14.01,2013-10-30 10:59:00,
2013-10-30 06:00:00,76.8,73.0,29.97,ESE,120,9.0,15.0,88,0.00,,---,0.00,VWS V14.01,2013-10-30 11:00:00,
2013-10-30 06:01:00,76.8,73.0,29.97,ESE,120,10.0,11.0,88,0.00,,---,0.00,VWS V14.01,2013-10-30 11:01:00,
2013-10-30 06:02:00,76.8,73.0,29.97,SE,124,11.0,11.0,88,0.00,,---,0.00,VWS V14.01,2013-10-30 11:02:00,
2013-10-30 06:03:00,76.8,73.0,29.98,ESE,115,9.0,12.0,88,0.00,,---,0.00,VWS V14.01,2013-10-30 11:03:00,
2013-10-30 06:04:00,76.8,73.0,29.98,ESE,115,10.0,12.0,88,0.00,,---,0.00,VWS V14.01,2013-10-30 11:04:00,
2013-10-30 06:05:00,76.7,72.9,29.98,ESE,123,7.0,12.0,88,0.00,,---,0.00,VWS V14.01,2013-10-30 11:05:00,
2013-10-30 06:06:00,76.8,73.0,29.98,SE,129,9.0,12.0,88,0.00,,---,0.00,VWS V14.01,2013-10-30 11:06:00,
2013-10-30 06:07:00,76.7,72.9,29.98,ESE,120,6.0,12.0,88,0.00,,---,0.00,VWS V14.01,2013-10-30 11:07:00,
2013-10-30 06:08:00,76.7,72.9,29.97,ESE,119,6.0,12.0,88,0.00,,---,0.00,VWS V14.01,2013-10-30 11:08:00,
2013-10-30 06:09:00,76.7,72.9,29.98,ESE,112,8.0,12.0,88,0.00,,---,0.00,VWS V14.01,2013-10-30 11:09:00,
2013-10-30 06:10:00,76.8,73.0,29.97,ESE,119,11.0,12.0,88,0.00,,---,0.00,VWS V14.01,2013-10-30 11:10:00,
2013-10-30 06:11:00,76.8,73.0,29.97,ESE,122,10.0,12.0,88,0.00,,---,0.00,VWS V14.01,2013-10-30 11:11:00,
2013-10-30 06:12:00,76.8,73.0,29.97,ESE,109,10.0,14.0,88,0.00,,---,0.00,VWS V14.01,2013-10-30 11:12:00,
2013-10-30 06:13:00,76.8,72.6,29.99,ESE,123,6.0,14.0,87,0.00,,---,0.00,VWS V14.01,2013-10-30 11:13:00,
2013-10-30 06:14:00,76.8,72.6,29.99,ESE,123,6.0,14.0,87,0.00,,---,0.00,VWS V14.01,2013-10-30 11:14:00,
2013-10-30 06:15:00,76.8,73.0,29.97,ESE,121,10.0,14.0,88,0.00,,---,0.00,VWS V14.01,2013-10-30 11:15:00,
2013-10-30 06:16:00,76.8,73.0,29.97,SE,130,8.0,14.0,88,0.00,,---,0.00,VWS V14.01,2013-10-30 11:16:00,
2013-10-30 06:17:00,76.7,72.9,29.97,ESE,122,10.0,14.0,88,0.00,,---,0.00,VWS V14.01,2013-10-30 11:17:00,
2013-10-30 06:18:00,76.8,73.0,29.97,ESE,122,10.0,14.0,88,0.00,,---,0.00,VWS V14.01,2013-10-30 11:18:00,
2013-10-30 06:19:00,76.8,73.0,29.97,ESE,118,10.0,14.0,88,0.00,,---,0.00,VWS V14.01,2013-10-30 11:19:00,
2013-10-30 06:20:00,76.8,73.0,29.97,ESE,120,12.0,14.0,88,0.00,,---,0.00,VWS V14.01,2013-10-30 11:20:00,
2013-10-30 06:21:00,76.8,73.0,29.97,ESE,107,11.0,13.0,88,0.00,,---,0.00,VWS V14.01,2013-10-30 11:21:00,
2013-10-30 06:22:00,76.8,73.0,29.96,ESE,116,11.0,13.0,88,0.00,,---,0.00,VWS V14.01,2013-10-30 11:22:00,
2013-10-30 06:23:00,76.8,73.0,29.96,ESE,122,13.0,15.0,88,0.00,,---,0.00,VWS V14.01,2013-10-30 11:23:00,
2013-10-30 06:24:00,76.8,73.0,29.96,ESE,116,12.0,16.0,88,0.00,,---,0.00,VWS V14.01,2013-10-30 11:24:00,
2013-10-30 06:25:00,76.8,73.0,29.96,ESE,119,13.0,16.0,88,0.00,,---,0.00,VWS V14.01,2013-10-30 11:25:00,
2013-10-30 06:26:00,76.8,73.0,29.96,ESE,109,12.0,16.0,88,0.00,,---,0.00,VWS V14.01,2013-10-30 11:26:00,
2013-10-30 06:27:00,76.8,73.0,29.96,ESE,123,12.0,16.0,88,0.00,,---,0.00,VWS V14.01,2013-10-30 11:27:00,
2013-10-30 06:28:00,76.8,73.0,29.96,ESE,122,12.0,16.0,88,0.00,,---,0.00,VWS V14.01,2013-10-30 11:28:00,
2013-10-30 06:29:00,76.8,73.0,29.96,ESE,120,13.0,16.0,88,0.00,,---,0.00,VWS V14.01,2013-10-30 11:29:00,
2013-10-30 06:30:00,76.8,73.0,29.96,ESE,103,13.0,16.0,88,0.00,,---,0.00,VWS V14.01,2013-10-30 11:30:00,
2013-10-30 06:35:00,76.7,72.9,29.97,ESE,121,10.0,10.0,88,0.00,,---,0.00,VWS V14.01,2013-10-30 11:35:00,
2013-10-30 06:36:00,76.7,72.9,29.97,ESE,118,10.0,12.0,88,0.00,,---,0.00,VWS V14.01,2013-10-30 11:36:00,
2013-10-30 06:37:00,76.8,73.3,29.97,ESE,114,10.0,13.0,89,0.00,,---,0.00,VWS V14.01,2013-10-30 11:37:00,
2013-10-30 06:38:00,76.7,73.2,29.96,ESE,116,11.0,13.0,89,0.00,,---,0.00,VWS V14.01,2013-10-30 11:38:00,
2013-10-30 06:39:00,76.7,73.2,29.97,ESE,123,11.0,14.0,89,0.00,,---,0.00,VWS V14.01,2013-10-30 11:39:00,
2013-10-30 06:40:00,76.7,73.2,29.96,ESE,121,9.0,14.0,89,0.00,,---,0.00,VWS V14.01,2013-10-30 11:40:00,
2013-10-30 06:41:00,76.7,73.2,29.97,SE,124,10.0,13.0,89,0.00,,---,0.00,VWS V14.01,2013-10-30 11:41:00,
2013-10-30 06:42:00,76.7,73.2,29.97,SE,129,10.0,13.0,89,0.00,,---,0.00,VWS V14.01,2013-10-30 11:42:00,
2013-10-30 06:43:00,76.7,73.2,29.97,ESE,116,9.0,13.0,89,0.00,,---,0.00,VWS V14.01,2013-10-30 11:43:00,
2013-10-30 06:44:00,76.8,73.3,29.97,ESE,111,12.0,14.0,89,0.00,,---,0.00,VWS V14.01,2013-10-30 11:44:00,
2013-10-30 06:45:00,76.7,73.2,29.97,ESE,108,14.0,14.0,89,0.00,,---,0.00,VWS V14.01,2013-10-30 11:45:00,
2013-10-30 06:46:00,76.7,73.2,29.97,SE,134,8.0,14.0,89,0.00,,---,0.00,VWS V14.01,2013-10-30 11:46:00,
2013-10-30 06:47:00,76.7,73.2,29.97,ESE,114,9.0,14.0,89,0.00,,---,0.00,VWS V14.01,2013-10-30 11:47:00,
2013-10-30 06:48:00,76.7,73.2,29.96,ESE,119,11.0,15.0,89,0.00,,---,0.00,VWS V14.01,2013-10-30 11:48:00,
2013-10-30 06:49:00,76.7,73.2,29.96,ESE,114,10.0,15.0,89,0.00,,---,0.00,VWS V14.01,2013-10-30 11:49:00,
2013-10-30 06:50:00,76.7,73.2,29.96,ESE,119,11.0,15.0,89,0.00,,---,0.00,VWS V14.01,2013-10-30 11:50:00,
2013-10-30 06:51:00,76.7,73.2,29.96,ESE,122,10.0,13.0,89,0.00,,---,0.00,VWS V14.01,2013-10-30 11:51:00,
2013-10-30 06:52:00,76.7,73.2,29.96,SE,133,11.0,14.0,89,0.00,,---,0.00,VWS V14.01,2013-10-30 11:52:00,
2013-10-30 06:53:00,76.7,73.2,29.96,SE,124,8.0,14.0,89,0.00,,---,0.00,VWS V14.01,2013-10-30 11:53:00,
2013-10-30 06:54:00,76.7,73.2,29.97,ESE,113,10.0,14.0,89,0.00,,---,0.00,VWS V14.01,2013-10-30 11:54:00,
2013-10-30 06:55:00,76.7,73.2,29.97,East,100,10.0,14.0,89,0.00,,---,0.00,VWS V14.01,2013-10-30 11:55:00,
2013-10-30 06:56:00,76.8,73.3,29.97,SE,126,8.0,14.0,89,0.00,,---,0.00,VWS V14.01,2013-10-30 11:56:00,
2013-10-30 06:57:00,76.8,73.3,29.97,SE,128,7.0,14.0,89,0.00,,---,0.00,VWS V14.01,2013-10-30 11:57:00,
2013-10-30 06:58:00,76.8,73.3,29.97,ESE,121,9.0,14.0,89,0.00,,---,0.00,VWS V14.01,2013-10-30 11:58:00,
2013-10-30 06:59:00,76.8,73.3,29.97,ESE,119,11.0,14.0,89,0.00,,---,0.00,VWS V14.01,2013-10-30 11:59:00,
2013-10-30 07:00:00,76.8,73.3,29.97,ESE,113,12.0,14.0,89,0.00,,---,0.00,VWS V14.01,2013-10-30 12:00:00,
2013-10-30 07:01:00,76.8,73.3,29.96,SE,124,10.0,13.0,89,0.00,,---,0.00,VWS V14.01,2013-10-30 12:01:00,
2013-10-30 07:02:00,76.8,73.3,29.97,SE,125,8.0,15.0,89,0.00,,---,0.00,VWS V14.01,2013-10-30 12:02:00,
2013-10-30 07:03:00,76.9,73.4,29.97,ESE,120,12.0,15.0,89,0.00,,---,0.00,VWS V14.01,2013-10-30 12:03:00,
2013-10-30 07:04:00,76.8,73.0,29.96,ESE,118,13.0,15.0,88,0.00,,---,0.00,VWS V14.01,2013-10-30 12:04:00,
2013-10-30 07:05:00,76.9,73.4,29.97,ESE,118,11.0,15.0,89,0.00,,---,0.00,VWS V14.01,2013-10-30 12:05:00,
2013-10-30 07:06:00,76.9,73.4,29.97,SE,146,10.0,15.0,89,0.00,,---,0.00,VWS V14.01,2013-10-30 12:06:00,
2013-10-30 07:07:00,76.9,73.4,29.97,ESE,114,4.0,15.0,89,0.00,,---,0.00,VWS V14.01,2013-10-30 12:07:00,
2013-10-30 07:08:00,76.9,73.4,29.97,SE,132,12.0,15.0,89,0.00,,---,0.00,VWS V14.01,2013-10-30 12:08:00,
2013-10-30 07:09:00,76.9,73.4,29.97,ESE,110,12.0,15.0,89,0.00,,---,0.00,VWS V14.01,2013-10-30 12:09:00,
2013-10-30 07:10:00,77.0,73.5,29.96,ESE,106,12.0,15.0,89,0.00,,---,0.00,VWS V14.01,2013-10-30 12:10:00,
2013-10-30 07:11:00,77.0,73.5,29.96,SE,132,14.0,15.0,89,0.00,,---,0.00,VWS V14.01,2013-10-30 12:11:00,
2013-10-30 07:12:00,77.0,73.5,29.96,East,95,16.0,16.0,89,0.00,,---,0.00,VWS V14.01,2013-10-30 12:12:00,
2013-10-30 07:13:00,76.8,73.0,29.96,ESE,106,11.0,16.0,88,0.00,,---,0.00,VWS V14.01,2013-10-30 12:13:00,
2013-10-30 07:14:00,77.0,73.5,29.96,ESE,118,15.0,17.0,89,0.00,,---,0.00,VWS V14.01,2013-10-30 12:14:00,
2013-10-30 07:15:00,77.1,73.3,29.96,ESE,111,13.0,17.0,88,0.00,,---,0.00,VWS V14.01,2013-10-30 12:15:00,
2013-10-30 07:16:00,77.1,73.3,29.96,ESE,115,15.0,17.0,88,0.00,,---,0.00,VWS V14.01,2013-10-30 12:16:00,
2013-10-30 07:17:00,77.1,73.3,29.96,ESE,120,13.0,17.0,88,0.00,,---,0.00,VWS V14.01,2013-10-30 12:17:00,
2013-10-30 07:18:00,77.1,73.3,29.96,ESE,122,11.0,17.0,88,0.00,,---,0.00,VWS V14.01,2013-10-30 12:18:00,
2013-10-30 07:19:00,77.1,73.6,29.96,ESE,122,15.0,17.0,89,0.00,,---,0.00,VWS V14.01,2013-10-30 12:19:00,
2013-10-30 07:20:00,77.1,73.6,29.96,SE,126,11.0,17.0,89,0.00,,---,0.00,VWS V14.01,2013-10-30 12:20:00,
2013-10-30 07:21:00,77.1,73.6,29.97,ESE,116,15.0,15.0,89,0.00,,---,0.00,VWS V14.01,2013-10-30 12:21:00,
2013-10-30 07:22:00,77.1,73.6,29.96,East,90,13.0,15.0,89,0.00,,---,0.00,VWS V14.01,2013-10-30 12:22:00,
2013-10-30 07:23:00,77.1,73.6,29.96,SE,126,11.0,16.0,89,0.00,,---,0.00,VWS V14.01,2013-10-30 12:23:00,
2013-10-30 07:24:00,77.1,73.6,29.97,ESE,114,13.0,16.0,89,0.00,,---,0.00,VWS V14.01,2013-10-30 12:24:00,
2013-10-30 07:25:00,77.1,73.6,29.97,SE,131,11.0,16.0,89,0.00,,---,0.00,VWS V14.01,2013-10-30 12:25:00,
2013-10-30 07:26:00,77.1,73.6,29.97,ESE,118,11.0,16.0,89,0.00,,---,0.00,VWS V14.01,2013-10-30 12:26:00,
2013-10-30 07:27:00,77.1,73.6,29.97,ESE,120,12.0,16.0,89,0.00,,---,0.00,VWS V14.01,2013-10-30 12:27:00,
2013-10-30 07:28:00,77.1,73.6,29.97,SE,126,10.0,16.0,89,0.00,,---,0.00,VWS V14.01,2013-10-30 12:28:00,
2013-10-30 07:29:00,77.1,73.6,29.97,ESE,118,14.0,16.0,89,0.00,,---,0.00,VWS V14.01,2013-10-30 12:29:00,
2013-10-30 07:30:00,77.1,73.6,29.97,SE,133,10.0,17.0,89,0.00,,---,0.00,VWS V14.01,2013-10-30 12:30:00,
2013-10-30 07:31:00,77.1,73.6,29.97,ESE,120,12.0,16.0,89,0.00,,---,0.00,VWS V14.01,2013-10-30 12:31:00,
2013-10-30 07:32:00,77.1,73.6,29.97,ESE,120,12.0,16.0,89,0.00,,---,0.00,VWS V14.01,2013-10-30 12:32:00,
2013-10-30 07:33:00,77.1,73.6,29.97,SE,142,11.0,16.0,89,0.00,,---,0.00,VWS V14.01,2013-10-30 12:33:00,
2013-10-30 07:34:00,77.1,73.6,29.97,ESE,109,8.0,16.0,89,0.00,,---,0.00,VWS V14.01,2013-10-30 12:34:00,
2013-10-30 07:35:00,77.1,73.6,29.97,SE,127,11.0,16.0,89,0.00,,---,0.00,VWS V14.01,2013-10-30 12:35:00,
2013-10-30 07:36:00,77.2,73.7,29.97,ESE,111,10.0,16.0,89,0.00,,---,0.00,VWS V14.01,2013-10-30 12:36:00,
2013-10-30 07:37:00,77.2,73.7,29.97,SE,138,5.0,16.0,89,0.00,,---,0.00,VWS V14.01,2013-10-30 12:37:00,
2013-10-30 07:38:00,77.2,73.7,29.97,SE,127,8.0,16.0,89,0.00,,---,0.00,VWS V14.01,2013-10-30 12:38:00,
2013-10-30 07:39:00,77.2,73.7,29.98,SE,127,6.0,16.0,89,0.00,,---,0.00,VWS V14.01,2013-10-30 12:39:00,
2013-10-30 07:40:00,77.2,73.7,29.98,ESE,122,7.0,16.0,89,0.00,,---,0.00,VWS V14.01,2013-10-30 12:40:00,
2013-10-30 07:41:00,77.2,73.7,29.98,SE,128,7.0,12.0,89,0.00,,---,0.00,VWS V14.01,2013-10-30 12:41:00,
2013-10-30 07:42:00,77.2,73.7,29.98,ESE,120,11.0,12.0,89,0.00,,---,0.00,VWS V14.01,2013-10-30 12:42:00,
2013-10-30 07:43:00,77.2,73.7,29.98,SE,134,8.0,12.0,89,0.00,,---,0.00,VWS V14.01,2013-10-30 12:43:00,
2013-10-30 07:44:00,77.2,73.7,29.98,SE,134,5.0,12.0,89,0.00,,---,0.00,VWS V14.01,2013-10-30 12:44:00,
2013-10-30 07:45:00,77.2,73.7,29.98,ESE,118,10.0,13.0,89,0.00,,---,0.00,VWS V14.01,2013-10-30 12:45:00,
2013-10-30 07:46:00,77.2,73.7,29.98,East,99,9.0,13.0,89,0.00,,---,0.00,VWS V14.01,2013-10-30 12:46:00,
2013-10-30 07:47:00,77.2,73.7,29.98,ESE,112,7.0,13.0,89,0.00,,---,0.00,VWS V14.01,2013-10-30 12:47:00,
2013-10-30 07:48:00,77.2,73.7,29.98,ESE,112,10.0,13.0,89,0.00,,---,0.00,VWS V14.01,2013-10-30 12:48:00,
2013-10-30 07:49:00,77.2,73.7,29.98,ESE,112,11.0,13.0,89,0.00,,---,0.00,VWS V14.01,2013-10-30 12:49:00,
2013-10-30 07:50:00,77.2,73.7,29.98,SE,124,6.0,13.0,89,0.00,,---,0.00,VWS V14.01,2013-10-30 12:50:00,
2013-10-30 07:51:00,77.2,73.7,29.98,SE,143,5.0,10.0,89,0.00,,---,0.00,VWS V14.01,2013-10-30 12:51:00,
2013-10-30 07:52:00,77.2,73.7,29.98,SSE,158,8.0,13.0,89,0.00,,---,0.00,VWS V14.01,2013-10-30 12:52:00,
2013-10-30 07:53:00,77.2,73.7,29.98,ESE,116,4.0,13.0,89,0.00,,---,0.00,VWS V14.01,2013-10-30 12:53:00,
2013-10-30 07:54:00,77.2,73.7,29.98,SE,126,9.0,13.0,89,0.00,,---,0.00,VWS V14.01,2013-10-30 12:54:00,
2013-10-30 07:55:00,77.2,73.7,29.98,ESE,122,6.0,13.0,89,0.00,,---,0.00,VWS V14.01,2013-10-30 12:55:00,
2013-10-30 07:56:00,77.2,73.7,29.98,ESE,120,9.0,13.0,89,0.00,,---,0.00,VWS V14.01,2013-10-30 12:56:00,
2013-10-30 07:57:00,77.2,73.7,29.98,ESE,109,6.0,13.0,89,0.00,,---,0.00,VWS V14.01,2013-10-30 12:57:00,
2013-10-30 07:58:00,77.2,73.7,29.98,ESE,120,5.0,13.0,89,0.00,,---,0.00,VWS V14.01,2013-10-30 12:58:00,
2013-10-30 07:59:00,77.2,73.7,29.98,SE,134,5.0,13.0,89,0.00,,---,0.00,VWS V14.01,2013-10-30 12:59:00,
2013-10-30 08:00:00,77.3,73.8,29.98,ESE,114,10.0,15.0,89,0.00,,---,0.00,VWS V14.01,2013-10-30 13:00:00,
2013-10-30 08:01:00,77.2,73.7,29.98,SE,124,6.0,10.0,89,0.00,,---,0.00,VWS V14.01,2013-10-30 13:01:00,
2013-10-30 08:02:00,77.3,73.8,29.98,ESE,120,5.0,10.0,89,0.00,,---,0.00,VWS V14.01,2013-10-30 13:02:00,
2013-10-30 08:03:00,77.3,73.8,29.98,SE,140,9.0,10.0,89,0.00,,---,0.00,VWS V14.01,2013-10-30 13:03:00,
2013-10-30 08:04:00,77.3,73.8,29.98,SE,124,5.0,10.0,89,0.00,,---,0.00,VWS V14.01,2013-10-30 13:04:00,
2013-10-30 08:05:00,77.3,73.8,29.98,ESE,108,5.0,10.0,89,0.00,,---,0.00,VWS V14.01,2013-10-30 13:05:00,
2013-10-30 08:06:00,77.3,73.8,29.98,SE,124,6.0,11.0,89,0.00,,---,0.00,VWS V14.01,2013-10-30 13:06:00,
2013-10-30 08:07:00,77.3,73.8,29.98,ESE,113,8.0,13.0,89,0.00,,---,0.00,VWS V14.01,2013-10-30 13:07:00,
2013-10-30 08:08:00,77.3,73.8,29.98,ESE,110,11.0,14.0,89,0.00,,---,0.00,VWS V14.01,2013-10-30 13:08:00,
2013-10-30 08:09:00,77.3,73.8,29.97,ESE,107,13.0,15.0,89,0.00,,---,0.00,VWS V14.01,2013-10-30 13:09:00,
2013-10-30 08:10:00,77.4,73.9,29.97,ESE,105,16.0,18.0,89,0.00,,---,0.00,VWS V14.01,2013-10-30 13:10:00,
2013-10-30 08:11:00,77.4,73.9,29.96,ESE,118,13.0,16.0,89,0.00,,---,0.00,VWS V14.01,2013-10-30 13:11:00,
2013-10-30 08:12:00,77.4,73.9,29.97,SE,124,16.0,19.0,89,0.00,,---,0.00,VWS V14.01,2013-10-30 13:12:00,
2013-10-30 08:13:00,77.4,73.9,29.97,SE,126,14.0,19.0,89,0.00,,---,0.00,VWS V14.01,2013-10-30 13:13:00,
2013-10-30 08:14:00,77.4,73.9,29.97,SE,136,7.0,19.0,89,0.00,,---,0.00,VWS V14.01,2013-10-30 13:14:00,
2013-10-30 08:15:00,77.4,73.9,29.98,SE,124,5.0,19.0,89,0.00,,---,0.00,VWS V14.01,2013-10-30 13:15:00,
2013-10-30 08:16:00,77.5,74.0,29.98,ESE,116,10.0,19.0,89,0.01,,---,0.01,VWS V14.01,2013-10-30 13:16:00,
2013-10-30 08:17:00,77.5,74.0,29.98,ESE,113,8.0,19.0,89,0.01,,---,0.01,VWS V14.01,2013-10-30 13:17:00,
2013-10-30 08:18:00,77.5,74.0,29.98,ESE,121,5.0,19.0,89,0.01,,---,0.01,VWS V14.01,2013-10-30 13:18:00,
2013-10-30 08:19:00,77.4,73.9,29.98,ESE,110,10.0,19.0,89,0.01,,---,0.01,VWS V14.01,2013-10-30 13:19:00,
2013-10-30 08:20:00,77.3,73.8,29.98,ESE,109,8.0,19.0,89,0.01,,---,0.01,VWS V14.01,2013-10-30 13:20:00,
2013-10-30 08:21:00,77.3,73.8,29.98,SE,124,7.0,9.0,89,0.01,,---,0.01,VWS V14.01,2013-10-30 13:21:00,
2013-10-30 08:22:00,77.3,73.8,29.98,SE,126,8.0,11.0,89,0.01,,---,0.01,VWS V14.01,2013-10-30 13:22:00,
2013-10-30 08:23:00,77.2,74.0,29.98,SE,132,7.0,13.0,90,0.01,,---,0.01,VWS V14.01,2013-10-30 13:23:00,
2013-10-30 08:24:00,77.2,74.0,29.98,ESE,109,5.0,13.0,90,0.01,,---,0.01,VWS V14.01,2013-10-30 13:24:00,
2013-10-30 08:25:00,77.2,74.0,29.98,SE,133,9.0,13.0,90,0.01,,---,0.01,VWS V14.01,2013-10-30 13:25:00,
2013-10-30 08:26:00,77.1,73.9,29.98,SE,136,6.0,13.0,90,0.01,,---,0.01,VWS V14.01,2013-10-30 13:26:00,
2013-10-30 08:27:00,77.1,73.9,29.98,SE,126,8.0,13.0,90,0.01,,---,0.01,VWS V14.01,2013-10-30 13:27:00,
2013-10-30 08:28:00,77.1,73.9,29.98,SE,141,8.0,13.0,90,0.01,,---,0.01,VWS V14.01,2013-10-30 13:28:00,
2013-10-30 08:29:00,77.1,73.9,29.98,ESE,119,7.0,13.0,90,0.01,,---,0.01,VWS V14.01,2013-10-30 13:29:00,
2013-10-30 08:30:00,77.1,73.9,29.98,SE,131,6.0,14.0,90,0.01,,---,0.01,VWS V14.01,2013-10-30 13:30:00,
2013-10-30 08:35:00,77.0,74.2,29.99,ESE,117,4.0,4.0,91,0.01,,---,0.01,VWS V14.01,2013-10-30 13:35:00,
2013-10-30 08:36:00,77.0,74.2,29.99,ESE,122,6.0,8.0,91,0.01,,---,0.01,VWS V14.01,2013-10-30 13:36:00,
2013-10-30 08:37:00,77.0,74.2,29.99,SE,128,7.0,8.0,91,0.01,,---,0.01,VWS V14.01,2013-10-30 13:37:00,
2013-10-30 08:38:00,77.0,74.2,29.99,SE,143,6.0,8.0,91,0.01,,---,0.01,VWS V14.01,2013-10-30 13:38:00,
2013-10-30 08:39:00,77.0,74.2,29.99,SE,124,9.0,9.0,91,0.01,,---,0.01,VWS V14.01,2013-10-30 13:39:00,
2013-10-30 08:40:00,77.0,74.2,29.99,SE,141,7.0,9.0,91,0.01,,---,0.01,VWS V14.01,2013-10-30 13:40:00,
2013-10-30 08:41:00,77.0,74.2,29.99,SE,129,5.0,10.0,91,0.01,,---,0.01,VWS V14.01,2013-10-30 13:41:00,
2013-10-30 08:42:00,77.0,74.2,29.99,SE,131,3.0,10.0,91,0.01,,---,0.01,VWS V14.01,2013-10-30 13:42:00,
2013-10-30 08:43:00,77.0,74.2,30.00,SE,130,6.0,10.0,91,0.01,,---,0.01,VWS V14.01,2013-10-30 13:43:00,
2013-10-30 08:44:00,77.0,74.2,30.00,SE,141,5.0,10.0,91,0.01,,---,0.01,VWS V14.01,2013-10-30 13:44:00,
2013-10-30 08:45:00,77.0,74.2,30.00,ESE,123,4.0,10.0,91,0.01,,---,0.01,VWS V14.01,2013-10-30 13:45:00,
2013-10-30 08:46:00,77.0,74.2,30.00,SE,143,3.0,10.0,91,0.01,,---,0.01,VWS V14.01,2013-10-30 13:46:00,
2013-10-30 08:47:00,77.0,74.2,30.00,SSE,157,4.0,10.0,91,0.01,,---,0.01,VWS V14.01,2013-10-30 13:47:00,
2013-10-30 08:48:00,77.0,74.2,30.00,SE,126,5.0,10.0,91,0.01,,---,0.01,VWS V14.01,2013-10-30 13:48:00,
2013-10-30 08:49:00,77.0,74.2,30.00,ESE,121,6.0,10.0,91,0.01,,---,0.01,VWS V14.01,2013-10-30 13:49:00,
2013-10-30 08:50:00,77.0,74.2,30.00,SE,124,7.0,10.0,91,0.01,,---,0.01,VWS V14.01,2013-10-30 13:50:00,
2013-10-30 08:51:00,77.0,74.2,30.00,ESE,114,4.0,11.0,91,0.01,,---,0.01,VWS V14.01,2013-10-30 13:51:00,
2013-10-30 08:52:00,77.0,74.2,30.00,ESE,116,5.0,11.0,91,0.01,,---,0.01,VWS V14.01,2013-10-30 13:52:00,
2013-10-30 08:53:00,77.1,74.3,30.00,ESE,118,10.0,11.0,91,0.01,,---,0.01,VWS V14.01,2013-10-30 13:53:00,
2013-10-30 08:54:00,77.1,74.3,30.00,SE,125,6.0,11.0,91,0.01,,---,0.01,VWS V14.01,2013-10-30 13:54:00,
2013-10-30 08:55:00,77.1,74.3,30.00,ESE,118,10.0,11.0,91,0.01,,---,0.01,VWS V14.01,2013-10-30 13:55:00,
2013-10-30 08:56:00,77.1,74.3,30.00,ESE,114,8.0,12.0,91,0.01,,---,0.01,VWS V14.01,2013-10-30 13:56:00,
2013-10-30 08:57:00,77.1,74.3,29.99,ESE,122,9.0,12.0,91,0.01,,---,0.01,VWS V14.01,2013-10-30 13:57:00,
2013-10-30 08:58:00,77.1,74.3,29.99,ESE,116,9.0,12.0,91,0.01,,---,0.01,VWS V14.01,2013-10-30 13:58:00,
2013-10-30 08:59:00,77.2,74.4,30.00,ESE,123,9.0,12.0,91,0.01,,---,0.01,VWS V14.01,2013-10-30 13:59:00,
2013-10-30 09:00:00,77.2,74.4,30.00,ESE,113,7.0,13.0,91,0.01,,---,0.01,VWS V14.01,2013-10-30 14:00:00,
2013-10-30 09:01:00,77.2,74.4,29.99,SE,134,7.0,11.0,91,0.01,,---,0.01,VWS V14.01,2013-10-30 14:01:00,
2013-10-30 09:02:00,77.2,74.4,30.00,ESE,108,4.0,11.0,91,0.01,,---,0.01,VWS V14.01,2013-10-30 14:02:00,
2013-10-30 09:03:00,77.3,74.5,30.00,SE,136,5.0,11.0,91,0.01,,---,0.01,VWS V14.01,2013-10-30 14:03:00,
2013-10-30 09:04:00,77.3,74.5,30.00,SE,132,7.0,11.0,91,0.01,,---,0.01,VWS V14.01,2013-10-30 14:04:00,
2013-10-30 09:05:00,77.4,74.6,30.00,SE,145,3.0,12.0,91,0.01,,---,0.01,VWS V14.01,2013-10-30 14:05:00,
2013-10-30 09:06:00,77.4,74.6,30.00,SE,132,3.0,12.0,91,0.01,,---,0.01,VWS V14.01,2013-10-30 14:06:00,
2013-10-30 09:07:00,77.5,74.7,29.99,SSE,155,9.0,12.0,91,0.01,,---,0.01,VWS V14.01,2013-10-30 14:07:00,
2013-10-30 09:08:00,77.6,74.8,29.99,SSE,147,5.0,12.0,91,0.01,,---,0.01,VWS V14.01,2013-10-30 14:08:00,
2013-10-30 09:09:00,77.6,74.8,29.99,SE,124,7.0,12.0,91,0.01,,---,0.01,VWS V14.01,2013-10-30 14:09:00,
2013-10-30 09:10:00,77.6,74.4,29.99,SE,130,6.0,12.0,90,0.01,,---,0.01,VWS V14.01,2013-10-30 14:10:00,
2013-10-30 09:11:00,77.7,74.5,30.00,ESE,121,7.0,8.0,90,0.01,,---,0.01,VWS V14.01,2013-10-30 14:11:00,
2013-10-30 09:12:00,77.7,74.5,30.00,SE,130,4.0,8.0,90,0.01,,---,0.01,VWS V14.01,2013-10-30 14:12:00,
2013-10-30 09:13:00,77.0,73.8,29.98,SE,131,3.0,14.0,90,0.01,,---,0.01,VWS V14.01,2013-10-30 14:13:00,
2013-10-30 09:14:00,77.0,73.8,29.98,SE,131,3.0,14.0,90,0.01,,---,0.01,VWS V14.01,2013-10-30 14:14:00,
2013-10-30 09:15:00,77.8,74.6,29.99,SE,125,11.0,15.0,90,0.01,,---,0.01,VWS V14.01,2013-10-30 14:15:00,
2013-10-30 09:16:00,77.8,74.6,29.99,ESE,115,8.0,15.0,90,0.01,,---,0.01,VWS V14.01,2013-10-30 14:16:00,
2013-10-30 09:17:00,77.8,74.6,30.00,ESE,111,8.0,15.0,90,0.01,,---,0.01,VWS V14.01,2013-10-30 14:17:00,
2013-10-30 09:18:00,77.8,74.6,30.00,SE,139,7.0,15.0,90,0.01,,---,0.01,VWS V14.01,2013-10-30 14:18:00,
2013-10-30 09:19:00,77.9,74.7,30.00,ESE,120,7.0,15.0,90,0.01,,---,0.01,VWS V14.01,2013-10-30 14:19:00,
2013-10-30 09:20:00,77.9,74.7,30.00,ESE,113,10.0,15.0,90,0.01,,---,0.01,VWS V14.01,2013-10-30 14:20:00,
2013-10-30 09:21:00,77.9,74.7,30.00,SE,132,6.0,11.0,90,0.00,,---,0.01,VWS V14.01,2013-10-30 14:21:00,
2013-10-30 09:22:00,77.9,74.4,30.00,SE,141,4.0,11.0,89,0.00,,---,0.01,VWS V14.01,2013-10-30 14:22:00,
2013-10-30 09:23:00,77.9,74.4,29.99,ESE,114,9.0,11.0,89,0.00,,---,0.01,VWS V14.01,2013-10-30 14:23:00,
2013-10-30 09:24:00,77.9,74.4,29.99,ESE,122,7.0,11.0,89,0.00,,---,0.01,VWS V14.01,2013-10-30 14:24:00,
2013-10-30 09:25:00,77.9,74.4,30.00,ESE,116,6.0,12.0,89,0.00,,---,0.01,VWS V14.01,2013-10-30 14:25:00,
2013-10-30 09:26:00,77.9,74.4,30.00,ESE,113,10.0,12.0,89,0.00,,---,0.01,VWS V14.01,2013-10-30 14:26:00,
2013-10-30 09:27:00,77.9,74.4,30.00,SE,132,9.0,12.0,89,0.00,,---,0.01,VWS V14.01,2013-10-30 14:27:00,
2013-10-30 09:28:00,77.9,74.4,30.00,SE,130,10.0,12.0,89,0.00,,---,0.01,VWS V14.01,2013-10-30 14:28:00,
2013-10-30 09:29:00,77.9,74.4,29.99,ESE,122,6.0,12.0,89,0.00,,---,0.01,VWS V14.01,2013-10-30 14:29:00,
2013-10-30 09:30:00,77.9,74.4,29.99,SE,133,7.0,14.0,89,0.00,,---,0.01,VWS V14.01,2013-10-30 14:30:00,
2013-10-30 09:31:00,77.9,74.4,30.00,SE,128,9.0,13.0,89,0.00,,---,0.01,VWS V14.01,2013-10-30 14:31:00,
2013-10-30 09:32:00,78.0,74.5,30.00,ESE,121,6.0,13.0,89,0.00,,---,0.01,VWS V14.01,2013-10-30 14:32:00,
2013-10-30 09:33:00,77.9,74.4,29.99,ESE,102,7.0,13.0,89,0.00,,---,0.01,VWS V14.01,2013-10-30 14:33:00,
2013-10-30 09:34:00,78.0,74.5,29.99,SE,139,7.0,13.0,89,0.00,,---,0.01,VWS V14.01,2013-10-30 14:34:00,
2013-10-30 09:35:00,78.0,74.5,29.99,ESE,123,3.0,13.0,89,0.00,,---,0.01,VWS V14.01,2013-10-30 14:35:00,
2013-10-30 09:36:00,78.0,74.5,30.00,SE,126,8.0,13.0,89,0.00,,---,0.01,VWS V14.01,2013-10-30 14:36:00,
2013-10-30 09:37:00,78.0,74.5,30.00,SSE,147,10.0,13.0,89,0.00,,---,0.01,VWS V14.01,2013-10-30 14:37:00,
2013-10-30 09:38:00,78.0,74.5,30.00,SE,139,9.0,13.0,89,0.00,,---,0.01,VWS V14.01,2013-10-30 14:38:00,
2013-10-30 09:39:00,78.0,74.5,29.99,ESE,122,10.0,13.0,89,0.00,,---,0.01,VWS V14.01,2013-10-30 14:39:00,
2013-10-30 09:40:00,78.1,74.6,29.99,SE,127,10.0,13.0,89,0.00,,---,0.01,VWS V14.01,2013-10-30 14:40:00,
2013-10-30 09:41:00,78.1,74.6,29.99,ESE,119,8.0,14.0,89,0.00,,---,0.01,VWS V14.01,2013-10-30 14:41:00,
2013-10-30 09:42:00,78.1,74.6,29.99,ESE,121,6.0,14.0,89,0.00,,---,0.01,VWS V14.01,2013-10-30 14:42:00,
2013-10-30 09:43:00,78.2,74.7,29.99,SE,146,6.0,14.0,89,0.00,,---,0.01,VWS V14.01,2013-10-30 14:43:00,
2013-10-30 09:44:00,78.2,74.7,29.99,SE,143,4.0,14.0,89,0.00,,---,0.01,VWS V14.01,2013-10-30 14:44:00,
2013-10-30 09:45:00,78.3,74.8,29.99,SE,141,8.0,14.0,89,0.00,,---,0.01,VWS V14.01,2013-10-30 14:45:00,
2013-10-30 09:46:00,78.3,74.8,29.99,SE,136,5.0,14.0,89,0.00,,---,0.01,VWS V14.01,2013-10-30 14:46:00,
2013-10-30 09:47:00,78.4,74.9,29.99,ESE,117,10.0,14.0,89,0.00,,---,0.01,VWS V14.01,2013-10-30 14:47:00,
2013-10-30 09:48:00,78.5,75.0,29.99,ESE,116,10.0,16.0,89,0.00,,---,0.01,VWS V14.01,2013-10-30 14:48:00,
2013-10-30 09:49:00,78.5,75.0,29.99,SSE,147,9.0,16.0,89,0.00,,---,0.01,VWS V14.01,2013-10-30 14:49:00,
2013-10-30 09:50:00,78.6,75.1,29.99,SSE,152,9.0,16.0,89,0.00,,---,0.01,VWS V14.01,2013-10-30 14:50:00,
2013-10-30 09:51:00,78.6,74.8,29.99,ESE,122,5.0,12.0,88,0.00,,---,0.01,VWS V14.01,2013-10-30 14:51:00,
2013-10-30 09:52:00,78.6,74.8,29.99,SE,127,4.0,12.0,88,0.00,,---,0.01,VWS V14.01,2013-10-30 14:52:00,
2013-10-30 09:53:00,78.6,74.8,29.99,SE,125,5.0,12.0,88,0.00,,---,0.01,VWS V14.01,2013-10-30 14:53:00,
2013-10-30 09:54:00,78.6,74.8,29.99,SE,124,6.0,12.0,88,0.00,,---,0.01,VWS V14.01,2013-10-30 14:54:00,
2013-10-30 09:55:00,78.6,74.8,29.99,SE,145,3.0,12.0,88,0.00,,---,0.01,VWS V14.01,2013-10-30 14:55:00,
2013-10-30 09:56:00,78.6,74.8,29.99,SE,128,6.0,12.0,88,0.00,,---,0.01,VWS V14.01,2013-10-30 14:56:00,
2013-10-30 09:57:00,78.7,74.8,29.99,ESE,122,6.0,12.0,88,0.00,,---,0.01,VWS V14.01,2013-10-30 14:57:00,
2013-10-30 09:58:00,78.7,74.8,29.99,SE,134,9.0,12.0,88,0.00,,---,0.01,VWS V14.01,2013-10-30 14:58:00,
2013-10-30 09:59:00,78.7,74.8,30.00,SE,127,6.0,12.0,88,0.00,,---,0.01,VWS V14.01,2013-10-30 14:59:00,
2013-10-30 10:00:00,78.7,74.8,30.00,SSE,165,7.0,12.0,88,0.00,,---,0.01,VWS V14.01,2013-10-30 15:00:00,
2013-10-30 10:01:00,78.7,74.8,30.00,SE,131,4.0,12.0,88,0.00,,---,0.01,VWS V14.01,2013-10-30 15:01:00,
2013-10-30 10:02:00,78.7,74.8,30.00,SSE,154,7.0,12.0,88,0.00,,---,0.01,VWS V14.01,2013-10-30 15:02:00,
2013-10-30 10:03:00,78.7,74.8,30.00,SE,136,6.0,12.0,88,0.00,,---,0.01,VWS V14.01,2013-10-30 15:03:00,
2013-10-30 10:04:00,78.7,74.8,30.00,SE,134,4.0,12.0,88,0.00,,---,0.01,VWS V14.01,2013-10-30 15:04:00,
2013-10-30 10:05:00,78.7,74.8,30.00,SE,132,4.0,12.0,88,0.00,,---,0.01,VWS V14.01,2013-10-30 15:05:00,
2013-10-30 10:06:00,78.7,74.8,30.00,SSE,153,4.0,12.0,88,0.00,,---,0.01,VWS V14.01,2013-10-30 15:06:00,
2013-10-30 10:07:00,78.7,74.8,29.99,SE,132,6.0,12.0,88,0.00,,---,0.01,VWS V14.01,2013-10-30 15:07:00,
2013-10-30 10:08:00,78.7,74.8,30.00,SE,140,8.0,12.0,88,0.00,,---,0.01,VWS V14.01,2013-10-30 15:08:00,
2013-10-30 10:09:00,78.7,74.8,30.00,SSE,168,3.0,12.0,88,0.00,,---,0.01,VWS V14.01,2013-10-30 15:09:00,
2013-10-30 10:10:00,78.8,74.9,30.00,South,170,6.0,12.0,88,0.00,,---,0.01,VWS V14.01,2013-10-30 15:10:00,
2013-10-30 10:11:00,78.9,75.1,30.00,SSE,164,7.0,9.0,88,0.00,,---,0.01,VWS V14.01,2013-10-30 15:11:00,
2013-10-30 10:12:00,79.0,75.2,30.00,SE,143,4.0,10.0,88,0.00,,---,0.01,VWS V14.01,2013-10-30 15:12:00,
2013-10-30 10:13:00,79.1,75.2,30.00,South,180,7.0,11.0,88,0.00,,---,0.01,VWS V14.01,2013-10-30 15:13:00,
2013-10-30 10:14:00,79.2,75.0,30.00,SSE,152,10.0,11.0,87,0.00,,---,0.01,VWS V14.01,2013-10-30 15:14:00,
2013-10-30 10:15:00,79.2,75.0,30.00,SE,143,5.0,11.0,87,0.00,,---,0.01,VWS V14.01,2013-10-30 15:15:00,
2013-10-30 10:16:00,79.4,75.2,30.00,SSE,151,7.0,11.0,87,0.00,,---,0.01,VWS V14.01,2013-10-30 15:16:00,
2013-10-30 10:17:00,79.4,75.2,29.99,SE,132,4.0,11.0,87,0.00,,---,0.01,VWS V14.01,2013-10-30 15:17:00,
2013-10-30 10:18:00,79.5,75.3,30.00,South,172,6.0,11.0,87,0.00,,---,0.01,VWS V14.01,2013-10-30 15:18:00,
2013-10-30 10:19:00,79.6,75.1,30.00,South,169,6.0,11.0,86,0.00,,---,0.01,VWS V14.01,2013-10-30 15:19:00,
2013-10-30 10:20:00,79.7,75.2,30.00,South,187,7.0,11.0,86,0.00,,---,0.01,VWS V14.01,2013-10-30 15:20:00,
2013-10-30 10:21:00,79.7,75.2,30.00,South,172,5.0,10.0,86,0.00,,---,0.01,VWS V14.01,2013-10-30 15:21:00,
2013-10-30 10:22:00,79.6,75.1,30.00,SSE,167,7.0,10.0,86,0.00,,---,0.01,VWS V14.01,2013-10-30 15:22:00,
2013-10-30 10:23:00,79.5,74.9,30.00,South,172,10.0,10.0,86,0.00,,---,0.01,VWS V14.01,2013-10-30 15:23:00,
2013-10-30 10:24:00,79.5,74.9,30.00,SSE,160,4.0,10.0,86,0.00,,---,0.01,VWS V14.01,2013-10-30 15:24:00,
2013-10-30 10:25:00,79.4,74.8,30.00,SSE,156,5.0,11.0,86,0.00,,---,0.01,VWS V14.01,2013-10-30 15:25:00,
2013-10-30 10:26:00,79.3,74.8,30.00,South,174,7.0,11.0,86,0.00,,---,0.01,VWS V14.01,2013-10-30 15:26:00,
2013-10-30 10:27:00,79.2,74.7,30.00,South,171,8.0,11.0,86,0.00,,---,0.01,VWS V14.01,2013-10-30 15:27:00,
2013-10-30 10:28:00,79.2,75.0,30.00,South,190,3.0,11.0,87,0.00,,---,0.01,VWS V14.01,2013-10-30 15:28:00,
2013-10-30 10:29:00,79.1,74.9,30.00,South,189,9.0,11.0,87,0.00,,---,0.01,VWS V14.01,2013-10-30 15:29:00,
2013-10-30 10:30:00,79.0,74.8,30.00,South,185,5.0,11.0,87,0.00,,---,0.01,VWS V14.01,2013-10-30 15:30:00,
2013-10-30 10:31:00,78.9,74.7,30.00,South,182,5.0,9.0,87,0.00,,---,0.01,VWS V14.01,2013-10-30 15:31:00,
2013-10-30 10:32:00,78.8,74.6,30.00,SSE,168,8.0,9.0,87,0.00,,---,0.01,VWS V14.01,2013-10-30 15:32:00,
2013-10-30 10:33:00,78.8,74.6,30.00,South,181,9.0,9.0,87,0.00,,---,0.01,VWS V14.01,2013-10-30 15:33:00,
2013-10-30 10:34:00,78.8,74.6,30.00,SE,141,9.0,10.0,87,0.00,,---,0.01,VWS V14.01,2013-10-30 15:34:00,
2013-10-30 10:35:00,78.8,74.6,30.00,South,183,7.0,10.0,87,0.00,,---,0.01,VWS V14.01,2013-10-30 15:35:00,
2013-10-30 10:36:00,78.7,74.5,30.00,South,170,8.0,15.0,87,0.00,,---,0.01,VWS V14.01,2013-10-30 15:36:00,
2013-10-30 10:37:00,78.7,74.5,30.00,SSE,150,9.0,15.0,87,0.00,,---,0.01,VWS V14.01,2013-10-30 15:37:00,
2013-10-30 10:38:00,78.7,74.8,30.00,South,170,8.0,15.0,88,0.00,,---,0.01,VWS V14.01,2013-10-30 15:38:00,
2013-10-30 10:39:00,78.7,74.8,30.00,SSE,157,7.0,15.0,88,0.00,,---,0.01,VWS V14.01,2013-10-30 15:39:00,
2013-10-30 10:40:00,78.7,74.8,30.00,South,178,7.0,15.0,88,0.00,,---,0.01,VWS V14.01,2013-10-30 15:40:00,
2013-10-30 10:41:00,78.7,74.8,30.00,SSE,165,9.0,9.0,88,0.00,,---,0.01,VWS V14.01,2013-10-30 15:41:00,
2013-10-30 10:42:00,78.7,74.8,30.00,South,177,8.0,10.0,88,0.00,,---,0.01,VWS V14.01,2013-10-30 15:42:00,
2013-10-30 10:43:00,78.6,74.8,30.00,SSE,164,4.0,10.0,88,0.00,,---,0.01,VWS V14.01,2013-10-30 15:43:00,
2013-10-30 10:44:00,78.6,74.8,30.00,SSE,165,5.0,10.0,88,0.00,,---,0.01,VWS V14.01,2013-10-30 15:44:00,
2013-10-30 10:45:00,78.6,74.8,30.00,SE,145,4.0,10.0,88,0.00,,---,0.01,VWS V14.01,2013-10-30 15:45:00,
2013-10-30 10:46:00,78.6,74.8,30.00,SSE,158,4.0,10.0,88,0.00,,---,0.01,VWS V14.01,2013-10-30 15:46:00,
2013-10-30 10:47:00,78.6,74.8,30.00,SE,124,5.0,10.0,88,0.00,,---,0.01,VWS V14.01,2013-10-30 15:47:00,
2013-10-30 10:48:00,78.5,74.7,30.00,South,191,10.0,10.0,88,0.00,,---,0.01,VWS V14.01,2013-10-30 15:48:00,
2013-10-30 10:49:00,78.6,74.8,29.99,South,178,6.0,11.0,88,0.00,,---,0.01,VWS V14.01,2013-10-30 15:49:00,
2013-10-30 10:50:00,78.5,74.7,30.00,South,172,5.0,11.0,88,0.00,,---,0.01,VWS V14.01,2013-10-30 15:50:00,
2013-10-30 10:51:00,78.5,74.7,29.99,South,182,7.0,9.0,88,0.00,,---,0.01,VWS V14.01,2013-10-30 15:51:00,
2013-10-30 10:52:00,78.5,74.7,29.99,SSE,156,5.0,13.0,88,0.00,,---,0.01,VWS V14.01,2013-10-30 15:52:00,
2013-10-30 10:53:00,78.5,74.7,29.99,SSE,155,10.0,13.0,88,0.00,,---,0.01,VWS V14.01,2013-10-30 15:53:00,
2013-10-30 10:54:00,78.5,74.7,29.99,SSE,159,4.0,13.0,88,0.00,,---,0.01,VWS V14.01,2013-10-30 15:54:00,
2013-10-30 10:55:00,78.5,74.7,29.99,SSW,197,8.0,13.0,88,0.00,,---,0.01,VWS V14.01,2013-10-30 15:55:00,
2013-10-30 10:56:00,78.6,74.8,29.99,SE,129,5.0,13.0,88,0.00,,---,0.01,VWS V14.01,2013-10-30 15:56:00,
2013-10-30 10:57:00,78.6,74.8,29.99,SSE,166,4.0,13.0,88,0.00,,---,0.01,VWS V14.01,2013-10-30 15:57:00,
2013-10-30 10:58:00,78.7,74.8,29.99,SSE,163,5.0,13.0,88,0.00,,---,0.01,VWS V14.01,2013-10-30 15:58:00,
2013-10-30 10:59:00,78.7,74.8,29.99,SSE,168,5.0,13.0,88,0.00,,---,0.01,VWS V14.01,2013-10-30 15:59:00,
2013-10-30 11:00:00,78.7,74.8,29.99,SSE,164,3.0,13.0,88,0.00,,---,0.01,VWS V14.01,2013-10-30 16:00:00,
2013-10-30 11:01:00,78.8,74.9,29.99,South,174,8.0,8.0,88,0.00,,---,0.01,VWS V14.01,2013-10-30 16:01:00,
2013-10-30 11:02:00,78.8,74.9,29.99,South,180,7.0,9.0,88,0.00,,---,0.01,VWS V14.01,2013-10-30 16:02:00,
2013-10-30 11:03:00,78.9,75.1,29.99,SSE,162,5.0,9.0,88,0.00,,---,0.01,VWS V14.01,2013-10-30 16:03:00,
2013-10-30 11:04:00,78.9,75.1,29.99,South,172,6.0,10.0,88,0.00,,---,0.01,VWS V14.01,2013-10-30 16:04:00,
2013-10-30 11:05:00,79.1,75.2,29.99,SSE,161,5.0,10.0,88,0.00,,---,0.01,VWS V14.01,2013-10-30 16:05:00,
2013-10-30 11:06:00,79.2,75.3,29.99,South,184,8.0,10.0,88,0.00,,---,0.01,VWS V14.01,2013-10-30 16:06:00,
2013-10-30 11:07:00,79.2,75.0,29.99,South,181,5.0,10.0,87,0.00,,---,0.01,VWS V14.01,2013-10-30 16:07:00,
2013-10-30 11:08:00,79.3,75.1,29.99,South,186,8.0,10.0,87,0.00,,---,0.01,VWS V14.01,2013-10-30 16:08:00,
2013-10-30 11:09:00,79.4,75.2,29.99,South,178,6.0,10.0,87,0.00,,---,0.01,VWS V14.01,2013-10-30 16:09:00,
2013-10-30 11:10:00,79.5,75.3,29.99,South,171,7.0,10.0,87,0.00,,---,0.01,VWS V14.01,2013-10-30 16:10:00,
2013-10-30 11:11:00,79.6,75.4,29.99,SSE,166,8.0,12.0,87,0.00,,---,0.01,VWS V14.01,2013-10-30 16:11:00,
2013-10-30 11:12:00,79.6,75.4,29.99,SE,141,7.0,12.0,87,0.00,,---,0.01,VWS V14.01,2013-10-30 16:12:00,
2013-10-30 11:13:00,79.6,75.1,29.99,South,172,8.0,12.0,86,0.00,,---,0.01,VWS V14.01,2013-10-30 16:13:00,
2013-10-30 11:14:00,79.6,75.1,29.99,SE,143,9.0,12.0,86,0.00,,---,0.01,VWS V14.01,2013-10-30 16:14:00,
2013-10-30 11:15:00,79.6,75.1,29.99,South,176,5.0,12.0,86,0.00,,---,0.01,VWS V14.01,2013-10-30 16:15:00,
2013-10-30 11:16:00,79.6,75.1,29.99,SSE,166,3.0,12.0,86,0.00,,---,0.01,VWS V14.01,2013-10-30 16:16:00,
2013-10-30 11:17:00,79.6,75.1,29.99,SSE,157,3.0,12.0,86,0.00,,---,0.01,VWS V14.01,2013-10-30 16:17:00,
2013-10-30 11:18:00,79.6,75.1,29.99,SE,137,4.0,12.0,86,0.00,,---,0.01,VWS V14.01,2013-10-30 16:18:00,
2013-10-30 11:19:00,79.6,75.1,29.99,South,169,7.0,12.0,86,0.00,,---,0.01,VWS V14.01,2013-10-30 16:19:00,
2013-10-30 11:20:00,79.6,75.1,29.99,SE,140,6.0,12.0,86,0.00,,---,0.01,VWS V14.01,2013-10-30 16:20:00,
2013-10-30 11:21:00,79.5,74.9,29.99,SSE,155,7.0,9.0,86,0.00,,---,0.01,VWS V14.01,2013-10-30 16:21:00,
2013-10-30 11:22:00,79.4,74.8,29.99,SSE,161,8.0,10.0,86,0.00,,---,0.01,VWS V14.01,2013-10-30 16:22:00,
2013-10-30 11:23:00,79.4,74.8,29.98,SSE,166,7.0,10.0,86,0.00,,---,0.01,VWS V14.01,2013-10-30 16:23:00,
2013-10-30 11:24:00,79.3,75.1,29.99,SE,139,5.0,10.0,87,0.00,,---,0.01,VWS V14.01,2013-10-30 16:24:00,
2013-10-30 11:25:00,79.3,75.1,29.99,SSE,161,5.0,10.0,87,0.00,,---,0.01,VWS V14.01,2013-10-30 16:25:00,
2013-10-30 11:26:00,79.3,75.1,29.98,South,186,5.0,10.0,87,0.00,,---,0.01,VWS V14.01,2013-10-30 16:26:00,
2013-10-30 11:27:00,79.2,75.0,29.98,South,174,7.0,10.0,87,0.00,,---,0.01,VWS V14.01,2013-10-30 16:27:00,
2013-10-30 11:28:00,79.2,75.0,29.98,SSE,159,7.0,10.0,87,0.00,,---,0.01,VWS V14.01,2013-10-30 16:28:00,
2013-10-30 11:29:00,79.2,75.0,29.98,South,174,8.0,11.0,87,0.00,,---,0.01,VWS V14.01,2013-10-30 16:29:00,
2013-10-30 11:30:00,79.2,75.0,29.98,South,180,6.0,11.0,87,0.00,,---,0.01,VWS V14.01,2013-10-30 16:30:00,
2013-10-30 11:35:00,79.0,74.8,29.98,SSE,168,3.0,3.0,87,0.00,,---,0.01,VWS V14.01,2013-10-30 16:35:00,
2013-10-30 11:36:00,79.0,74.8,29.98,ESE,122,7.0,7.0,87,0.00,,---,0.01,VWS V14.01,2013-10-30 16:36:00,
2013-10-30 11:37:00,79.0,74.8,29.98,SSE,166,3.0,7.0,87,0.00,,---,0.01,VWS V14.01,2013-10-30 16:37:00,
2013-10-30 11:38:00,79.0,74.8,29.98,SSE,154,4.0,8.0,87,0.00,,---,0.01,VWS V14.01,2013-10-30 16:38:00,
2013-10-30 11:39:00,79.1,74.9,29.98,SSE,154,5.0,8.0,87,0.00,,---,0.01,VWS V14.01,2013-10-30 16:39:00,
2013-10-30 11:40:00,79.1,74.9,29.98,SSE,157,3.0,10.0,87,0.00,,---,0.01,VWS V14.01,2013-10-30 16:40:00,
2013-10-30 11:41:00,79.1,74.9,29.98,South,184,7.0,7.0,87,0.00,,---,0.01,VWS V14.01,2013-10-30 16:41:00,
2013-10-30 11:42:00,79.1,74.9,29.97,SSE,157,7.0,8.0,87,0.00,,---,0.01,VWS V14.01,2013-10-30 16:42:00,
2013-10-30 11:43:00,79.1,74.9,29.97,SE,141,5.0,8.0,87,0.00,,---,0.01,VWS V14.01,2013-10-30 16:43:00,
2013-10-30 11:44:00,79.1,74.9,29.97,ESE,120,8.0,8.0,87,0.00,,---,0.01,VWS V14.01,2013-10-30 16:44:00,
2013-10-30 11:45:00,79.1,74.9,29.97,South,174,6.0,9.0,87,0.00,,---,0.01,VWS V14.01,2013-10-30 16:45:00,
2013-10-30 11:46:00,79.1,74.9,29.97,SE,131,5.0,9.0,87,0.00,,---,0.01,VWS V14.01,2013-10-30 16:46:00,
2013-10-30 11:47:00,79.1,74.9,29.97,East,101,7.0,9.0,87,0.00,,---,0.01,VWS V14.01,2013-10-30 16:47:00,
2013-10-30 11:48:00,79.1,74.9,29.97,South,172,7.0,9.0,87,0.00,,---,0.01,VWS V14.01,2013-10-30 16:48:00,
2013-10-30 11:49:00,79.1,74.9,29.97,SE,143,6.0,9.0,87,0.00,,---,0.01,VWS V14.01,2013-10-30 16:49:00,
2013-10-30 11:50:00,79.1,74.9,29.97,SE,136,6.0,13.0,87,0.00,,---,0.01,VWS V14.01,2013-10-30 16:50:00,
2013-10-30 11:51:00,79.2,75.0,29.97,SE,145,2.0,8.0,87,0.00,,---,0.01,VWS V14.01,2013-10-30 16:51:00,
2013-10-30 11:52:00,79.2,75.0,29.97,SE,132,8.0,9.0,87,0.00,,---,0.01,VWS V14.01,2013-10-30 16:52:00,
2013-10-30 11:53:00,79.3,75.1,29.97,ESE,116,7.0,9.0,87,0.00,,---,0.01,VWS V14.01,2013-10-30 16:53:00,
2013-10-30 11:54:00,79.4,74.8,29.96,ESE,118,8.0,9.0,86,0.00,,---,0.01,VWS V14.01,2013-10-30 16:54:00,
2013-10-30 11:55:00,79.5,74.9,29.96,SE,140,3.0,9.0,86,0.00,,---,0.01,VWS V14.01,2013-10-30 16:55:00,
2013-10-30 11:56:00,79.6,75.1,29.96,East,90,5.0,10.0,86,0.00,,---,0.01,VWS V14.01,2013-10-30 16:56:00,
2013-10-30 11:57:00,79.8,75.2,29.96,SE,140,6.0,10.0,86,0.00,,---,0.01,VWS V14.01,2013-10-30 16:57:00,
2013-10-30 11:58:00,79.9,75.3,29.96,South,171,6.0,10.0,86,0.00,,---,0.01,VWS V14.01,2013-10-30 16:58:00,
2013-10-30 11:59:00,80.0,75.4,29.96,SE,132,6.0,10.0,86,0.00,,---,0.01,VWS V14.01,2013-10-30 16:59:00,
2013-10-30 12:00:00,80.1,75.2,29.96,SSE,168,5.0,10.0,85,0.00,,---,0.01,VWS V14.01,2013-10-30 17:00:00,
2013-10-30 12:01:00,80.1,75.2,29.96,SSE,155,5.0,8.0,85,0.00,,---,0.01,VWS V14.01,2013-10-30 17:01:00,
2013-10-30 12:02:00,80.1,75.2,29.96,SE,146,6.0,10.0,85,0.00,,---,0.01,VWS V14.01,2013-10-30 17:02:00,
2013-10-30 12:03:00,80.1,75.2,29.96,South,170,5.0,10.0,85,0.00,,---,0.01,VWS V14.01,2013-10-30 17:03:00,
2013-10-30 12:04:00,80.0,75.1,29.96,SE,126,6.0,10.0,85,0.00,,---,0.01,VWS V14.01,2013-10-30 17:04:00,
2013-10-30 12:05:00,80.1,75.2,29.96,SSE,159,8.0,10.0,85,0.00,,---,0.01,VWS V14.01,2013-10-30 17:05:00,
2013-10-30 12:06:00,80.1,75.2,29.96,South,176,6.0,10.0,85,0.00,,---,0.01,VWS V14.01,2013-10-30 17:06:00,
2013-10-30 12:07:00,80.1,75.2,29.96,ESE,114,7.0,10.0,85,0.00,,---,0.01,VWS V14.01,2013-10-30 17:07:00,
2013-10-30 12:08:00,80.2,75.3,29.96,SSE,158,7.0,10.0,85,0.00,,---,0.01,VWS V14.01,2013-10-30 17:08:00,
2013-10-30 12:09:00,80.1,75.2,29.96,SE,138,4.0,10.0,85,0.00,,---,0.01,VWS V14.01,2013-10-30 17:09:00,
2013-10-30 12:10:00,80.1,75.2,29.96,SSE,159,4.0,10.0,85,0.00,,---,0.01,VWS V14.01,2013-10-30 17:10:00,
2013-10-30 12:11:00,80.1,75.2,29.96,SSE,163,4.0,9.0,85,0.00,,---,0.01,VWS V14.01,2013-10-30 17:11:00,
2013-10-30 12:12:00,80.0,75.1,29.95,South,178,8.0,10.0,85,0.00,,---,0.01,VWS V14.01,2013-10-30 17:12:00,
2013-10-30 12:13:00,79.2,75.0,29.98,South,176,6.0,11.0,87,0.00,,---,0.01,VWS V14.01,2013-10-30 17:13:00,
2013-10-30 12:14:00,79.2,75.0,29.98,South,176,6.0,11.0,87,0.00,,---,0.01,VWS V14.01,2013-10-30 17:14:00,
2013-10-30 12:15:00,80.0,75.1,29.95,ESE,112,5.0,10.0,85,0.00,,---,0.01,VWS V14.01,2013-10-30 17:15:00,
2013-10-30 12:16:00,79.2,75.0,29.98,South,176,6.0,11.0,87,0.00,,---,0.01,VWS V14.01,2013-10-30 17:16:00,
2013-10-30 12:17:00,80.0,75.1,29.95,SSE,153,9.0,10.0,85,0.00,,---,0.01,VWS V14.01,2013-10-30 17:17:00,
2013-10-30 12:18:00,80.0,75.1,29.95,SE,144,4.0,10.0,85,0.00,,---,0.01,VWS V14.01,2013-10-30 17:18:00,
2013-10-30 12:19:00,79.9,75.0,29.95,South,170,7.0,10.0,85,0.00,,---,0.01,VWS V14.01,2013-10-30 17:19:00,
2013-10-30 12:20:00,79.0,74.8,29.98,SSE,154,4.0,8.0,87,0.00,,---,0.01,VWS V14.01,2013-10-30 17:20:00,
2013-10-30 12:21:00,79.9,75.0,29.95,South,174,13.0,17.0,85,0.00,,---,0.01,VWS V14.01,2013-10-30 17:21:00,
2013-10-30 12:22:00,80.0,75.1,29.95,SSE,165,5.0,17.0,85,0.00,,---,0.01,VWS V14.01,2013-10-30 17:22:00,
2013-10-30 12:23:00,79.9,75.0,29.95,SSE,149,3.0,17.0,85,0.00,,---,0.01,VWS V14.01,2013-10-30 17:23:00,
2013-10-30 12:24:00,79.9,75.0,29.95,South,172,8.0,17.0,85,0.00,,---,0.01,VWS V14.01,2013-10-30 17:24:00,
2013-10-30 12:25:00,79.9,75.0,29.95,South,171,9.0,17.0,85,0.00,,---,0.01,VWS V14.01,2013-10-30 17:25:00,
2013-10-30 12:26:00,79.8,74.9,29.95,SE,144,5.0,17.0,85,0.00,,---,0.01,VWS V14.01,2013-10-30 17:26:00,
2013-10-30 12:27:00,79.8,74.9,29.95,SSW,193,8.0,17.0,85,0.00,,---,0.01,VWS V14.01,2013-10-30 17:27:00,
2013-10-30 12:28:00,79.8,74.9,29.95,SSE,160,7.0,17.0,85,0.00,,---,0.01,VWS V14.01,2013-10-30 17:28:00,
2013-10-30 12:29:00,79.7,74.8,29.94,South,184,8.0,17.0,85,0.00,,---,0.01,VWS V14.01,2013-10-30 17:29:00,
2013-10-30 12:30:00,79.7,74.8,29.94,SSE,161,5.0,17.0,85,0.00,,---,0.01,VWS V14.01,2013-10-30 17:30:00,
2013-10-30 12:35:00,79.4,74.8,29.94,South,180,7.0,7.0,86,0.00,,---,0.01,VWS V14.01,2013-10-30 17:35:00,
2013-10-30 12:36:00,79.4,74.8,29.94,South,184,6.0,9.0,86,0.00,,---,0.01,VWS V14.01,2013-10-30 17:36:00,
2013-10-30 12:37:00,79.3,74.8,29.94,SSE,168,7.0,9.0,86,0.00,,---,0.01,VWS V14.01,2013-10-30 17:37:00,
2013-10-30 12:38:00,79.3,74.8,29.94,South,179,8.0,11.0,86,0.00,,---,0.01,VWS V14.01,2013-10-30 17:38:00,
2013-10-30 12:39:00,79.3,74.8,29.94,SSE,166,7.0,11.0,86,0.00,,---,0.01,VWS V14.01,2013-10-30 17:39:00,
2013-10-30 12:40:00,79.2,74.7,29.93,SSE,167,8.0,11.0,86,0.00,,---,0.01,VWS V14.01,2013-10-30 17:40:00,
2013-10-30 12:41:00,79.2,74.7,29.94,SSE,151,5.0,8.0,86,0.00,,---,0.01,VWS V14.01,2013-10-30 17:41:00,
2013-10-30 12:42:00,79.2,74.7,29.93,SSE,168,7.0,10.0,86,0.00,,---,0.01,VWS V14.01,2013-10-30 17:42:00,
2013-10-30 12:43:00,79.2,74.7,29.93,SSE,153,3.0,10.0,86,0.00,,---,0.01,VWS V14.01,2013-10-30 17:43:00,
2013-10-30 12:44:00,79.2,74.7,29.93,South,170,5.0,10.0,86,0.00,,---,0.01,VWS V14.01,2013-10-30 17:44:00,
2013-10-30 12:45:00,79.2,74.7,29.93,South,191,6.0,10.0,86,0.00,,---,0.01,VWS V14.01,2013-10-30 17:45:00,
2013-10-30 12:46:00,79.2,74.7,29.93,SSE,164,7.0,12.0,86,0.00,,---,0.01,VWS V14.01,2013-10-30 17:46:00,
2013-10-30 12:47:00,79.2,74.7,29.93,SE,144,6.0,12.0,86,0.00,,---,0.01,VWS V14.01,2013-10-30 17:47:00,
2013-10-30 12:48:00,79.2,75.0,29.93,SSE,154,5.0,12.0,87,0.00,,---,0.01,VWS V14.01,2013-10-30 17:48:00,
2013-10-30 12:49:00,79.2,75.0,29.93,SSE,157,10.0,12.0,87,0.00,,---,0.01,VWS V14.01,2013-10-30 17:49:00,
2013-10-30 12:50:00,79.2,75.0,29.93,South,187,9.0,12.0,87,0.00,,---,0.01,VWS V14.01,2013-10-30 17:50:00,
2013-10-30 12:51:00,79.2,74.7,29.93,SSE,160,5.0,15.0,86,0.00,,---,0.01,VWS V14.01,2013-10-30 17:51:00,
2013-10-30 12:52:00,79.3,75.1,29.93,South,179,6.0,15.0,87,0.00,,---,0.01,VWS V14.01,2013-10-30 17:52:00,
2013-10-30 12:53:00,79.3,75.1,29.92,SSE,168,3.0,15.0,87,0.00,,---,0.01,VWS V14.01,2013-10-30 17:53:00,
2013-10-30 12:54:00,79.3,75.1,29.92,SSE,163,5.0,15.0,87,0.00,,---,0.01,VWS V14.01,2013-10-30 17:54:00,
2013-10-30 12:55:00,79.3,75.1,29.92,South,175,8.0,15.0,87,0.00,,---,0.01,VWS V14.01,2013-10-30 17:55:00,
2013-10-30 12:56:00,79.3,74.8,29.92,South,177,3.0,15.0,86,0.00,,---,0.01,VWS V14.01,2013-10-30 17:56:00,
2013-10-30 12:57:00,79.3,74.8,29.92,SE,140,6.0,15.0,86,0.00,,---,0.01,VWS V14.01,2013-10-30 17:57:00,
2013-10-30 12:58:00,79.3,74.8,29.92,SSE,165,3.0,15.0,86,0.00,,---,0.01,VWS V14.01,2013-10-30 17:58:00,
2013-10-30 12:59:00,79.3,74.8,29.92,SSE,157,5.0,15.0,86,0.00,,---,0.01,VWS V14.01,2013-10-30 17:59:00,
2013-10-30 13:00:00,79.3,74.8,29.92,South,170,7.0,15.0,86,0.00,,---,0.01,VWS V14.01,2013-10-30 18:00:00,
2013-10-30 13:01:00,79.3,74.8,29.92,SSE,161,5.0,10.0,86,0.00,,---,0.01,VWS V14.01,2013-10-30 18:01:00,
2013-10-30 13:02:00,79.3,75.1,29.92,South,170,6.0,10.0,87,0.00,,---,0.01,VWS V14.01,2013-10-30 18:02:00,
2013-10-30 13:03:00,79.3,75.1,29.92,SE,124,6.0,10.0,87,0.00,,---,0.01,VWS V14.01,2013-10-30 18:03:00,
2013-10-30 13:04:00,79.3,74.8,29.92,South,174,7.0,10.0,86,0.00,,---,0.01,VWS V14.01,2013-10-30 18:04:00,
2013-10-30 13:05:00,79.3,74.8,29.92,SSE,159,7.0,10.0,86,0.00,,---,0.01,VWS V14.01,2013-10-30 18:05:00,
2013-10-30 13:06:00,79.3,74.8,29.92,South,175,6.0,10.0,86,0.00,,---,0.01,VWS V14.01,2013-10-30 18:06:00,
2013-10-30 13:07:00,79.3,74.8,29.92,South,185,7.0,10.0,86,0.00,,---,0.01,VWS V14.01,2013-10-30 18:07:00,
2013-10-30 13:08:00,79.3,75.1,29.92,South,186,6.0,10.0,87,0.00,,---,0.01,VWS V14.01,2013-10-30 18:08:00,
2013-10-30 13:09:00,79.4,75.2,29.92,SSE,161,8.0,10.0,87,0.00,,---,0.01,VWS V14.01,2013-10-30 18:09:00,
2013-10-30 13:10:00,79.3,75.1,29.92,South,178,6.0,10.0,87,0.00,,---,0.01,VWS V14.01,2013-10-30 18:10:00,
2013-10-30 13:11:00,79.3,75.1,29.92,South,181,7.0,9.0,87,0.00,,---,0.01,VWS V14.01,2013-10-30 18:11:00,
2013-10-30 13:12:00,79.3,75.1,29.92,SSE,164,9.0,12.0,87,0.00,,---,0.01,VWS V14.01,2013-10-30 18:12:00,
2013-10-30 13:13:00,79.7,74.8,29.94,SSE,161,5.0,17.0,85,0.00,,---,0.01,VWS V14.01,2013-10-30 18:13:00,
2013-10-30 13:14:00,79.2,75.0,29.92,South,170,6.0,12.0,87,0.00,,---,0.01,VWS V14.01,2013-10-30 18:14:00,
2013-10-30 13:15:00,79.7,74.8,29.94,SSE,161,5.0,17.0,85,0.00,,---,0.01,VWS V14.01,2013-10-30 18:15:00,
2013-10-30 13:16:00,79.7,74.8,29.94,SSE,161,5.0,17.0,85,0.00,,---,0.01,VWS V14.01,2013-10-30 18:16:00,
2013-10-30 13:17:00,79.1,74.9,29.91,South,175,8.0,12.0,87,0.00,,---,0.01,VWS V14.01,2013-10-30 18:17:00,
2013-10-30 13:18:00,79.1,74.9,29.91,SSE,164,9.0,12.0,87,0.00,,---,0.01,VWS V14.01,2013-10-30 18:18:00,
2013-10-30 13:19:00,79.1,74.9,29.91,SSE,159,5.0,12.0,87,0.00,,---,0.01,VWS V14.01,2013-10-30 18:19:00,
2013-10-30 13:20:00,79.1,74.9,29.91,SE,138,8.0,12.0,87,0.00,,---,0.01,VWS V14.01,2013-10-30 18:20:00,
2013-10-30 13:21:00,79.1,74.9,29.91,SSE,168,7.0,9.0,87,0.00,,---,0.01,VWS V14.01,2013-10-30 18:21:00,
2013-10-30 13:22:00,79.1,74.9,29.91,SSE,149,5.0,9.0,87,0.00,,---,0.01,VWS V14.01,2013-10-30 18:22:00,
2013-10-30 13:23:00,79.0,74.8,29.91,South,185,3.0,9.0,87,0.00,,---,0.01,VWS V14.01,2013-10-30 18:23:00,
2013-10-30 13:24:00,79.0,75.2,29.91,SSE,156,7.0,9.0,88,0.00,,---,0.01,VWS V14.01,2013-10-30 18:24:00,
2013-10-30 13:25:00,79.0,75.2,29.91,SE,135,3.0,9.0,88,0.00,,---,0.01,VWS V14.01,2013-10-30 18:25:00,
2013-10-30 13:26:00,79.0,75.2,29.91,South,172,7.0,9.0,88,0.00,,---,0.01,VWS V14.01,2013-10-30 18:26:00,
2013-10-30 13:27:00,79.0,75.2,29.91,SSE,158,7.0,9.0,88,0.00,,---,0.01,VWS V14.01,2013-10-30 18:27:00,
2013-10-30 13:28:00,78.9,75.1,29.91,SSE,164,7.0,11.0,88,0.00,,---,0.01,VWS V14.01,2013-10-30 18:28:00,
2013-10-30 13:29:00,78.9,75.1,29.91,South,172,5.0,11.0,88,0.00,,---,0.01,VWS V14.01,2013-10-30 18:29:00,
2013-10-30 13:30:00,78.9,75.1,29.90,South,171,6.0,11.0,88,0.00,,---,0.01,VWS V14.01,2013-10-30 18:30:00,
2013-10-30 13:31:00,78.9,75.1,29.90,South,177,8.0,9.0,88,0.00,,---,0.01,VWS V14.01,2013-10-30 18:31:00,
2013-10-30 13:32:00,78.9,75.1,29.90,SSE,166,8.0,9.0,88,0.00,,---,0.01,VWS V14.01,2013-10-30 18:32:00,
2013-10-30 13:33:00,78.9,75.1,29.90,SSE,159,3.0,9.0,88,0.00,,---,0.01,VWS V14.01,2013-10-30 18:33:00,
2013-10-30 13:34:00,78.8,74.9,29.90,SE,127,6.0,9.0,88,0.00,,---,0.01,VWS V14.01,2013-10-30 18:34:00,
2013-10-30 13:35:00,78.8,74.9,29.90,SE,140,3.0,9.0,88,0.00,,---,0.01,VWS V14.01,2013-10-30 18:35:00,
2013-10-30 13:36:00,78.8,74.9,29.90,SE,130,4.0,9.0,88,0.00,,---,0.01,VWS V14.01,2013-10-30 18:36:00,
2013-10-30 13:37:00,78.8,74.9,29.90,SE,126,5.0,10.0,88,0.00,,---,0.01,VWS V14.01,2013-10-30 18:37:00,
2013-10-30 13:38:00,78.8,74.9,29.90,SSE,151,5.0,10.0,88,0.00,,---,0.01,VWS V14.01,2013-10-30 18:38:00,
2013-10-30 13:39:00,78.7,74.8,29.90,SSE,168,3.0,10.0,88,0.00,,---,0.01,VWS V14.01,2013-10-30 18:39:00,
2013-10-30 13:40:00,78.7,74.8,29.90,SE,137,5.0,10.0,88,0.00,,---,0.01,VWS V14.01,2013-10-30 18:40:00,
2013-10-30 13:41:00,78.7,74.8,29.90,SSE,165,5.0,10.0,88,0.00,,---,0.01,VWS V14.01,2013-10-30 18:41:00,
2013-10-30 13:42:00,78.7,74.8,29.90,SSE,156,5.0,10.0,88,0.00,,---,0.01,VWS V14.01,2013-10-30 18:42:00,
2013-10-30 13:43:00,78.7,75.2,29.90,South,176,7.0,10.0,89,0.00,,---,0.01,VWS V14.01,2013-10-30 18:43:00,
2013-10-30 13:44:00,78.6,75.1,29.90,SSE,163,7.0,10.0,89,0.00,,---,0.01,VWS V14.01,2013-10-30 18:44:00,
2013-10-30 13:45:00,78.6,75.1,29.90,South,175,3.0,10.0,89,0.00,,---,0.01,VWS V14.01,2013-10-30 18:45:00,
2013-10-30 13:46:00,78.6,75.1,29.90,SSE,155,7.0,10.0,89,0.00,,---,0.01,VWS V14.01,2013-10-30 18:46:00,
2013-10-30 13:47:00,78.6,75.1,29.89,SSE,168,4.0,10.0,89,0.00,,---,0.01,VWS V14.01,2013-10-30 18:47:00,
2013-10-30 13:48:00,78.6,75.1,29.89,SSE,149,9.0,14.0,89,0.00,,---,0.01,VWS V14.01,2013-10-30 18:48:00,
2013-10-30 13:49:00,78.5,75.0,29.89,South,174,13.0,14.0,89,0.00,,---,0.01,VWS V14.01,2013-10-30 18:49:00,
2013-10-30 13:50:00,78.5,75.0,29.89,SSE,152,5.0,14.0,89,0.00,,---,0.01,VWS V14.01,2013-10-30 18:50:00,
2013-10-30 13:51:00,78.5,75.0,29.89,SSE,164,7.0,9.0,89,0.00,,---,0.01,VWS V14.01,2013-10-30 18:51:00,
2013-10-30 13:52:00,78.5,75.0,29.89,SSE,159,4.0,11.0,89,0.00,,---,0.01,VWS V14.01,2013-10-30 18:52:00,
2013-10-30 13:53:00,78.5,75.0,29.89,SSE,157,5.0,11.0,89,0.00,,---,0.01,VWS V14.01,2013-10-30 18:53:00,
2013-10-30 13:54:00,78.5,75.0,29.89,SE,143,6.0,11.0,89,0.00,,---,0.01,VWS V14.01,2013-10-30 18:54:00,
2013-10-30 13:55:00,78.5,75.0,29.88,South,176,6.0,11.0,89,0.00,,---,0.01,VWS V14.01,2013-10-30 18:55:00,
2013-10-30 13:56:00,78.5,75.0,29.88,South,177,8.0,11.0,89,0.00,,---,0.01,VWS V14.01,2013-10-30 18:56:00,
2013-10-30 13:57:00,78.5,75.0,29.88,South,171,7.0,11.0,89,0.00,,---,0.01,VWS V14.01,2013-10-30 18:57:00,
2013-10-30 13:58:00,78.5,75.0,29.88,South,180,7.0,11.0,89,0.00,,---,0.01,VWS V14.01,2013-10-30 18:58:00,
2013-10-30 13:59:00,78.5,75.0,29.88,SSE,160,5.0,11.0,89,0.00,,---,0.01,VWS V14.01,2013-10-30 18:59:00,
2013-10-30 14:00:00,78.5,75.0,29.88,SSE,156,7.0,11.0,89,0.00,,---,0.01,VWS V14.01,2013-10-30 19:00:00,
2013-10-30 14:01:00,78.5,75.0,29.88,SSE,152,11.0,11.0,89,0.00,,---,0.01,VWS V14.01,2013-10-30 19:01:00,
2013-10-30 14:02:00,78.4,74.9,29.88,South,178,9.0,12.0,89,0.00,,---,0.01,VWS V14.01,2013-10-30 19:02:00,
2013-10-30 14:03:00,78.4,75.2,29.88,South,186,13.0,13.0,90,0.00,,---,0.01,VWS V14.01,2013-10-30 19:03:00,
2013-10-30 14:04:00,78.4,75.2,29.88,South,169,7.0,13.0,90,0.00,,---,0.01,VWS V14.01,2013-10-30 19:04:00,
2013-10-30 14:05:00,78.4,75.2,29.88,South,186,3.0,13.0,90,0.00,,---,0.01,VWS V14.01,2013-10-30 19:05:00,
2013-10-30 14:06:00,78.4,75.2,29.88,South,170,10.0,13.0,90,0.00,,---,0.01,VWS V14.01,2013-10-30 19:06:00,
2013-10-30 14:07:00,78.4,75.2,29.88,South,180,11.0,13.0,90,0.00,,---,0.01,VWS V14.01,2013-10-30 19:07:00,
2013-10-30 14:08:00,78.5,75.3,29.88,SSE,157,12.0,15.0,90,0.00,,---,0.01,VWS V14.01,2013-10-30 19:08:00,
2013-10-30 14:09:00,78.5,75.3,29.88,South,176,5.0,15.0,90,0.00,,---,0.01,VWS V14.01,2013-10-30 19:09:00,
2013-10-30 14:10:00,78.4,75.2,29.88,South,179,8.0,15.0,90,0.00,,---,0.01,VWS V14.01,2013-10-30 19:10:00,
2013-10-30 14:11:00,78.5,75.3,29.88,SSE,167,11.0,13.0,90,0.00,,---,0.01,VWS V14.01,2013-10-30 19:11:00,
2013-10-30 14:12:00,78.5,75.3,29.88,SSE,159,10.0,13.0,90,0.00,,---,0.01,VWS V14.01,2013-10-30 19:12:00,
2013-10-30 14:13:00,78.5,75.3,29.88,South,170,13.0,13.0,90,0.00,,---,0.01,VWS V14.01,2013-10-30 19:13:00,
2013-10-30 14:14:00,78.5,75.3,29.88,SSE,151,12.0,14.0,90,0.00,,---,0.01,VWS V14.01,2013-10-30 19:14:00,
2013-10-30 14:15:00,78.5,75.3,29.88,SSE,157,7.0,14.0,90,0.00,,---,0.01,VWS V14.01,2013-10-30 19:15:00,
2013-10-30 14:16:00,78.4,75.2,29.88,SSE,165,8.0,14.0,90,0.00,,---,0.01,VWS V14.01,2013-10-30 19:16:00,
2013-10-30 14:17:00,78.4,75.2,29.88,SSE,157,9.0,14.0,90,0.00,,---,0.01,VWS V14.01,2013-10-30 19:17:00,
2013-10-30 14:18:00,78.4,75.2,29.88,SSE,155,10.0,14.0,90,0.00,,---,0.01,VWS V14.01,2013-10-30 19:18:00,
2013-10-30 14:19:00,78.4,75.2,29.88,SSE,166,13.0,15.0,90,0.00,,---,0.01,VWS V14.01,2013-10-30 19:19:00,
2013-10-30 14:20:00,78.4,75.2,29.88,South,181,10.0,15.0,90,0.00,,---,0.01,VWS V14.01,2013-10-30 19:20:00,
2013-10-30 14:21:00,78.4,75.2,29.88,South,182,9.0,14.0,90,0.00,,---,0.01,VWS V14.01,2013-10-30 19:21:00,
2013-10-30 14:22:00,78.4,75.2,29.88,South,170,9.0,14.0,90,0.00,,---,0.01,VWS V14.01,2013-10-30 19:22:00,
2013-10-30 14:23:00,78.4,75.2,29.88,SSE,157,8.0,14.0,90,0.00,,---,0.01,VWS V14.01,2013-10-30 19:23:00,
2013-10-30 14:24:00,78.4,75.2,29.88,South,172,9.0,14.0,90,0.00,,---,0.01,VWS V14.01,2013-10-30 19:24:00,
2013-10-30 14:25:00,78.4,75.2,29.88,SSE,159,7.0,14.0,90,0.00,,---,0.01,VWS V14.01,2013-10-30 19:25:00,
2013-10-30 14:26:00,78.5,75.3,29.88,South,169,6.0,14.0,90,0.00,,---,0.01,VWS V14.01,2013-10-30 19:26:00,
2013-10-30 14:27:00,78.4,75.2,29.88,South,171,8.0,14.0,90,0.00,,---,0.01,VWS V14.01,2013-10-30 19:27:00,
2013-10-30 14:28:00,78.6,75.1,29.89,South,182,6.0,10.0,89,0.00,,---,0.01,VWS V14.01,2013-10-30 19:28:00,
2013-10-30 14:29:00,78.4,75.2,29.88,South,180,10.0,15.0,90,0.00,,---,0.01,VWS V14.01,2013-10-30 19:29:00,
2013-10-30 14:30:00,78.4,75.2,29.88,South,171,7.0,15.0,90,0.00,,---,0.01,VWS V14.01,2013-10-30 19:30:00,
2013-10-30 14:31:00,78.3,75.1,29.88,South,182,7.0,14.0,90,0.00,,---,0.01,VWS V14.01,2013-10-30 19:31:00,
2013-10-30 14:32:00,78.3,75.1,29.88,SSE,164,8.0,14.0,90,0.00,,---,0.01,VWS V14.01,2013-10-30 19:32:00,
2013-10-30 14:33:00,78.3,75.5,29.88,SSE,164,7.0,14.0,91,0.00,,---,0.01,VWS V14.01,2013-10-30 19:33:00,
2013-10-30 14:34:00,78.3,75.5,29.88,SSE,165,7.0,14.0,91,0.00,,---,0.01,VWS V14.01,2013-10-30 19:34:00,
2013-10-30 14:35:00,78.3,75.5,29.88,South,180,6.0,14.0,91,0.00,,---,0.01,VWS V14.01,2013-10-30 19:35:00,
2013-10-30 14:36:00,78.3,75.5,29.88,SSE,163,8.0,14.0,91,0.00,,---,0.01,VWS V14.01,2013-10-30 19:36:00,
2013-10-30 14:37:00,78.3,75.5,29.87,South,183,7.0,14.0,91,0.00,,---,0.01,VWS V14.01,2013-10-30 19:37:00,
2013-10-30 14:38:00,78.3,75.5,29.88,South,175,7.0,14.0,91,0.00,,---,0.01,VWS V14.01,2013-10-30 19:38:00,
2013-10-30 14:39:00,78.3,75.5,29.87,South,187,8.0,14.0,91,0.00,,---,0.01,VWS V14.01,2013-10-30 19:39:00,
2013-10-30 14:40:00,78.4,75.6,29.88,South,176,6.0,14.0,91,0.00,,---,0.01,VWS V14.01,2013-10-30 19:40:00,
2013-10-30 14:41:00,78.4,75.6,29.87,SSE,162,8.0,8.0,91,0.00,,---,0.01,VWS V14.01,2013-10-30 19:41:00,
2013-10-30 14:42:00,78.4,75.2,29.87,SSE,156,7.0,12.0,90,0.00,,---,0.01,VWS V14.01,2013-10-30 19:42:00,
2013-10-30 14:43:00,78.4,75.2,29.87,SSE,167,3.0,12.0,90,0.00,,---,0.01,VWS V14.01,2013-10-30 19:43:00,
2013-10-30 14:44:00,78.4,75.2,29.88,SSE,164,9.0,12.0,90,0.00,,---,0.01,VWS V14.01,2013-10-30 19:44:00,
2013-10-30 14:45:00,78.5,75.3,29.88,South,176,6.0,12.0,90,0.00,,---,0.01,VWS V14.01,2013-10-30 19:45:00,
2013-10-30 14:46:00,78.5,75.3,29.87,SSE,162,9.0,12.0,90,0.00,,---,0.01,VWS V14.01,2013-10-30 19:46:00,
2013-10-30 14:47:00,78.5,75.3,29.87,South,172,8.0,12.0,90,0.00,,---,0.01,VWS V14.01,2013-10-30 19:47:00,
2013-10-30 14:48:00,78.6,75.4,29.88,South,182,8.0,14.0,90,0.00,,---,0.01,VWS V14.01,2013-10-30 19:48:00,
2013-10-30 14:49:00,78.5,75.3,29.87,South,187,6.0,14.0,90,0.00,,---,0.01,VWS V14.01,2013-10-30 19:49:00,
2013-10-30 14:50:00,78.6,75.4,29.88,South,180,8.0,14.0,90,0.00,,---,0.01,VWS V14.01,2013-10-30 19:50:00,
2013-10-30 14:51:00,78.6,75.4,29.87,South,190,9.0,11.0,90,0.00,,---,0.01,VWS V14.01,2013-10-30 19:51:00,
2013-10-30 14:52:00,78.7,75.5,29.87,South,174,6.0,13.0,90,0.00,,---,0.01,VWS V14.01,2013-10-30 19:52:00,
2013-10-30 14:53:00,78.7,75.5,29.87,SSW,199,4.0,13.0,90,0.00,,---,0.01,VWS V14.01,2013-10-30 19:53:00,
2013-10-30 14:54:00,78.7,75.5,29.87,South,178,10.0,13.0,90,0.00,,---,0.01,VWS V14.01,2013-10-30 19:54:00,
2013-10-30 14:55:00,78.7,75.5,29.87,South,169,6.0,13.0,90,0.00,,---,0.01,VWS V14.01,2013-10-30 19:55:00,
2013-10-30 14:56:00,78.8,75.6,29.87,SSE,159,5.0,13.0,90,0.00,,---,0.01,VWS V14.01,2013-10-30 19:56:00,
2013-10-30 14:57:00,78.8,75.6,29.87,South,177,8.0,13.0,90,0.00,,---,0.01,VWS V14.01,2013-10-30 19:57:00,
2013-10-30 14:58:00,78.8,75.6,29.87,South,171,9.0,13.0,90,0.00,,---,0.01,VWS V14.01,2013-10-30 19:58:00,
2013-10-30 14:59:00,78.8,75.6,29.88,SSW,193,11.0,13.0,90,0.00,,---,0.01,VWS V14.01,2013-10-30 19:59:00,
2013-10-30 15:00:00,78.8,75.6,29.87,South,174,9.0,13.0,90,0.00,,---,0.01,VWS V14.01,2013-10-30 20:00:00,
2013-10-30 15:01:00,78.9,75.7,29.87,South,175,8.0,11.0,90,0.00,,---,0.01,VWS V14.01,2013-10-30 20:01:00,
2013-10-30 15:02:00,78.4,75.2,29.88,South,182,11.0,15.0,90,0.00,,---,0.01,VWS V14.01,2013-10-30 20:02:00,
2013-10-30 15:03:00,78.4,75.2,29.88,South,182,13.0,14.0,90,0.00,,---,0.01,VWS V14.01,2013-10-30 20:03:00,
2013-10-30 15:04:00,78.9,75.7,29.88,SSE,160,11.0,13.0,90,0.00,,---,0.01,VWS V14.01,2013-10-30 20:04:00,
2013-10-30 15:05:00,78.9,75.7,29.87,South,174,5.0,13.0,90,0.00,,---,0.01,VWS V14.01,2013-10-30 20:05:00,
2013-10-30 15:06:00,78.9,75.7,29.87,South,178,5.0,13.0,90,0.00,,---,0.01,VWS V14.01,2013-10-30 20:06:00,
2013-10-30 15:07:00,78.9,75.7,29.88,South,176,9.0,13.0,90,0.00,,---,0.01,VWS V14.01,2013-10-30 20:07:00,
2013-10-30 15:08:00,78.8,75.6,29.87,South,181,8.0,13.0,90,0.00,,---,0.01,VWS V14.01,2013-10-30 20:08:00,
2013-10-30 15:09:00,78.4,75.2,29.88,South,175,8.0,15.0,90,0.00,,---,0.01,VWS V14.01,2013-10-30 20:09:00,
2013-10-30 15:10:00,78.8,75.6,29.87,South,172,8.0,13.0,90,0.00,,---,0.01,VWS V14.01,2013-10-30 20:10:00,
2013-10-30 15:11:00,78.8,75.6,29.87,SSW,199,11.0,11.0,90,0.00,,---,0.01,VWS V14.01,2013-10-30 20:11:00,
2013-10-30 15:12:00,78.8,75.6,29.87,South,176,10.0,11.0,90,0.00,,---,0.01,VWS V14.01,2013-10-30 20:12:00,
2013-10-30 15:13:00,78.8,75.6,29.87,SSE,162,8.0,11.0,90,0.00,,---,0.01,VWS V14.01,2013-10-30 20:13:00,
2013-10-30 15:14:00,78.7,75.5,29.87,South,175,9.0,11.0,90,0.00,,---,0.01,VWS V14.01,2013-10-30 20:14:00,
2013-10-30 15:15:00,78.7,75.5,29.87,ESE,123,6.0,12.0,90,0.00,,---,0.01,VWS V14.01,2013-10-30 20:15:00,
2013-10-30 15:16:00,78.7,75.5,29.87,South,182,11.0,12.0,90,0.00,,---,0.01,VWS V14.01,2013-10-30 20:16:00,
2013-10-30 15:17:00,78.7,75.5,29.87,SSE,149,5.0,13.0,90,0.00,,---,0.01,VWS V14.01,2013-10-30 20:17:00,
2013-10-30 15:18:00,78.7,75.5,29.87,SSE,158,12.0,13.0,90,0.00,,---,0.01,VWS V14.01,2013-10-30 20:18:00,
2013-10-30 15:19:00,78.7,75.5,29.87,SSE,161,5.0,13.0,90,0.00,,---,0.01,VWS V14.01,2013-10-30 20:19:00,
2013-10-30 15:20:00,78.7,75.5,29.87,South,185,10.0,14.0,90,0.00,,---,0.01,VWS V14.01,2013-10-30 20:20:00,
2013-10-30 15:21:00,78.7,75.5,29.87,SSE,159,9.0,11.0,90,0.00,,---,0.01,VWS V14.01,2013-10-30 20:21:00,
2013-10-30 15:22:00,78.7,75.5,29.87,South,178,7.0,13.0,90,0.00,,---,0.01,VWS V14.01,2013-10-30 20:22:00,
2013-10-30 15:23:00,78.7,75.5,29.87,South,178,7.0,13.0,90,0.00,,---,0.01,VWS V14.01,2013-10-30 20:23:00,
2013-10-30 15:24:00,78.7,75.5,29.87,SSE,150,9.0,13.0,90,0.00,,---,0.01,VWS V14.01,2013-10-30 20:24:00,
2013-10-30 15:25:00,78.7,75.5,29.87,South,169,14.0,14.0,90,0.00,,---,0.01,VWS V14.01,2013-10-30 20:25:00,
2013-10-30 15:26:00,78.7,75.5,29.87,SSE,155,10.0,14.0,90,0.00,,---,0.01,VWS V14.01,2013-10-30 20:26:00,
2013-10-30 15:27:00,78.7,75.9,29.87,SSE,155,12.0,14.0,91,0.00,,---,0.01,VWS V14.01,2013-10-30 20:27:00,
2013-10-30 15:28:00,78.7,75.9,29.87,South,174,8.0,14.0,91,0.00,,---,0.01,VWS V14.01,2013-10-30 20:28:00,
2013-10-30 15:29:00,78.7,75.9,29.87,South,184,8.0,14.0,91,0.00,,---,0.01,VWS V14.01,2013-10-30 20:29:00,
2013-10-30 15:30:00,78.7,75.9,29.87,SSW,195,11.0,14.0,91,0.00,,---,0.01,VWS V14.01,2013-10-30 20:30:00,
2013-10-30 15:31:00,78.7,75.9,29.87,South,172,9.0,11.0,91,0.00,,---,0.01,VWS V14.01,2013-10-30 20:31:00,
2013-10-30 15:32:00,78.7,75.9,29.87,SSE,161,8.0,13.0,91,0.00,,---,0.01,VWS V14.01,2013-10-30 20:32:00,
2013-10-30 15:33:00,78.7,75.9,29.87,South,175,9.0,13.0,91,0.00,,---,0.01,VWS V14.01,2013-10-30 20:33:00,
2013-10-30 15:34:00,78.7,75.9,29.87,SSE,164,11.0,16.0,91,0.00,,---,0.01,VWS V14.01,2013-10-30 20:34:00,
2013-10-30 15:35:00,78.7,75.9,29.87,SE,144,9.0,16.0,91,0.00,,---,0.01,VWS V14.01,2013-10-30 20:35:00,
2013-10-30 15:36:00,78.7,75.9,29.87,SSE,153,7.0,16.0,91,0.00,,---,0.01,VWS V14.01,2013-10-30 20:36:00,
2013-10-30 15:37:00,78.7,75.9,29.87,South,183,10.0,16.0,91,0.00,,---,0.01,VWS V14.01,2013-10-30 20:37:00,
2013-10-30 15:38:00,78.7,75.9,29.87,SSE,153,4.0,16.0,91,0.00,,---,0.01,VWS V14.01,2013-10-30 20:38:00,
2013-10-30 15:39:00,78.7,75.9,29.87,South,170,11.0,16.0,91,0.00,,---,0.01,VWS V14.01,2013-10-30 20:39:00,
2013-10-30 15:40:00,78.7,75.9,29.87,SSE,160,12.0,16.0,91,0.00,,---,0.01,VWS V14.01,2013-10-30 20:40:00,
2013-10-30 15:41:00,78.7,75.9,29.87,South,185,8.0,13.0,91,0.00,,---,0.01,VWS V14.01,2013-10-30 20:41:00,
2013-10-30 15:42:00,78.7,75.9,29.87,SSE,162,4.0,13.0,91,0.00,,---,0.01,VWS V14.01,2013-10-30 20:42:00,
2013-10-30 15:43:00,78.7,75.9,29.87,South,191,9.0,13.0,91,0.00,,---,0.01,VWS V14.01,2013-10-30 20:43:00,
2013-10-30 15:44:00,78.8,75.9,29.86,SSE,161,12.0,13.0,91,0.00,,---,0.01,VWS V14.01,2013-10-30 20:44:00,
2013-10-30 15:45:00,78.7,75.9,29.86,South,184,8.0,13.0,91,0.00,,---,0.01,VWS V14.01,2013-10-30 20:45:00,
2013-10-30 15:46:00,78.8,75.9,29.86,SSE,155,7.0,15.0,91,0.00,,---,0.01,VWS V14.01,2013-10-30 20:46:00,
2013-10-30 15:47:00,78.7,75.9,29.87,South,172,8.0,15.0,91,0.00,,---,0.01,VWS V14.01,2013-10-30 20:47:00,
2013-10-30 15:48:00,78.7,75.9,29.86,South,188,9.0,15.0,91,0.00,,---,0.01,VWS V14.01,2013-10-30 20:48:00,
2013-10-30 15:49:00,78.7,75.9,29.87,South,176,8.0,15.0,91,0.00,,---,0.01,VWS V14.01,2013-10-30 20:49:00,
2013-10-30 15:50:00,78.7,75.9,29.86,SSE,162,8.0,15.0,91,0.00,,---,0.01,VWS V14.01,2013-10-30 20:50:00,
2013-10-30 15:51:00,78.7,75.9,29.86,South,171,5.0,12.0,91,0.00,,---,0.01,VWS V14.01,2013-10-30 20:51:00,
2013-10-30 15:52:00,78.7,75.9,29.86,South,178,6.0,12.0,91,0.00,,---,0.01,VWS V14.01,2013-10-30 20:52:00,
2013-10-30 15:53:00,78.6,75.8,29.86,South,185,7.0,12.0,91,0.00,,---,0.01,VWS V14.01,2013-10-30 20:53:00,
2013-10-30 15:54:00,78.6,75.8,29.86,South,175,7.0,12.0,91,0.00,,---,0.01,VWS V14.01,2013-10-30 20:54:00,
2013-10-30 15:55:00,78.6,75.8,29.86,SSE,167,11.0,12.0,91,0.00,,---,0.01,VWS V14.01,2013-10-30 20:55:00,
2013-10-30 15:56:00,78.7,75.9,29.86,SSE,150,10.0,13.0,91,0.00,,---,0.01,VWS V14.01,2013-10-30 20:56:00,
2013-10-30 15:57:00,78.6,75.8,29.86,SSE,168,8.0,13.0,91,0.00,,---,0.01,VWS V14.01,2013-10-30 20:57:00,
2013-10-30 15:58:00,78.7,75.9,29.86,South,172,9.0,16.0,91,0.00,,---,0.01,VWS V14.01,2013-10-30 20:58:00,
2013-10-30 15:59:00,78.6,75.8,29.86,South,184,11.0,16.0,91,0.00,,---,0.01,VWS V14.01,2013-10-30 20:59:00,
2013-10-30 16:00:00,78.6,75.8,29.87,South,181,9.0,16.0,91,0.00,,---,0.01,VWS V14.01,2013-10-30 21:00:00,
2013-10-30 16:01:00,78.6,75.8,29.86,South,170,9.0,13.0,91,0.00,,---,0.01,VWS V14.01,2013-10-30 21:01:00,
2013-10-30 16:02:00,78.6,75.8,29.86,SSE,159,8.0,14.0,91,0.00,,---,0.01,VWS V14.01,2013-10-30 21:02:00,
2013-10-30 16:03:00,78.6,75.8,29.87,South,174,8.0,14.0,91,0.00,,---,0.01,VWS V14.01,2013-10-30 21:03:00,
2013-10-30 16:04:00,78.6,75.8,29.87,South,173,13.0,14.0,91,0.00,,---,0.01,VWS V14.01,2013-10-30 21:04:00,
2013-10-30 16:05:00,78.6,75.8,29.87,South,177,10.0,14.0,91,0.00,,---,0.01,VWS V14.01,2013-10-30 21:05:00,
2013-10-30 16:06:00,78.7,75.9,29.87,South,170,5.0,14.0,91,0.00,,---,0.01,VWS V14.01,2013-10-30 21:06:00,
2013-10-30 16:07:00,78.7,75.9,29.86,South,173,8.0,14.0,91,0.00,,---,0.01,VWS V14.01,2013-10-30 21:07:00,
2013-10-30 16:08:00,78.7,75.5,29.87,South,188,8.0,14.0,90,0.00,,---,0.01,VWS V14.01,2013-10-30 21:08:00,
2013-10-30 16:09:00,78.7,75.9,29.86,South,175,7.0,14.0,91,0.00,,---,0.01,VWS V14.01,2013-10-30 21:09:00,
2013-10-30 16:10:00,78.7,75.9,29.86,South,174,9.0,14.0,91,0.00,,---,0.01,VWS V14.01,2013-10-30 21:10:00,
2013-10-30 16:11:00,78.7,75.9,29.86,South,174,9.0,10.0,91,0.00,,---,0.01,VWS V14.01,2013-10-30 21:11:00,
2013-10-30 16:12:00,78.7,75.9,29.86,SSE,168,7.0,10.0,91,0.00,,---,0.01,VWS V14.01,2013-10-30 21:12:00,
2013-10-30 16:13:00,78.7,75.9,29.86,South,170,7.0,11.0,91,0.00,,---,0.01,VWS V14.01,2013-10-30 21:13:00,
2013-10-30 16:14:00,78.7,75.9,29.86,SE,145,11.0,13.0,91,0.00,,---,0.01,VWS V14.01,2013-10-30 21:14:00,
2013-10-30 16:15:00,78.7,75.9,29.86,SSE,167,5.0,13.0,91,0.00,,---,0.01,VWS V14.01,2013-10-30 21:15:00,
2013-10-30 16:16:00,78.7,75.9,29.87,South,186,8.0,13.0,91,0.00,,---,0.01,VWS V14.01,2013-10-30 21:16:00,
2013-10-30 16:17:00,78.7,75.9,29.87,South,172,9.0,13.0,91,0.00,,---,0.01,VWS V14.01,2013-10-30 21:17:00,
2013-10-30 16:18:00,78.7,75.9,29.87,South,175,6.0,13.0,91,0.00,,---,0.01,VWS V14.01,2013-10-30 21:18:00,
2013-10-30 16:19:00,78.6,75.8,29.87,SE,139,6.0,13.0,91,0.00,,---,0.01,VWS V14.01,2013-10-30 21:19:00,
2013-10-30 16:20:00,78.7,75.9,29.87,South,179,6.0,13.0,91,0.00,,---,0.01,VWS V14.01,2013-10-30 21:20:00,
2013-10-30 16:21:00,78.6,75.8,29.87,South,179,8.0,10.0,91,0.00,,---,0.01,VWS V14.01,2013-10-30 21:21:00,
2013-10-30 16:22:00,78.6,75.8,29.87,South,171,8.0,10.0,91,0.00,,---,0.01,VWS V14.01,2013-10-30 21:22:00,
2013-10-30 16:23:00,78.6,75.8,29.87,SSW,194,8.0,10.0,91,0.00,,---,0.01,VWS V14.01,2013-10-30 21:23:00,
2013-10-30 16:24:00,78.6,75.8,29.86,South,172,8.0,10.0,91,0.00,,---,0.01,VWS V14.01,2013-10-30 21:24:00,
2013-10-30 16:25:00,78.6,75.8,29.87,South,188,8.0,10.0,91,0.00,,---,0.01,VWS V14.01,2013-10-30 21:25:00,
2013-10-30 16:26:00,78.5,75.7,29.87,South,180,9.0,10.0,91,0.00,,---,0.01,VWS V14.01,2013-10-30 21:26:00,
2013-10-30 16:27:00,78.6,75.8,29.87,South,174,6.0,10.0,91,0.00,,---,0.01,VWS V14.01,2013-10-30 21:27:00,
2013-10-30 16:28:00,78.5,75.7,29.87,South,175,7.0,11.0,91,0.00,,---,0.01,VWS V14.01,2013-10-30 21:28:00,
2013-10-30 16:29:00,78.5,75.7,29.87,South,170,7.0,11.0,91,0.00,,---,0.01,VWS V14.01,2013-10-30 21:29:00,
2013-10-30 16:30:00,78.5,75.7,29.87,South,188,7.0,13.0,91,0.00,,---,0.01,VWS V14.01,2013-10-30 21:30:00,
2013-10-30 16:31:00,78.5,75.7,29.87,South,169,7.0,13.0,91,0.00,,---,0.01,VWS V14.01,2013-10-30 21:31:00,
2013-10-30 16:32:00,78.5,75.7,29.87,South,188,6.0,13.0,91,0.00,,---,0.01,VWS V14.01,2013-10-30 21:32:00,
2013-10-30 16:33:00,78.5,75.7,29.87,South,183,5.0,13.0,91,0.00,,---,0.01,VWS V14.01,2013-10-30 21:33:00,
2013-10-30 16:34:00,78.5,75.7,29.87,South,180,10.0,13.0,91,0.00,,---,0.01,VWS V14.01,2013-10-30 21:34:00,
2013-10-30 16:35:00,78.5,75.7,29.87,South,186,8.0,13.0,91,0.00,,---,0.01,VWS V14.01,2013-10-30 21:35:00,
2013-10-30 16:36:00,78.5,75.7,29.87,South,170,7.0,13.0,91,0.00,,---,0.01,VWS V14.01,2013-10-30 21:36:00,
2013-10-30 16:37:00,78.5,75.7,29.87,South,173,7.0,13.0,91,0.00,,---,0.01,VWS V14.01,2013-10-30 21:37:00,
2013-10-30 16:38:00,78.5,75.7,29.87,South,178,8.0,13.0,91,0.00,,---,0.01,VWS V14.01,2013-10-30 21:38:00,
2013-10-30 16:39:00,78.6,75.8,29.87,South,180,8.0,13.0,91,0.00,,---,0.01,VWS V14.01,2013-10-30 21:39:00,
2013-10-30 16:40:00,78.6,75.8,29.87,South,174,5.0,13.0,91,0.00,,---,0.01,VWS V14.01,2013-10-30 21:40:00,
2013-10-30 16:41:00,78.6,75.8,29.87,South,176,6.0,9.0,91,0.00,,---,0.01,VWS V14.01,2013-10-30 21:41:00,
2013-10-30 16:42:00,78.6,75.8,29.87,South,177,8.0,10.0,91,0.00,,---,0.01,VWS V14.01,2013-10-30 21:42:00,
2013-10-30 16:43:00,78.6,75.8,29.87,South,178,8.0,11.0,91,0.00,,---,0.01,VWS V14.01,2013-10-30 21:43:00,
2013-10-30 16:44:00,78.6,75.8,29.87,South,182,8.0,11.0,91,0.00,,---,0.01,VWS V14.01,2013-10-30 21:44:00,
2013-10-30 16:45:00,78.5,75.7,29.87,South,183,6.0,11.0,91,0.00,,---,0.01,VWS V14.01,2013-10-30 21:45:00,
2013-10-30 16:46:00,78.5,75.7,29.87,SSE,164,7.0,11.0,91,0.00,,---,0.01,VWS V14.01,2013-10-30 21:46:00,
2013-10-30 16:47:00,78.5,75.7,29.87,South,169,5.0,11.0,91,0.00,,---,0.01,VWS V14.01,2013-10-30 21:47:00,
2013-10-30 16:48:00,78.4,75.6,29.87,South,176,5.0,11.0,91,0.00,,---,0.01,VWS V14.01,2013-10-30 21:48:00,
2013-10-30 16:49:00,78.4,75.6,29.87,South,176,7.0,11.0,91,0.00,,---,0.01,VWS V14.01,2013-10-30 21:49:00,
2013-10-30 16:50:00,78.4,75.6,29.86,South,180,5.0,11.0,91,0.00,,---,0.01,VWS V14.01,2013-10-30 21:50:00,
2013-10-30 16:51:00,78.4,75.6,29.87,South,187,5.0,8.0,91,0.00,,---,0.01,VWS V14.01,2013-10-30 21:51:00,
2013-10-30 16:52:00,78.3,75.5,29.87,South,172,3.0,9.0,91,0.00,,---,0.01,VWS V14.01,2013-10-30 21:52:00,
2013-10-30 16:53:00,78.3,75.5,29.87,South,170,8.0,9.0,91,0.00,,---,0.01,VWS V14.01,2013-10-30 21:53:00,
2013-10-30 16:54:00,78.3,75.5,29.87,SSE,157,5.0,9.0,91,0.00,,---,0.01,VWS V14.01,2013-10-30 21:54:00,
2013-10-30 16:55:00,78.3,75.5,29.87,South,170,9.0,9.0,91,0.00,,---,0.01,VWS V14.01,2013-10-30 21:55:00,
2013-10-30 16:56:00,78.3,75.5,29.87,South,172,5.0,9.0,91,0.00,,---,0.01,VWS V14.01,2013-10-30 21:56:00,
2013-10-30 16:57:00,78.3,75.5,29.87,SSE,165,8.0,9.0,91,0.00,,---,0.01,VWS V14.01,2013-10-30 21:57:00,
2013-10-30 16:58:00,78.3,75.5,29.87,South,170,9.0,9.0,91,0.00,,---,0.01,VWS V14.01,2013-10-30 21:58:00,
2013-10-30 16:59:00,78.3,75.5,29.86,South,169,7.0,9.0,91,0.00,,---,0.01,VWS V14.01,2013-10-30 21:59:00,
2013-10-30 17:00:00,78.3,75.5,29.87,South,174,7.0,9.0,91,0.00,,---,0.01,VWS V14.01,2013-10-30 22:00:00,
2013-10-30 17:01:00,78.3,75.5,29.86,South,174,6.0,9.0,91,0.00,,---,0.01,VWS V14.01,2013-10-30 22:01:00,
2013-10-30 17:02:00,78.3,75.5,29.86,SSE,167,7.0,10.0,91,0.00,,---,0.01,VWS V14.01,2013-10-30 22:02:00,
2013-10-30 17:03:00,78.3,75.5,29.87,SSE,150,3.0,13.0,91,0.00,,---,0.01,VWS V14.01,2013-10-30 22:03:00,
2013-10-30 17:04:00,78.3,75.5,29.86,South,178,5.0,13.0,91,0.00,,---,0.01,VWS V14.01,2013-10-30 22:04:00,
2013-10-30 17:05:00,78.4,75.6,29.86,South,176,5.0,13.0,91,0.00,,---,0.01,VWS V14.01,2013-10-30 22:05:00,
2013-10-30 17:06:00,78.4,75.6,29.87,South,170,8.0,13.0,91,0.00,,---,0.01,VWS V14.01,2013-10-30 22:06:00,
2013-10-30 17:07:00,78.4,75.6,29.86,South,170,10.0,13.0,91,0.00,,---,0.01,VWS V14.01,2013-10-30 22:07:00,
2013-10-30 17:08:00,78.5,75.7,29.87,South,177,8.0,10.0,91,0.00,,---,0.01,VWS V14.01,2013-10-30 22:08:00,
2013-10-30 17:09:00,78.4,75.6,29.86,South,170,10.0,13.0,91,0.00,,---,0.01,VWS V14.01,2013-10-30 22:09:00,
2013-10-30 17:10:00,78.4,75.6,29.86,South,170,8.0,13.0,91,0.00,,---,0.01,VWS V14.01,2013-10-30 22:10:00,
2013-10-30 17:11:00,78.4,75.6,29.87,South,182,7.0,10.0,91,0.00,,---,0.01,VWS V14.01,2013-10-30 22:11:00,
2013-10-30 17:12:00,78.4,75.6,29.87,South,172,7.0,10.0,91,0.00,,---,0.01,VWS V14.01,2013-10-30 22:12:00,
2013-10-30 17:13:00,78.4,75.6,29.87,South,180,9.0,10.0,91,0.00,,---,0.01,VWS V14.01,2013-10-30 22:13:00,
2013-10-30 17:14:00,78.4,75.6,29.87,SSE,159,7.0,10.0,91,0.00,,---,0.01,VWS V14.01,2013-10-30 22:14:00,
2013-10-30 17:15:00,78.4,75.6,29.87,South,177,10.0,13.0,91,0.00,,---,0.01,VWS V14.01,2013-10-30 22:15:00,
2013-10-30 17:16:00,78.4,75.6,29.87,South,175,8.0,13.0,91,0.00,,---,0.01,VWS V14.01,2013-10-30 22:16:00,
2013-10-30 17:17:00,78.4,75.9,29.87,South,178,6.0,13.0,92,0.00,,---,0.01,VWS V14.01,2013-10-30 22:17:00,
2013-10-30 17:18:00,78.5,76.0,29.87,South,183,5.0,13.0,92,0.00,,---,0.01,VWS V14.01,2013-10-30 22:18:00,
2013-10-30 17:19:00,78.4,75.9,29.87,South,191,7.0,13.0,92,0.00,,---,0.01,VWS V14.01,2013-10-30 22:19:00,
2013-10-30 17:20:00,78.4,75.9,29.87,SSE,160,10.0,13.0,92,0.00,,---,0.01,VWS V14.01,2013-10-30 22:20:00,
2013-10-30 17:21:00,78.4,75.9,29.87,South,170,7.0,13.0,92,0.00,,---,0.01,VWS V14.01,2013-10-30 22:21:00,
2013-10-30 17:22:00,78.4,75.9,29.87,South,191,8.0,13.0,92,0.00,,---,0.01,VWS V14.01,2013-10-30 22:22:00,
2013-10-30 17:23:00,78.4,75.9,29.87,South,178,5.0,13.0,92,0.00,,---,0.01,VWS V14.01,2013-10-30 22:23:00,
2013-10-30 17:24:00,78.4,75.9,29.87,SSE,155,11.0,13.0,92,0.00,,---,0.01,VWS V14.01,2013-10-30 22:24:00,
2013-10-30 17:25:00,78.4,75.9,29.87,SSE,161,7.0,13.0,92,0.00,,---,0.01,VWS V14.01,2013-10-30 22:25:00,
2013-10-30 17:26:00,78.4,75.9,29.87,South,178,9.0,13.0,92,0.00,,---,0.01,VWS V14.01,2013-10-30 22:26:00,
2013-10-30 17:27:00,78.4,75.9,29.87,South,169,5.0,13.0,92,0.00,,---,0.01,VWS V14.01,2013-10-30 22:27:00,
2013-10-30 17:28:00,78.4,75.9,29.87,SSE,164,8.0,13.0,92,0.00,,---,0.01,VWS V14.01,2013-10-30 22:28:00,
2013-10-30 17:29:00,78.4,75.9,29.87,South,184,10.0,13.0,92,0.00,,---,0.01,VWS V14.01,2013-10-30 22:29:00,
2013-10-30 17:30:00,78.4,75.9,29.87,South,191,5.0,13.0,92,0.00,,---,0.01,VWS V14.01,2013-10-30 22:30:00,
2013-10-30 17:31:00,78.4,75.9,29.87,South,183,9.0,10.0,92,0.00,,---,0.01,VWS V14.01,2013-10-30 22:31:00,
2013-10-30 17:32:00,78.3,75.8,29.87,SE,146,8.0,11.0,92,0.00,,---,0.01,VWS V14.01,2013-10-30 22:32:00,
2013-10-30 17:33:00,78.3,75.8,29.87,South,180,8.0,11.0,92,0.00,,---,0.01,VWS V14.01,2013-10-30 22:33:00,
2013-10-30 17:34:00,78.3,75.8,29.87,South,176,6.0,11.0,92,0.00,,---,0.01,VWS V14.01,2013-10-30 22:34:00,
2013-10-30 17:35:00,78.3,75.8,29.87,South,172,6.0,11.0,92,0.00,,---,0.01,VWS V14.01,2013-10-30 22:35:00,
2013-10-30 17:36:00,78.2,75.7,29.87,SSE,166,9.0,11.0,92,0.00,,---,0.01,VWS V14.01,2013-10-30 22:36:00,
2013-10-30 17:37:00,78.2,75.7,29.87,SSE,164,9.0,13.0,92,0.00,,---,0.01,VWS V14.01,2013-10-30 22:37:00,
2013-10-30 17:38:00,78.2,75.7,29.86,South,184,9.0,13.0,92,0.00,,---,0.01,VWS V14.01,2013-10-30 22:38:00,
2013-10-30 17:39:00,78.2,75.7,29.87,South,180,9.0,13.0,92,0.00,,---,0.01,VWS V14.01,2013-10-30 22:39:00,
2013-10-30 17:40:00,78.2,75.7,29.86,South,178,9.0,13.0,92,0.00,,---,0.01,VWS V14.01,2013-10-30 22:40:00,
2013-10-30 17:41:00,78.3,75.8,29.87,South,169,7.0,13.0,92,0.00,,---,0.01,VWS V14.01,2013-10-30 22:41:00,
2013-10-30 17:42:00,78.2,75.7,29.87,ESE,111,10.0,14.0,92,0.00,,---,0.01,VWS V14.01,2013-10-30 22:42:00,
2013-10-30 17:43:00,78.2,75.7,29.87,South,184,8.0,14.0,92,0.00,,---,0.01,VWS V14.01,2013-10-30 22:43:00,
2013-10-30 17:44:00,78.3,75.8,29.87,SSE,158,8.0,14.0,92,0.00,,---,0.01,VWS V14.01,2013-10-30 22:44:00,
2013-10-30 17:45:00,78.3,75.8,29.87,SSE,153,10.0,14.0,92,0.00,,---,0.01,VWS V14.01,2013-10-30 22:45:00,
2013-10-30 17:46:00,78.3,75.8,29.87,South,174,9.0,14.0,92,0.00,,---,0.01,VWS V14.01,2013-10-30 22:46:00,
2013-10-30 17:47:00,78.3,75.8,29.87,South,172,7.0,14.0,92,0.00,,---,0.01,VWS V14.01,2013-10-30 22:47:00,
2013-10-30 17:48:00,78.3,75.8,29.86,SSE,168,8.0,14.0,92,0.00,,---,0.01,VWS V14.01,2013-10-30 22:48:00,
2013-10-30 17:49:00,78.3,75.8,29.86,SSE,167,4.0,14.0,92,0.00,,---,0.01,VWS V14.01,2013-10-30 22:49:00,
2013-10-30 17:50:00,78.3,75.8,29.86,SSE,155,7.0,14.0,92,0.00,,---,0.01,VWS V14.01,2013-10-30 22:50:00,
2013-10-30 17:51:00,78.3,75.8,29.86,South,178,8.0,13.0,92,0.00,,---,0.01,VWS V14.01,2013-10-30 22:51:00,
2013-10-30 17:52:00,78.3,75.8,29.86,SSE,166,7.0,13.0,92,0.00,,---,0.01,VWS V14.01,2013-10-30 22:52:00,
2013-10-30 17:53:00,78.3,75.8,29.86,SSE,147,3.0,13.0,92,0.00,,---,0.01,VWS V14.01,2013-10-30 22:53:00,
2013-10-30 17:54:00,78.3,75.8,29.86,South,172,8.0,13.0,92,0.00,,---,0.01,VWS V14.01,2013-10-30 22:54:00,
2013-10-30 17:55:00,78.3,75.8,29.86,South,172,5.0,13.0,92,0.00,,---,0.01,VWS V14.01,2013-10-30 22:55:00,
2013-10-30 17:56:00,78.2,75.7,29.86,SSE,164,1.0,13.0,92,0.00,,---,0.01,VWS V14.01,2013-10-30 22:56:00,
2013-10-30 17:57:00,78.2,75.7,29.86,SSE,155,5.0,13.0,92,0.00,,---,0.01,VWS V14.01,2013-10-30 22:57:00,
2013-10-30 17:58:00,78.2,75.7,29.86,South,171,3.0,13.0,92,0.00,,---,0.01,VWS V14.01,2013-10-30 22:58:00,
2013-10-30 17:59:00,78.1,75.6,29.86,SSE,159,3.0,13.0,92,0.00,,---,0.01,VWS V14.01,2013-10-30 22:59:00,
2013-10-30 18:00:00,78.1,75.6,29.86,South,178,5.0,13.0,92,0.00,,---,0.01,VWS V14.01,2013-10-30 23:00:00,
2013-10-30 18:01:00,78.1,75.6,29.86,South,169,5.0,8.0,92,0.00,,---,0.01,VWS V14.01,2013-10-30 23:01:00,
2013-10-30 18:02:00,78.0,75.5,29.87,SSE,160,4.0,8.0,92,0.00,,---,0.01,VWS V14.01,2013-10-30 23:02:00,
2013-10-30 18:03:00,78.4,75.9,29.87,South,174,13.0,13.0,92,0.00,,---,0.01,VWS V14.01,2013-10-30 23:03:00,
2013-10-30 18:04:00,78.0,75.5,29.87,SSE,159,4.0,8.0,92,0.00,,---,0.01,VWS V14.01,2013-10-30 23:04:00,
2013-10-30 18:05:00,77.9,75.7,29.87,SSE,153,5.0,8.0,93,0.00,,---,0.01,VWS V14.01,2013-10-30 23:05:00,
2013-10-30 18:06:00,77.9,75.7,29.87,South,180,6.0,8.0,93,0.00,,---,0.01,VWS V14.01,2013-10-30 23:06:00,
2013-10-30 18:07:00,77.9,75.7,29.87,South,173,8.0,9.0,93,0.00,,---,0.01,VWS V14.01,2013-10-30 23:07:00,
2013-10-30 18:08:00,77.9,75.7,29.87,SSE,157,3.0,13.0,93,0.00,,---,0.01,VWS V14.01,2013-10-30 23:08:00,
2013-10-30 18:09:00,77.9,75.7,29.87,South,186,8.0,13.0,93,0.00,,---,0.01,VWS V14.01,2013-10-30 23:09:00,
2013-10-30 18:10:00,77.9,75.7,29.87,South,173,6.0,13.0,93,0.00,,---,0.01,VWS V14.01,2013-10-30 23:10:00,
2013-10-30 18:11:00,77.9,75.7,29.87,South,177,10.0,11.0,93,0.00,,---,0.01,VWS V14.01,2013-10-30 23:11:00,
2013-10-30 18:12:00,77.9,75.7,29.87,South,176,10.0,11.0,93,0.00,,---,0.01,VWS V14.01,2013-10-30 23:12:00,
2013-10-30 18:13:00,77.9,75.7,29.86,South,173,9.0,11.0,93,0.00,,---,0.01,VWS V14.01,2013-10-30 23:13:00,
2013-10-30 18:14:00,77.9,75.7,29.86,SSE,155,7.0,11.0,93,0.00,,---,0.01,VWS V14.01,2013-10-30 23:14:00,
2013-10-30 18:15:00,77.9,75.7,29.87,SSE,156,8.0,11.0,93,0.00,,---,0.01,VWS V14.01,2013-10-30 23:15:00,
2013-10-30 18:16:00,77.9,75.7,29.87,SSE,166,5.0,11.0,93,0.00,,---,0.01,VWS V14.01,2013-10-30 23:16:00,
2013-10-30 18:17:00,77.9,75.7,29.87,South,170,6.0,11.0,93,0.00,,---,0.01,VWS V14.01,2013-10-30 23:17:00,
2013-10-30 18:18:00,77.9,75.7,29.87,South,169,7.0,11.0,93,0.00,,---,0.01,VWS V14.01,2013-10-30 23:18:00,
2013-10-30 18:19:00,77.9,75.7,29.87,South,176,9.0,11.0,93,0.00,,---,0.01,VWS V14.01,2013-10-30 23:19:00,
2013-10-30 18:20:00,77.9,75.7,29.87,SSE,167,7.0,11.0,93,0.00,,---,0.01,VWS V14.01,2013-10-30 23:20:00,
2013-10-30 18:21:00,77.9,75.7,29.87,SSE,161,7.0,11.0,93,0.00,,---,0.01,VWS V14.01,2013-10-30 23:21:00,
2013-10-30 18:22:00,77.9,75.7,29.87,SSE,166,4.0,11.0,93,0.00,,---,0.01,VWS V14.01,2013-10-30 23:22:00,
2013-10-30 18:23:00,77.9,75.7,29.87,South,184,11.0,11.0,93,0.00,,---,0.01,VWS V14.01,2013-10-30 23:23:00,
2013-10-30 18:24:00,77.9,75.7,29.87,South,175,8.0,13.0,93,0.00,,---,0.01,VWS V14.01,2013-10-30 23:24:00,
2013-10-30 18:25:00,77.9,75.7,29.87,SSE,168,8.0,13.0,93,0.00,,---,0.01,VWS V14.01,2013-10-30 23:25:00,
2013-10-30 18:26:00,77.9,75.7,29.87,South,180,9.0,13.0,93,0.00,,---,0.01,VWS V14.01,2013-10-30 23:26:00,
2013-10-30 18:27:00,77.9,75.7,29.87,SSE,161,7.0,13.0,93,0.00,,---,0.01,VWS V14.01,2013-10-30 23:27:00,
2013-10-30 18:28:00,77.9,75.7,29.87,SSE,164,8.0,13.0,93,0.00,,---,0.01,VWS V14.01,2013-10-30 23:28:00,
2013-10-30 18:29:00,78.0,75.8,29.87,SSE,165,5.0,13.0,93,0.00,,---,0.01,VWS V14.01,2013-10-30 23:29:00,
2013-10-30 18:30:00,78.0,75.5,29.87,SSE,168,7.0,13.0,92,0.00,,---,0.01,VWS V14.01,2013-10-30 23:30:00,
2013-10-30 18:31:00,78.0,75.5,29.87,SSE,148,7.0,12.0,92,0.00,,---,0.01,VWS V14.01,2013-10-30 23:31:00,
2013-10-30 18:32:00,78.0,75.5,29.87,South,177,8.0,13.0,92,0.00,,---,0.01,VWS V14.01,2013-10-30 23:32:00,
2013-10-30 18:33:00,78.1,75.6,29.87,South,170,9.0,13.0,92,0.00,,---,0.01,VWS V14.01,2013-10-30 23:33:00,
2013-10-30 18:34:00,78.1,75.6,29.87,SSE,163,11.0,13.0,92,0.00,,---,0.01,VWS V14.01,2013-10-30 23:34:00,
2013-10-30 18:35:00,78.1,75.6,29.87,South,171,8.0,13.0,92,0.00,,---,0.01,VWS V14.01,2013-10-30 23:35:00,
2013-10-30 18:36:00,78.2,75.7,29.87,SSE,151,11.0,13.0,92,0.00,,---,0.01,VWS V14.01,2013-10-30 23:36:00,
2013-10-30 18:37:00,78.2,75.7,29.87,SSE,164,12.0,15.0,92,0.00,,---,0.01,VWS V14.01,2013-10-30 23:37:00,
2013-10-30 18:38:00,78.2,75.7,29.87,South,174,7.0,15.0,92,0.00,,---,0.01,VWS V14.01,2013-10-30 23:38:00,
2013-10-30 18:39:00,78.2,75.7,29.87,South,170,7.0,15.0,92,0.00,,---,0.01,VWS V14.01,2013-10-30 23:39:00,
2013-10-30 18:40:00,78.2,75.7,29.87,South,174,8.0,15.0,92,0.00,,---,0.01,VWS V14.01,2013-10-30 23:40:00,
2013-10-30 18:41:00,78.2,75.7,29.87,SSE,162,11.0,13.0,92,0.00,,---,0.01,VWS V14.01,2013-10-30 23:41:00,
2013-10-30 18:42:00,78.2,75.7,29.87,SE,143,8.0,13.0,92,0.00,,---,0.01,VWS V14.01,2013-10-30 23:42:00,
2013-10-30 18:43:00,78.2,75.7,29.87,South,169,9.0,13.0,92,0.00,,---,0.01,VWS V14.01,2013-10-30 23:43:00,
2013-10-30 18:44:00,78.2,75.7,29.87,SSE,157,4.0,13.0,92,0.00,,---,0.01,VWS V14.01,2013-10-30 23:44:00,
2013-10-30 18:45:00,78.2,75.7,29.87,South,169,9.0,13.0,92,0.00,,---,0.01,VWS V14.01,2013-10-30 23:45:00,
2013-10-30 18:46:00,78.1,75.6,29.87,SSE,161,7.0,13.0,92,0.00,,---,0.01,VWS V14.01,2013-10-30 23:46:00,
2013-10-30 18:47:00,78.1,75.6,29.87,SSE,166,7.0,13.0,92,0.00,,---,0.01,VWS V14.01,2013-10-30 23:47:00,
2013-10-30 18:48:00,78.1,75.6,29.87,South,169,8.0,13.0,92,0.00,,---,0.01,VWS V14.01,2013-10-30 23:48:00,
2013-10-30 18:49:00,78.1,75.6,29.88,South,177,6.0,13.0,92,0.00,,---,0.01,VWS V14.01,2013-10-30 23:49:00,
2013-10-30 18:50:00,78.1,75.6,29.88,ESE,110,4.0,13.0,92,0.00,,---,0.01,VWS V14.01,2013-10-30 23:50:00,
2013-10-30 18:51:00,78.1,75.6,29.87,South,189,5.0,9.0,92,0.00,,---,0.01,VWS V14.01,2013-10-30 23:51:00,
2013-10-30 18:52:00,78.1,75.6,29.88,South,178,7.0,10.0,92,0.00,,---,0.01,VWS V14.01,2013-10-30 23:52:00,
2013-10-30 18:53:00,78.1,75.6,29.88,SSE,166,9.0,11.0,92,0.00,,---,0.01,VWS V14.01,2013-10-30 23:53:00,
2013-10-30 18:54:00,78.1,75.6,29.88,South,185,7.0,11.0,92,0.00,,---,0.01,VWS V14.01,2013-10-30 23:54:00,
2013-10-30 18:55:00,78.1,75.6,29.88,South,174,5.0,11.0,92,0.00,,---,0.01,VWS V14.01,2013-10-30 23:55:00,
2013-10-30 18:56:00,78.0,75.5,29.88,SSW,193,7.0,11.0,92,0.00,,---,0.01,VWS V14.01,2013-10-30 23:56:00,
2013-10-30 18:57:00,78.0,75.5,29.88,South,172,6.0,11.0,92,0.00,,---,0.01,VWS V14.01,2013-10-30 23:57:00,
2013-10-30 18:58:00,78.0,75.5,29.88,SSE,161,5.0,11.0,92,0.00,,---,0.01,VWS V14.01,2013-10-30 23:58:00,
2013-10-30 18:59:00,78.0,75.5,29.88,SSE,164,7.0,11.0,92,0.00,,---,0.01,VWS V14.01,2013-10-30 23:59:00,
2013-10-30 19:00:00,78.0,75.5,29.88,South,172,7.0,11.0,92,0.00,,---,0.01,VWS V14.01,2013-10-31 00:00:00,
2013-10-30 19:01:00,77.9,75.4,29.88,South,174,7.0,8.0,92,0.00,,---,0.01,VWS V14.01,2013-10-31 00:01:00,
2013-10-30 19:02:00,77.9,75.4,29.88,SSE,161,9.0,9.0,92,0.00,,---,0.01,VWS V14.01,2013-10-31 00:02:00,
2013-10-30 19:03:00,77.9,75.4,29.88,South,172,9.0,10.0,92,0.00,,---,0.01,VWS V14.01,2013-10-31 00:03:00,
2013-10-30 19:04:00,77.9,75.4,29.88,South,179,7.0,10.0,92,0.00,,---,0.01,VWS V14.01,2013-10-31 00:04:00,
2013-10-30 19:05:00,77.9,75.4,29.88,South,170,5.0,10.0,92,0.00,,---,0.01,VWS V14.01,2013-10-31 00:05:00,
2013-10-30 19:06:00,77.9,75.4,29.88,South,178,8.0,10.0,92,0.00,,---,0.01,VWS V14.01,2013-10-31 00:06:00,
2013-10-30 19:07:00,77.9,75.4,29.88,SSE,168,5.0,11.0,92,0.00,,---,0.01,VWS V14.01,2013-10-31 00:07:00,
2013-10-30 19:08:00,77.9,75.4,29.88,SSW,197,9.0,11.0,92,0.00,,---,0.01,VWS V14.01,2013-10-31 00:08:00,
2013-10-30 19:09:00,77.9,75.4,29.88,South,180,2.0,11.0,92,0.00,,---,0.01,VWS V14.01,2013-10-31 00:09:00,
2013-10-30 19:10:00,77.9,75.4,29.88,SSE,159,5.0,11.0,92,0.00,,---,0.01,VWS V14.01,2013-10-31 00:10:00,
2013-10-30 19:11:00,77.9,75.4,29.88,South,184,6.0,10.0,92,0.00,,---,0.01,VWS V14.01,2013-10-31 00:11:00,
2013-10-30 19:12:00,77.9,75.4,29.88,SE,135,9.0,10.0,92,0.00,,---,0.01,VWS V14.01,2013-10-31 00:12:00,
2013-10-30 19:13:00,77.9,75.4,29.88,South,176,6.0,10.0,92,0.00,,---,0.01,VWS V14.01,2013-10-31 00:13:00,
2013-10-30 19:14:00,77.9,75.4,29.88,SSE,152,5.0,10.0,92,0.00,,---,0.01,VWS V14.01,2013-10-31 00:14:00,
2013-10-30 19:15:00,77.9,75.4,29.88,South,186,8.0,11.0,92,0.00,,---,0.01,VWS V14.01,2013-10-31 00:15:00,
2013-10-30 19:16:00,77.9,75.4,29.88,SSE,166,11.0,11.0,92,0.00,,---,0.01,VWS V14.01,2013-10-31 00:16:00,
2013-10-30 19:17:00,77.9,75.4,29.88,South,178,8.0,11.0,92,0.00,,---,0.01,VWS V14.01,2013-10-31 00:17:00,
2013-10-30 19:18:00,77.9,75.4,29.88,SSE,165,7.0,11.0,92,0.00,,---,0.01,VWS V14.01,2013-10-31 00:18:00,
2013-10-30 19:19:00,77.9,75.4,29.88,SSE,168,8.0,11.0,92,0.00,,---,0.01,VWS V14.01,2013-10-31 00:19:00,
2013-10-30 19:20:00,77.9,75.4,29.88,SSE,150,10.0,11.0,92,0.00,,---,0.01,VWS V14.01,2013-10-31 00:20:00,
2013-10-30 19:21:00,78.0,75.5,29.88,SSE,161,10.0,11.0,92,0.00,,---,0.01,VWS V14.01,2013-10-31 00:21:00,
2013-10-30 19:22:00,78.0,75.5,29.88,SSE,161,8.0,11.0,92,0.00,,---,0.01,VWS V14.01,2013-10-31 00:22:00,
2013-10-30 19:23:00,77.9,75.4,29.88,South,177,10.0,11.0,92,0.00,,---,0.01,VWS V14.01,2013-10-31 00:23:00,
2013-10-30 19:24:00,78.0,75.5,29.88,South,169,6.0,11.0,92,0.00,,---,0.01,VWS V14.01,2013-10-31 00:24:00,
2013-10-30 19:25:00,78.0,75.5,29.88,South,175,9.0,11.0,92,0.00,,---,0.01,VWS V14.01,2013-10-31 00:25:00,
2013-10-30 19:26:00,78.0,75.5,29.88,SSE,152,8.0,12.0,92,0.00,,---,0.01,VWS V14.01,2013-10-31 00:26:00,
2013-10-30 19:27:00,78.0,75.5,29.88,SSE,159,7.0,12.0,92,0.00,,---,0.01,VWS V14.01,2013-10-31 00:27:00,
2013-10-30 19:28:00,78.0,75.5,29.88,SSE,152,8.0,12.0,92,0.00,,---,0.01,VWS V14.01,2013-10-31 00:28:00,
2013-10-30 19:29:00,78.0,75.5,29.88,SSE,164,5.0,12.0,92,0.00,,---,0.01,VWS V14.01,2013-10-31 00:29:00,
2013-10-30 19:30:00,78.0,75.5,29.88,South,171,7.0,12.0,92,0.00,,---,0.01,VWS V14.01,2013-10-31 00:30:00,
2013-10-30 19:31:00,78.0,75.5,29.88,South,184,5.0,11.0,92,0.00,,---,0.01,VWS V14.01,2013-10-31 00:31:00,
2013-10-30 19:32:00,78.0,75.5,29.88,South,173,7.0,11.0,92,0.00,,---,0.01,VWS V14.01,2013-10-31 00:32:00,
2013-10-30 19:33:00,78.0,75.5,29.88,South,187,5.0,11.0,92,0.00,,---,0.01,VWS V14.01,2013-10-31 00:33:00,
2013-10-30 19:34:00,78.0,75.5,29.88,South,186,8.0,11.0,92,0.00,,---,0.01,VWS V14.01,2013-10-31 00:34:00,
2013-10-30 19:35:00,78.0,75.5,29.88,South,174,8.0,11.0,92,0.00,,---,0.01,VWS V14.01,2013-10-31 00:35:00,
2013-10-30 19:36:00,78.0,75.5,29.88,SSE,168,7.0,11.0,92,0.00,,---,0.01,VWS V14.01,2013-10-31 00:36:00,
2013-10-30 19:37:00,78.0,75.5,29.89,South,169,7.0,11.0,92,0.00,,---,0.01,VWS V14.01,2013-10-31 00:37:00,
2013-10-30 19:38:00,78.0,75.5,29.88,South,180,8.0,11.0,92,0.00,,---,0.01,VWS V14.01,2013-10-31 00:38:00,
2013-10-30 19:39:00,78.0,75.5,29.89,SSE,166,7.0,11.0,92,0.00,,---,0.01,VWS V14.01,2013-10-31 00:39:00,
2013-10-30 19:40:00,78.0,75.5,29.89,South,172,6.0,11.0,92,0.00,,---,0.01,VWS V14.01,2013-10-31 00:40:00,
2013-10-30 19:41:00,77.9,75.4,29.89,SSE,168,5.0,10.0,92,0.00,,---,0.01,VWS V14.01,2013-10-31 00:41:00,
2013-10-30 19:42:00,77.9,75.4,29.89,South,178,5.0,10.0,92,0.00,,---,0.01,VWS V14.01,2013-10-31 00:42:00,
2013-10-30 19:43:00,77.9,75.4,29.89,SSE,166,8.0,10.0,92,0.00,,---,0.01,VWS V14.01,2013-10-31 00:43:00,
2013-10-30 19:44:00,77.9,75.4,29.89,South,173,7.0,10.0,92,0.00,,---,0.01,VWS V14.01,2013-10-31 00:44:00,
2013-10-30 19:45:00,77.9,75.4,29.89,South,178,6.0,10.0,92,0.00,,---,0.01,VWS V14.01,2013-10-31 00:45:00,
2013-10-30 19:46:00,77.9,75.4,29.89,South,174,3.0,10.0,92,0.00,,---,0.01,VWS V14.01,2013-10-31 00:46:00,
2013-10-30 19:47:00,77.9,75.4,29.89,South,172,6.0,10.0,92,0.00,,---,0.01,VWS V14.01,2013-10-31 00:47:00,
2013-10-30 19:48:00,77.9,75.4,29.89,South,174,6.0,10.0,92,0.00,,---,0.01,VWS V14.01,2013-10-31 00:48:00,
2013-10-30 19:49:00,77.9,75.4,29.89,South,177,5.0,10.0,92,0.00,,---,0.01,VWS V14.01,2013-10-31 00:49:00,
2013-10-30 19:50:00,77.8,75.3,29.89,South,179,3.0,10.0,92,0.00,,---,0.01,VWS V14.01,2013-10-31 00:50:00,
2013-10-30 19:51:00,77.8,75.3,29.89,SSE,168,4.0,8.0,92,0.00,,---,0.01,VWS V14.01,2013-10-31 00:51:00,
2013-10-30 19:52:00,77.8,75.3,29.88,South,172,7.0,8.0,92,0.00,,---,0.01,VWS V14.01,2013-10-31 00:52:00,
2013-10-30 19:53:00,77.8,75.3,29.89,South,178,8.0,8.0,92,0.00,,---,0.01,VWS V14.01,2013-10-31 00:53:00,
2013-10-30 19:54:00,77.8,75.6,29.89,South,171,5.0,8.0,93,0.00,,---,0.01,VWS V14.01,2013-10-31 00:54:00,
2013-10-30 19:55:00,77.8,75.6,29.88,South,180,5.0,8.0,93,0.00,,---,0.01,VWS V14.01,2013-10-31 00:55:00,
2013-10-30 19:56:00,77.8,75.6,29.89,South,171,7.0,8.0,93,0.00,,---,0.01,VWS V14.01,2013-10-31 00:56:00,
2013-10-30 19:57:00,77.8,75.6,29.88,South,176,6.0,8.0,93,0.00,,---,0.01,VWS V14.01,2013-10-31 00:57:00,
2013-10-30 19:58:00,77.8,75.6,29.88,South,176,3.0,8.0,93,0.00,,---,0.01,VWS V14.01,2013-10-31 00:58:00,
2013-10-30 19:59:00,77.8,75.6,29.88,South,178,5.0,8.0,93,0.00,,---,0.01,VWS V14.01,2013-10-31 00:59:00,
2013-10-30 20:00:00,77.8,75.6,29.88,South,179,7.0,9.0,93,0.00,,---,0.01,VWS V14.01,2013-10-31 01:00:00,
2013-10-30 20:01:00,77.8,75.6,29.88,South,186,7.0,7.0,93,0.00,,---,0.01,VWS V14.01,2013-10-31 01:01:00,
2013-10-30 20:02:00,77.8,75.6,29.88,South,174,7.0,8.0,93,0.00,,---,0.01,VWS V14.01,2013-10-31 01:02:00,
2013-10-30 20:03:00,77.8,75.6,29.88,South,176,6.0,9.0,93,0.00,,---,0.01,VWS V14.01,2013-10-31 01:03:00,
2013-10-30 20:04:00,77.8,75.6,29.89,South,177,7.0,9.0,93,0.00,,---,0.01,VWS V14.01,2013-10-31 01:04:00,
2013-10-30 20:05:00,77.8,75.6,29.89,South,176,7.0,9.0,93,0.00,,---,0.01,VWS V14.01,2013-10-31 01:05:00,
2013-10-30 20:06:00,77.8,75.6,29.89,South,174,8.0,9.0,93,0.00,,---,0.01,VWS V14.01,2013-10-31 01:06:00,
2013-10-30 20:07:00,77.8,75.6,29.89,South,179,7.0,9.0,93,0.00,,---,0.01,VWS V14.01,2013-10-31 01:07:00,
2013-10-30 20:08:00,77.8,75.6,29.89,South,175,7.0,9.0,93,0.00,,---,0.01,VWS V14.01,2013-10-31 01:08:00,
2013-10-30 20:09:00,77.8,75.6,29.89,South,178,6.0,9.0,93,0.00,,---,0.01,VWS V14.01,2013-10-31 01:09:00,
2013-10-30 20:10:00,77.8,75.6,29.89,South,176,6.0,9.0,93,0.00,,---,0.01,VWS V14.01,2013-10-31 01:10:00,
2013-10-30 20:11:00,77.8,75.6,29.89,South,174,3.0,9.0,93,0.00,,---,0.01,VWS V14.01,2013-10-31 01:11:00,
2013-10-30 20:12:00,77.8,75.6,29.89,South,178,5.0,9.0,93,0.00,,---,0.01,VWS V14.01,2013-10-31 01:12:00,
2013-10-30 20:13:00,77.8,75.6,29.89,South,171,6.0,9.0,93,0.00,,---,0.01,VWS V14.01,2013-10-31 01:13:00,
2013-10-30 20:14:00,77.8,75.6,29.89,South,184,6.0,9.0,93,0.00,,---,0.01,VWS V14.01,2013-10-31 01:14:00,
2013-10-30 20:15:00,77.8,75.6,29.89,South,176,7.0,9.0,93,0.00,,---,0.01,VWS V14.01,2013-10-31 01:15:00,
2013-10-30 20:16:00,77.8,75.6,29.89,South,177,5.0,9.0,93,0.00,,---,0.01,VWS V14.01,2013-10-31 01:16:00,
2013-10-30 20:17:00,77.8,75.6,29.89,South,174,6.0,9.0,93,0.00,,---,0.01,VWS V14.01,2013-10-31 01:17:00,
2013-10-30 20:18:00,77.8,75.6,29.89,South,180,8.0,9.0,93,0.00,,---,0.01,VWS V14.01,2013-10-31 01:18:00,
2013-10-30 20:19:00,77.8,75.6,29.89,South,178,7.0,9.0,93,0.00,,---,0.01,VWS V14.01,2013-10-31 01:19:00,
2013-10-30 20:20:00,77.8,75.6,29.89,South,176,7.0,9.0,93,0.00,,---,0.01,VWS V14.01,2013-10-31 01:20:00,
2013-10-30 20:21:00,77.8,75.6,29.89,South,169,6.0,8.0,93,0.00,,---,0.01,VWS V14.01,2013-10-31 01:21:00,
2013-10-30 20:22:00,77.8,75.6,29.89,South,178,5.0,8.0,93,0.00,,---,0.01,VWS V14.01,2013-10-31 01:22:00,
2013-10-30 20:23:00,77.8,75.6,29.89,SSE,159,5.0,8.0,93,0.00,,---,0.01,VWS V14.01,2013-10-31 01:23:00,
2013-10-30 20:24:00,77.8,75.6,29.89,South,175,5.0,8.0,93,0.00,,---,0.01,VWS V14.01,2013-10-31 01:24:00,
2013-10-30 20:25:00,77.8,75.6,29.89,South,178,3.0,8.0,93,0.00,,---,0.01,VWS V14.01,2013-10-31 01:25:00,
2013-10-30 20:26:00,77.7,75.5,29.89,South,176,8.0,9.0,93,0.00,,---,0.01,VWS V14.01,2013-10-31 01:26:00,
2013-10-30 20:27:00,77.7,75.5,29.89,South,172,6.0,9.0,93,0.00,,---,0.01,VWS V14.01,2013-10-31 01:27:00,
2013-10-30 20:28:00,77.7,75.5,29.88,South,177,7.0,9.0,93,0.00,,---,0.01,VWS V14.01,2013-10-31 01:28:00,
2013-10-30 20:29:00,77.7,75.5,29.88,South,177,3.0,9.0,93,0.00,,---,0.01,VWS V14.01,2013-10-31 01:29:00,
2013-10-30 20:30:00,77.7,75.5,29.88,South,180,6.0,9.0,93,0.00,,---,0.01,VWS V14.01,2013-10-31 01:30:00,
2013-10-30 20:31:00,77.7,75.5,29.88,South,178,6.0,8.0,93,0.00,,---,0.01,VWS V14.01,2013-10-31 01:31:00,
2013-10-30 20:32:00,77.7,75.5,29.88,SSE,168,7.0,9.0,93,0.00,,---,0.01,VWS V14.01,2013-10-31 01:32:00,
2013-10-30 20:33:00,77.7,75.5,29.88,South,183,6.0,9.0,93,0.00,,---,0.01,VWS V14.01,2013-10-31 01:33:00,
2013-10-30 20:34:00,77.8,75.6,29.89,South,172,7.0,9.0,93,0.00,,---,0.01,VWS V14.01,2013-10-31 01:34:00,
2013-10-30 20:35:00,77.7,75.5,29.88,South,182,7.0,9.0,93,0.00,,---,0.01,VWS V14.01,2013-10-31 01:35:00,
2013-10-30 20:36:00,77.7,75.5,29.88,South,176,6.0,9.0,93,0.00,,---,0.01,VWS V14.01,2013-10-31 01:36:00,
2013-10-30 20:37:00,77.7,75.5,29.89,South,178,9.0,9.0,93,0.00,,---,0.01,VWS V14.01,2013-10-31 01:37:00,
2013-10-30 20:38:00,77.7,75.5,29.88,South,170,7.0,9.0,93,0.00,,---,0.01,VWS V14.01,2013-10-31 01:38:00,
2013-10-30 20:39:00,77.7,75.5,29.88,South,186,6.0,9.0,93,0.00,,---,0.01,VWS V14.01,2013-10-31 01:39:00,
2013-10-30 20:40:00,77.7,75.5,29.88,South,176,6.0,9.0,93,0.00,,---,0.01,VWS V14.01,2013-10-31 01:40:00,
2013-10-30 20:41:00,77.7,75.5,29.89,South,181,6.0,8.0,93,0.00,,---,0.01,VWS V14.01,2013-10-31 01:41:00,
2013-10-30 20:42:00,77.7,75.5,29.89,SSE,161,8.0,8.0,93,0.00,,---,0.01,VWS V14.01,2013-10-31 01:42:00,
2013-10-30 20:43:00,77.7,75.5,29.88,South,172,5.0,8.0,93,0.00,,---,0.01,VWS V14.01,2013-10-31 01:43:00,
2013-10-30 20:44:00,77.7,75.5,29.88,South,174,8.0,9.0,93,0.00,,---,0.01,VWS V14.01,2013-10-31 01:44:00,
2013-10-30 20:45:00,77.7,75.5,29.89,South,171,7.0,9.0,93,0.00,,---,0.01,VWS V14.01,2013-10-31 01:45:00,
2013-10-30 20:46:00,77.7,75.5,29.89,South,178,6.0,9.0,93,0.00,,---,0.01,VWS V14.01,2013-10-31 01:46:00,
2013-10-30 20:47:00,77.7,75.5,29.89,SSE,158,5.0,9.0,93,0.00,,---,0.01,VWS V14.01,2013-10-31 01:47:00,
2013-10-30 20:48:00,77.7,75.5,29.88,SSE,149,8.0,9.0,93,0.00,,---,0.01,VWS V14.01,2013-10-31 01:48:00,
2013-10-30 20:49:00,77.7,75.5,29.88,South,174,6.0,9.0,93,0.00,,---,0.01,VWS V14.01,2013-10-31 01:49:00,
2013-10-30 20:50:00,77.7,75.5,29.89,South,177,7.0,9.0,93,0.00,,---,0.01,VWS V14.01,2013-10-31 01:50:00,
2013-10-30 20:51:00,77.7,75.5,29.89,SSE,167,8.0,9.0,93,0.00,,---,0.01,VWS V14.01,2013-10-31 01:51:00,
2013-10-30 20:52:00,77.8,75.6,29.88,South,171,3.0,9.0,93,0.00,,---,0.01,VWS V14.01,2013-10-31 01:52:00,
2013-10-30 20:53:00,77.8,75.6,29.88,South,188,6.0,9.0,93,0.00,,---,0.01,VWS V14.01,2013-10-31 01:53:00,
2013-10-30 20:54:00,77.8,75.6,29.88,SSE,159,5.0,9.0,93,0.00,,---,0.01,VWS V14.01,2013-10-31 01:54:00,
2013-10-30 20:55:00,77.8,75.6,29.88,South,185,6.0,10.0,93,0.00,,---,0.01,VWS V14.01,2013-10-31 01:55:00,
2013-10-30 20:56:00,77.8,75.6,29.88,South,174,6.0,10.0,93,0.00,,---,0.01,VWS V14.01,2013-10-31 01:56:00,
2013-10-30 20:57:00,77.8,75.6,29.88,South,184,7.0,10.0,93,0.00,,---,0.01,VWS V14.01,2013-10-31 01:57:00,
2013-10-30 20:58:00,77.8,75.6,29.88,South,178,6.0,10.0,93,0.00,,---,0.01,VWS V14.01,2013-10-31 01:58:00,
2013-10-30 20:59:00,77.8,75.6,29.88,South,169,7.0,10.0,93,0.00,,---,0.01,VWS V14.01,2013-10-31 01:59:00,
2013-10-30 21:00:00,77.8,75.6,29.88,South,176,5.0,10.0,93,0.00,,---,0.01,VWS V14.01,2013-10-31 02:00:00,
2013-10-30 21:01:00,77.8,75.6,29.88,South,179,5.0,11.0,93,0.00,,---,0.01,VWS V14.01,2013-10-31 02:01:00,
2013-10-30 21:02:00,77.8,75.6,29.88,South,184,5.0,11.0,93,0.00,,---,0.01,VWS V14.01,2013-10-31 02:02:00,
2013-10-30 21:03:00,77.8,75.6,29.89,SSE,158,8.0,8.0,93,0.00,,---,0.01,VWS V14.01,2013-10-31 02:03:00,
2013-10-30 21:04:00,77.8,75.6,29.88,South,174,7.0,11.0,93,0.00,,---,0.01,VWS V14.01,2013-10-31 02:04:00,
2013-10-30 21:05:00,77.8,75.6,29.88,South,178,5.0,11.0,93,0.00,,---,0.01,VWS V14.01,2013-10-31 02:05:00,
2013-10-30 21:06:00,77.8,75.6,29.88,South,180,7.0,11.0,93,0.00,,---,0.01,VWS V14.01,2013-10-31 02:06:00,
2013-10-30 21:07:00,77.8,75.6,29.88,South,180,7.0,11.0,93,0.00,,---,0.01,VWS V14.01,2013-10-31 02:07:00,
2013-10-30 21:08:00,77.8,75.6,29.88,South,179,6.0,11.0,93,0.00,,---,0.01,VWS V14.01,2013-10-31 02:08:00,
2013-10-30 21:09:00,77.8,75.6,29.88,SSE,158,4.0,11.0,93,0.00,,---,0.01,VWS V14.01,2013-10-31 02:09:00,
2013-10-30 21:10:00,77.8,75.6,29.88,SSE,168,5.0,11.0,93,0.00,,---,0.01,VWS V14.01,2013-10-31 02:10:00,
2013-10-30 21:11:00,77.8,75.6,29.87,SSW,197,7.0,9.0,93,0.00,,---,0.01,VWS V14.01,2013-10-31 02:11:00,
2013-10-30 21:12:00,77.8,75.6,29.87,South,169,7.0,9.0,93,0.00,,---,0.01,VWS V14.01,2013-10-31 02:12:00,
2013-10-30 21:13:00,77.8,75.6,29.87,South,169,6.0,9.0,93,0.00,,---,0.01,VWS V14.01,2013-10-31 02:13:00,
2013-10-30 21:14:00,77.8,75.6,29.87,South,180,6.0,9.0,93,0.00,,---,0.01,VWS V14.01,2013-10-31 02:14:00,
2013-10-30 21:15:00,77.8,75.6,29.87,South,181,8.0,9.0,93,0.00,,---,0.01,VWS V14.01,2013-10-31 02:15:00,
2013-10-30 21:16:00,77.8,75.6,29.87,SSE,163,8.0,9.0,93,0.00,,---,0.01,VWS V14.01,2013-10-31 02:16:00,
2013-10-30 21:17:00,77.8,75.6,29.87,South,181,6.0,9.0,93,0.00,,---,0.01,VWS V14.01,2013-10-31 02:17:00,
2013-10-30 21:18:00,77.8,75.6,29.87,South,182,5.0,11.0,93,0.00,,---,0.01,VWS V14.01,2013-10-31 02:18:00,
2013-10-30 21:19:00,77.8,75.6,29.87,South,180,8.0,11.0,93,0.00,,---,0.01,VWS V14.01,2013-10-31 02:19:00,
2013-10-30 21:20:00,77.8,75.6,29.87,South,185,10.0,11.0,93,0.00,,---,0.01,VWS V14.01,2013-10-31 02:20:00,
2013-10-30 21:21:00,77.8,75.6,29.87,South,189,7.0,9.0,93,0.00,,---,0.01,VWS V14.01,2013-10-31 02:21:00,
2013-10-30 21:22:00,77.8,75.6,29.87,SSE,168,5.0,9.0,93,0.00,,---,0.01,VWS V14.01,2013-10-31 02:22:00,
2013-10-30 21:23:00,77.8,75.6,29.87,SSE,162,5.0,10.0,93,0.00,,---,0.01,VWS V14.01,2013-10-31 02:23:00,
2013-10-30 21:24:00,77.8,75.6,29.87,SSE,168,8.0,11.0,93,0.00,,---,0.01,VWS V14.01,2013-10-31 02:24:00,
2013-10-30 21:25:00,77.8,75.6,29.87,South,191,8.0,11.0,93,0.00,,---,0.01,VWS V14.01,2013-10-31 02:25:00,
2013-10-30 21:26:00,77.8,75.6,29.87,SSE,166,7.0,11.0,93,0.00,,---,0.01,VWS V14.01,2013-10-31 02:26:00,
2013-10-30 21:27:00,77.8,75.6,29.87,South,181,6.0,11.0,93,0.00,,---,0.01,VWS V14.01,2013-10-31 02:27:00,
2013-10-30 21:28:00,77.8,75.6,29.87,South,176,7.0,11.0,93,0.00,,---,0.01,VWS V14.01,2013-10-31 02:28:00,
2013-10-30 21:29:00,77.8,75.6,29.87,South,184,5.0,11.0,93,0.00,,---,0.01,VWS V14.01,2013-10-31 02:29:00,
2013-10-30 21:30:00,77.8,75.6,29.87,South,178,6.0,11.0,93,0.00,,---,0.01,VWS V14.01,2013-10-31 02:30:00,
2013-10-30 21:35:00,77.9,75.7,29.86,South,175,9.0,9.0,93,0.00,,---,0.01,VWS V14.01,2013-10-31 02:35:00,
2013-10-30 21:36:00,77.9,75.7,29.86,South,190,11.0,11.0,93,0.00,,---,0.01,VWS V14.01,2013-10-31 02:36:00,
2013-10-30 21:37:00,78.0,75.8,29.86,South,184,6.0,11.0,93,0.00,,---,0.01,VWS V14.01,2013-10-31 02:37:00,
2013-10-30 21:38:00,78.0,75.8,29.86,South,172,6.0,11.0,93,0.00,,---,0.01,VWS V14.01,2013-10-31 02:38:00,
2013-10-30 21:39:00,78.0,75.8,29.86,South,182,7.0,11.0,93,0.00,,---,0.01,VWS V14.01,2013-10-31 02:39:00,
2013-10-30 21:40:00,77.9,75.7,29.86,SSE,168,7.0,11.0,93,0.00,,---,0.01,VWS V14.01,2013-10-31 02:40:00,
2013-10-30 21:41:00,78.0,75.8,29.86,SSE,166,9.0,11.0,93,0.00,,---,0.01,VWS V14.01,2013-10-31 02:41:00,
2013-10-30 21:42:00,77.9,75.7,29.86,South,174,8.0,11.0,93,0.00,,---,0.01,VWS V14.01,2013-10-31 02:42:00,
2013-10-30 21:43:00,77.9,75.7,29.86,South,182,7.0,11.0,93,0.00,,---,0.01,VWS V14.01,2013-10-31 02:43:00,
2013-10-30 21:44:00,77.9,75.7,29.86,South,183,8.0,11.0,93,0.00,,---,0.01,VWS V14.01,2013-10-31 02:44:00,
2013-10-30 21:45:00,77.9,75.7,29.86,South,175,8.0,11.0,93,0.00,,---,0.01,VWS V14.01,2013-10-31 02:45:00,
2013-10-30 21:46:00,77.9,75.7,29.86,South,178,7.0,11.0,93,0.00,,---,0.01,VWS V14.01,2013-10-31 02:46:00,
2013-10-30 21:47:00,77.9,75.7,29.86,SSW,192,9.0,11.0,93,0.00,,---,0.01,VWS V14.01,2013-10-31 02:47:00,
2013-10-30 21:48:00,77.9,75.7,29.86,South,178,8.0,11.0,93,0.00,,---,0.01,VWS V14.01,2013-10-31 02:48:00,
2013-10-30 21:49:00,77.9,75.7,29.86,South,178,6.0,11.0,93,0.00,,---,0.01,VWS V14.01,2013-10-31 02:49:00,
2013-10-30 21:50:00,77.8,75.6,29.86,SSE,167,9.0,11.0,93,0.00,,---,0.01,VWS V14.01,2013-10-31 02:50:00,
2013-10-30 21:51:00,77.8,75.6,29.86,SSE,166,7.0,9.0,93,0.00,,---,0.01,VWS V14.01,2013-10-31 02:51:00,
2013-10-30 21:52:00,77.9,75.7,29.85,South,184,11.0,11.0,93,0.00,,---,0.01,VWS V14.01,2013-10-31 02:52:00,
2013-10-30 21:53:00,77.9,75.7,29.86,South,176,7.0,11.0,93,0.00,,---,0.01,VWS V14.01,2013-10-31 02:53:00,
2013-10-30 21:54:00,77.8,75.6,29.86,South,173,14.0,14.0,93,0.00,,---,0.01,VWS V14.01,2013-10-31 02:54:00,
2013-10-30 21:55:00,77.8,75.6,29.85,South,176,7.0,14.0,93,0.00,,---,0.01,VWS V14.01,2013-10-31 02:55:00,
2013-10-30 21:56:00,77.9,75.7,29.85,SSE,167,4.0,14.0,93,0.00,,---,0.01,VWS V14.01,2013-10-31 02:56:00,
2013-10-30 21:57:00,77.9,75.7,29.85,SSE,166,10.0,14.0,93,0.00,,---,0.01,VWS V14.01,2013-10-31 02:57:00,
2013-10-30 21:58:00,77.9,75.7,29.85,South,178,10.0,14.0,93,0.00,,---,0.01,VWS V14.01,2013-10-31 02:58:00,
2013-10-30 21:59:00,77.9,75.7,29.85,South,189,9.0,14.0,93,0.00,,---,0.01,VWS V14.01,2013-10-31 02:59:00,
2013-10-30 22:00:00,77.9,75.7,29.85,South,176,10.0,14.0,93,0.00,,---,0.01,VWS V14.01,2013-10-31 03:00:00,
2013-10-30 22:01:00,77.9,75.7,29.85,South,178,10.0,13.0,93,0.00,,---,0.01,VWS V14.01,2013-10-31 03:01:00,
2013-10-30 22:02:00,77.9,75.7,29.85,South,170,6.0,13.0,93,0.00,,---,0.01,VWS V14.01,2013-10-31 03:02:00,
2013-10-30 22:03:00,77.9,75.7,29.85,SSE,165,8.0,13.0,93,0.00,,---,0.01,VWS V14.01,2013-10-31 03:03:00,
2013-10-30 22:04:00,77.9,75.7,29.85,South,181,8.0,13.0,93,0.00,,---,0.01,VWS V14.01,2013-10-31 03:04:00,
2013-10-30 22:05:00,77.9,75.7,29.85,South,171,8.0,13.0,93,0.00,,---,0.01,VWS V14.01,2013-10-31 03:05:00,
2013-10-30 22:06:00,77.9,75.7,29.85,South,177,6.0,13.0,93,0.00,,---,0.01,VWS V14.01,2013-10-31 03:06:00,
2013-10-30 22:07:00,77.9,75.7,29.85,South,175,10.0,13.0,93,0.00,,---,0.01,VWS V14.01,2013-10-31 03:07:00,
2013-10-30 22:08:00,77.9,75.7,29.85,SSE,168,11.0,13.0,93,0.00,,---,0.01,VWS V14.01,2013-10-31 03:08:00,
2013-10-30 22:09:00,78.0,75.8,29.85,SSE,165,9.0,13.0,93,0.00,,---,0.01,VWS V14.01,2013-10-31 03:09:00,
2013-10-30 22:10:00,77.9,75.7,29.86,SSE,162,7.0,13.0,93,0.00,,---,0.01,VWS V14.01,2013-10-31 03:10:00,
2013-10-30 22:11:00,78.0,75.8,29.86,SSE,165,9.0,13.0,93,0.00,,---,0.01,VWS V14.01,2013-10-31 03:11:00,
2013-10-30 22:12:00,78.0,75.8,29.86,SE,145,6.0,13.0,93,0.00,,---,0.01,VWS V14.01,2013-10-31 03:12:00,
2013-10-30 22:13:00,78.0,75.8,29.86,South,183,8.0,14.0,93,0.00,,---,0.01,VWS V14.01,2013-10-31 03:13:00,
2013-10-30 22:14:00,77.8,75.6,29.87,South,181,6.0,11.0,93,0.00,,---,0.01,VWS V14.01,2013-10-31 03:14:00,
2013-10-30 22:15:00,78.0,75.8,29.86,SSE,150,8.0,14.0,93,0.00,,---,0.01,VWS V14.01,2013-10-31 03:15:00,
2013-10-30 22:16:00,77.8,75.6,29.87,South,181,6.0,11.0,93,0.00,,---,0.01,VWS V14.01,2013-10-31 03:16:00,
2013-10-30 22:17:00,77.8,75.6,29.87,South,181,6.0,11.0,93,0.00,,---,0.01,VWS V14.01,2013-10-31 03:17:00,
2013-10-30 22:18:00,78.0,75.8,29.85,South,178,8.0,14.0,93,0.00,,---,0.01,VWS V14.01,2013-10-31 03:18:00,
2013-10-30 22:19:00,78.1,75.9,29.85,SSE,165,5.0,15.0,93,0.00,,---,0.01,VWS V14.01,2013-10-31 03:19:00,
2013-10-30 22:20:00,78.1,75.9,29.85,SSE,164,14.0,15.0,93,0.00,,---,0.01,VWS V14.01,2013-10-31 03:20:00,
2013-10-30 22:21:00,78.1,75.9,29.85,South,172,10.0,15.0,93,0.00,,---,0.01,VWS V14.01,2013-10-31 03:21:00,
2013-10-30 22:22:00,78.2,76.0,29.86,South,181,10.0,15.0,93,0.00,,---,0.01,VWS V14.01,2013-10-31 03:22:00,
2013-10-30 22:23:00,78.2,76.0,29.86,South,184,8.0,15.0,93,0.00,,---,0.01,VWS V14.01,2013-10-31 03:23:00,
2013-10-30 22:24:00,78.2,76.0,29.86,South,184,10.0,15.0,93,0.00,,---,0.01,VWS V14.01,2013-10-31 03:24:00,
2013-10-30 22:25:00,78.2,76.0,29.86,SE,143,8.0,15.0,93,0.01,,---,0.02,VWS V14.01,2013-10-31 03:25:00,
2013-10-30 22:26:00,78.1,75.9,29.86,SE,132,9.0,15.0,93,0.01,,---,0.02,VWS V14.01,2013-10-31 03:26:00,
2013-10-30 22:27:00,78.1,75.9,29.86,South,172,8.0,15.0,93,0.01,,---,0.02,VWS V14.01,2013-10-31 03:27:00,
2013-10-30 22:28:00,78.1,75.9,29.86,South,172,8.0,15.0,93,0.01,,---,0.02,VWS V14.01,2013-10-31 03:28:00,
2013-10-30 22:29:00,78.1,75.9,29.86,SSE,164,7.0,15.0,93,0.01,,---,0.02,VWS V14.01,2013-10-31 03:29:00,
2013-10-30 22:30:00,78.1,75.9,29.85,South,187,8.0,15.0,93,0.02,,---,0.03,VWS V14.01,2013-10-31 03:30:00,
2013-10-30 22:31:00,78.0,75.8,29.86,SSE,164,9.0,11.0,93,0.02,,---,0.03,VWS V14.01,2013-10-31 03:31:00,
2013-10-30 22:32:00,78.0,75.8,29.85,South,172,9.0,12.0,93,0.02,,---,0.03,VWS V14.01,2013-10-31 03:32:00,
2013-10-30 22:33:00,78.0,75.8,29.86,SSE,167,9.0,13.0,93,0.02,,---,0.03,VWS V14.01,2013-10-31 03:33:00,
2013-10-30 22:34:00,78.0,75.8,29.86,SE,132,9.0,13.0,93,0.02,,---,0.03,VWS V14.01,2013-10-31 03:34:00,
2013-10-30 22:35:00,77.9,75.7,29.86,South,170,10.0,13.0,93,0.02,,---,0.03,VWS V14.01,2013-10-31 03:35:00,
2013-10-30 22:36:00,77.9,75.7,29.86,SSE,166,5.0,13.0,93,0.02,,---,0.03,VWS V14.01,2013-10-31 03:36:00,
2013-10-30 22:37:00,77.9,75.7,29.86,SSE,164,9.0,13.0,93,0.03,,---,0.04,VWS V14.01,2013-10-31 03:37:00,
2013-10-30 22:38:00,77.9,75.7,29.85,South,178,9.0,13.0,93,0.03,,---,0.04,VWS V14.01,2013-10-31 03:38:00,
2013-10-30 22:39:00,77.9,75.7,29.86,South,169,6.0,13.0,93,0.03,,---,0.04,VWS V14.01,2013-10-31 03:39:00,
2013-10-30 22:40:00,77.9,75.7,29.85,South,178,9.0,13.0,93,0.03,,---,0.04,VWS V14.01,2013-10-31 03:40:00,
2013-10-30 22:41:00,77.8,75.6,29.85,South,172,9.0,13.0,93,0.03,,---,0.04,VWS V14.01,2013-10-31 03:41:00,
2013-10-30 22:42:00,77.8,75.9,29.85,South,172,7.0,16.0,94,0.03,,---,0.04,VWS V14.01,2013-10-31 03:42:00,
2013-10-30 22:43:00,77.8,75.9,29.85,SSE,159,8.0,16.0,94,0.03,,---,0.04,VWS V14.01,2013-10-31 03:43:00,
2013-10-30 22:44:00,77.8,75.9,29.85,SSE,166,8.0,16.0,94,0.03,,---,0.04,VWS V14.01,2013-10-31 03:44:00,
2013-10-30 22:45:00,77.8,75.9,29.85,South,173,11.0,16.0,94,0.03,,---,0.04,VWS V14.01,2013-10-31 03:45:00,
2013-10-30 22:46:00,77.8,75.9,29.85,South,172,8.0,16.0,94,0.03,,---,0.04,VWS V14.01,2013-10-31 03:46:00,
2013-10-30 22:47:00,77.8,75.9,29.85,South,180,9.0,16.0,94,0.03,,---,0.04,VWS V14.01,2013-10-31 03:47:00,
2013-10-30 22:48:00,77.8,75.9,29.85,South,186,10.0,16.0,94,0.03,,---,0.04,VWS V14.01,2013-10-31 03:48:00,
2013-10-30 22:49:00,77.8,75.9,29.85,SSE,164,13.0,16.0,94,0.03,,---,0.04,VWS V14.01,2013-10-31 03:49:00,
2013-10-30 22:50:00,77.8,75.9,29.85,SSW,193,5.0,16.0,94,0.03,,---,0.04,VWS V14.01,2013-10-31 03:50:00,
2013-10-30 22:51:00,77.7,75.8,29.85,South,171,6.0,13.0,94,0.03,,---,0.04,VWS V14.01,2013-10-31 03:51:00,
2013-10-30 22:52:00,77.7,75.8,29.85,SSE,166,10.0,13.0,94,0.03,,---,0.04,VWS V14.01,2013-10-31 03:52:00,
2013-10-30 22:53:00,77.7,75.8,29.85,South,172,9.0,13.0,94,0.03,,---,0.04,VWS V14.01,2013-10-31 03:53:00,
2013-10-30 22:54:00,77.7,75.8,29.85,SE,143,7.0,13.0,94,0.03,,---,0.04,VWS V14.01,2013-10-31 03:54:00,
2013-10-30 22:55:00,77.7,75.8,29.85,South,172,11.0,13.0,94,0.03,,---,0.04,VWS V14.01,2013-10-31 03:55:00,
2013-10-30 22:56:00,77.7,75.8,29.85,South,176,5.0,13.0,94,0.08,,---,0.09,VWS V14.01,2013-10-31 03:56:00,
2013-10-30 22:57:00,77.7,75.8,29.85,SSW,192,3.0,13.0,94,0.10,,---,0.11,VWS V14.01,2013-10-31 03:57:00,
2013-10-30 22:58:00,77.6,75.7,29.85,SSE,158,3.0,13.0,94,0.10,,---,0.11,VWS V14.01,2013-10-31 03:58:00,
2013-10-30 22:59:00,77.6,75.7,29.85,SSE,157,2.0,13.0,94,0.10,,---,0.11,VWS V14.01,2013-10-31 03:59:00,
2013-10-30 23:00:00,77.6,75.7,29.85,South,188,8.0,14.0,94,0.10,,---,0.11,VWS V14.01,2013-10-31 04:00:00,
2013-10-30 23:01:00,77.6,75.7,29.85,SSE,164,7.0,13.0,94,0.10,,---,0.11,VWS V14.01,2013-10-31 04:01:00,
2013-10-30 23:02:00,77.6,75.7,29.85,South,181,7.0,13.0,94,0.10,,---,0.11,VWS V14.01,2013-10-31 04:02:00,
2013-10-30 23:03:00,77.6,75.7,29.85,SE,140,3.0,13.0,94,0.10,,---,0.11,VWS V14.01,2013-10-31 04:03:00,
2013-10-30 23:04:00,77.6,75.7,29.85,SSE,163,5.0,13.0,94,0.10,,---,0.11,VWS V14.01,2013-10-31 04:04:00,
2013-10-30 23:05:00,77.6,75.7,29.85,SSE,160,3.0,13.0,94,0.10,,---,0.11,VWS V14.01,2013-10-31 04:05:00,
2013-10-30 23:06:00,77.5,75.6,29.85,South,185,6.0,13.0,94,0.10,,---,0.11,VWS V14.01,2013-10-31 04:06:00,
2013-10-30 23:07:00,77.5,75.6,29.85,South,176,5.0,13.0,94,0.10,,---,0.11,VWS V14.01,2013-10-31 04:07:00,
2013-10-30 23:08:00,77.5,75.6,29.85,SSE,167,9.0,13.0,94,0.10,,---,0.11,VWS V14.01,2013-10-31 04:08:00,
2013-10-30 23:09:00,77.5,75.6,29.85,South,173,9.0,13.0,94,0.10,,---,0.11,VWS V14.01,2013-10-31 04:09:00,
2013-10-30 23:10:00,77.5,75.6,29.85,South,178,9.0,13.0,94,0.10,,---,0.11,VWS V14.01,2013-10-31 04:10:00,
2013-10-30 23:11:00,77.5,75.6,29.85,South,182,7.0,13.0,94,0.11,,---,0.12,VWS V14.01,2013-10-31 04:11:00,
2013-10-30 23:12:00,77.5,75.6,29.85,South,170,9.0,13.0,94,0.11,,---,0.12,VWS V14.01,2013-10-31 04:12:00,
2013-10-30 23:13:00,77.6,75.7,29.85,South,174,3.0,13.0,94,0.11,,---,0.12,VWS V14.01,2013-10-31 04:13:00,
2013-10-30 23:14:00,77.5,75.6,29.85,South,190,6.0,13.0,94,0.11,,---,0.12,VWS V14.01,2013-10-31 04:14:00,
2013-10-30 23:15:00,77.6,75.7,29.85,South,180,5.0,13.0,94,0.11,,---,0.12,VWS V14.01,2013-10-31 04:15:00,
2013-10-30 23:16:00,77.5,75.6,29.85,SSE,156,5.0,13.0,94,0.11,,---,0.12,VWS V14.01,2013-10-31 04:16:00,
2013-10-30 23:17:00,77.5,75.6,29.85,SE,131,5.0,13.0,94,0.11,,---,0.12,VWS V14.01,2013-10-31 04:17:00,
2013-10-30 23:18:00,77.5,75.6,29.84,WSW,242,4.0,13.0,94,0.11,,---,0.12,VWS V14.01,2013-10-31 04:18:00,
2013-10-30 23:19:00,77.5,75.6,29.85,SSE,159,5.0,13.0,94,0.11,,---,0.12,VWS V14.01,2013-10-31 04:19:00,
2013-10-30 23:20:00,77.5,75.6,29.85,South,178,7.0,13.0,94,0.11,,---,0.12,VWS V14.01,2013-10-31 04:20:00,
2013-10-30 23:21:00,77.5,75.6,29.85,South,176,5.0,9.0,94,0.11,,---,0.12,VWS V14.01,2013-10-31 04:21:00,
2013-10-30 23:22:00,77.5,75.6,29.85,SSE,166,8.0,9.0,94,0.11,,---,0.12,VWS V14.01,2013-10-31 04:22:00,
2013-10-30 23:23:00,77.5,75.6,29.85,South,176,3.0,9.0,94,0.11,,---,0.12,VWS V14.01,2013-10-31 04:23:00,
2013-10-30 23:24:00,77.6,75.7,29.85,South,178,5.0,10.0,94,0.11,,---,0.12,VWS V14.01,2013-10-31 04:24:00,
2013-10-30 23:25:00,77.5,75.6,29.85,South,172,3.0,10.0,94,0.12,,---,0.13,VWS V14.01,2013-10-31 04:25:00,
2013-10-30 23:26:00,77.5,75.6,29.85,SW,222,2.0,10.0,94,0.12,,---,0.13,VWS V14.01,2013-10-31 04:26:00,
2013-10-30 23:27:00,77.5,75.6,29.85,South,176,2.0,10.0,94,0.12,,---,0.13,VWS V14.01,2013-10-31 04:27:00,
2013-10-30 23:28:00,77.5,75.6,29.85,South,171,3.0,10.0,94,0.12,,---,0.13,VWS V14.01,2013-10-31 04:28:00,
2013-10-30 23:29:00,77.5,75.6,29.85,South,169,7.0,10.0,94,0.12,,---,0.13,VWS V14.01,2013-10-31 04:29:00,
2013-10-30 23:30:00,77.5,75.6,29.84,South,184,3.0,10.0,94,0.12,,---,0.13,VWS V14.01,2013-10-31 04:30:00,
2013-10-30 23:35:00,77.5,75.6,29.84,South,173,7.0,7.0,94,0.10,,---,0.13,VWS V14.01,2013-10-31 04:35:00,
2013-10-30 23:36:00,77.5,75.6,29.84,South,174,3.0,8.0,94,0.10,,---,0.13,VWS V14.01,2013-10-31 04:36:00,
2013-10-30 23:37:00,77.5,75.6,29.84,South,172,8.0,8.0,94,0.10,,---,0.13,VWS V14.01,2013-10-31 04:37:00,
2013-10-30 23:38:00,77.6,75.7,29.84,South,186,5.0,8.0,94,0.10,,---,0.13,VWS V14.01,2013-10-31 04:38:00,
2013-10-30 23:39:00,77.5,75.6,29.84,SSW,195,7.0,9.0,94,0.10,,---,0.13,VWS V14.01,2013-10-31 04:39:00,
2013-10-30 23:40:00,77.6,75.7,29.84,SSW,199,3.0,9.0,94,0.10,,---,0.13,VWS V14.01,2013-10-31 04:40:00,
2013-10-30 23:41:00,77.5,75.6,29.83,South,176,2.0,7.0,94,0.09,,---,0.13,VWS V14.01,2013-10-31 04:41:00,
2013-10-30 23:42:00,77.5,75.6,29.83,South,178,10.0,13.0,94,0.09,,---,0.13,VWS V14.01,2013-10-31 04:42:00,
2013-10-30 23:43:00,77.6,75.7,29.83,SE,134,8.0,14.0,94,0.09,,---,0.13,VWS V14.01,2013-10-31 04:43:00,
2013-10-30 23:44:00,77.5,75.6,29.83,SE,137,9.0,14.0,94,0.09,,---,0.13,VWS V14.01,2013-10-31 04:44:00,
2013-10-30 23:45:00,77.5,75.6,29.83,South,170,7.0,15.0,94,0.09,,---,0.13,VWS V14.01,2013-10-31 04:45:00,
2013-10-30 23:46:00,77.6,75.7,29.83,SSE,157,14.0,15.0,94,0.09,,---,0.13,VWS V14.01,2013-10-31 04:46:00,
2013-10-30 23:47:00,77.5,75.6,29.83,SSE,164,12.0,15.0,94,0.09,,---,0.13,VWS V14.01,2013-10-31 04:47:00,
2013-10-30 23:48:00,77.6,75.7,29.83,SSE,162,9.0,15.0,94,0.09,,---,0.13,VWS V14.01,2013-10-31 04:48:00,
2013-10-30 23:49:00,77.6,75.7,29.83,SSE,165,10.0,15.0,94,0.09,,---,0.13,VWS V14.01,2013-10-31 04:49:00,
2013-10-30 23:50:00,77.6,75.7,29.83,South,188,8.0,15.0,94,0.09,,---,0.13,VWS V14.01,2013-10-31 04:50:00,
2013-10-30 23:51:00,77.6,75.7,29.83,South,170,15.0,15.0,94,0.09,,---,0.13,VWS V14.01,2013-10-31 04:51:00,
2013-10-30 23:52:00,77.6,75.7,29.83,SSE,159,8.0,15.0,94,0.09,,---,0.13,VWS V14.01,2013-10-31 04:52:00,
2013-10-30 23:53:00,77.6,75.7,29.82,SSE,166,10.0,15.0,94,0.09,,---,0.13,VWS V14.01,2013-10-31 04:53:00,
2013-10-30 23:54:00,77.6,75.7,29.82,SSW,196,8.0,16.0,94,0.09,,---,0.13,VWS V14.01,2013-10-31 04:54:00,
2013-10-30 23:55:00,77.7,75.8,29.82,South,174,15.0,16.0,94,0.09,,---,0.13,VWS V14.01,2013-10-31 04:55:00,
2013-10-30 23:56:00,77.7,75.8,29.82,South,169,11.0,16.0,94,0.09,,---,0.13,VWS V14.01,2013-10-31 04:56:00,
2013-10-30 23:57:00,77.8,75.9,29.82,SSE,168,8.0,16.0,94,0.09,,---,0.13,VWS V14.01,2013-10-31 04:57:00,
2013-10-30 23:58:00,77.8,75.9,29.82,South,178,9.0,16.0,94,0.09,,---,0.13,VWS V14.01,2013-10-31 04:58:00,
2013-10-30 23:59:00,77.8,75.9,29.82,SSE,153,11.0,16.0,94,0.09,,---,0.13,VWS V14.01,2013-10-31 04:59:00,